<?xml version='1.0' encoding='UTF-8'?><gpx version="1.1" creator="JPX - https://github.com/jenetics/jpx" xmlns="http://www.topografix.com/GPX/1/1"><trk><trkseg><trkpt lat="38.16460949643973" lon="15.840336680368797"><ele>1368.0</ele><time>2026-04-25T12:00:27Z</time></trkpt><trkpt lat="38.16456156315803" lon="15.840264924661577"><ele>1368.0</ele><time>2026-04-25T12:02:11.001Z</time></trkpt><trkpt lat="38.16459537942034" lon="15.84033408103079"><ele>1368.0</ele><time>2026-04-25T12:02:25Z</time></trkpt><trkpt lat="38.16466766888576" lon="15.840356933085184"><ele>1368.0</ele><time>2026-04-25T12:03:45Z</time></trkpt><trkpt lat="38.16474323325823" lon="15.840345396689843"><ele>1368.0</ele><time>2026-04-25T12:03:53Z</time></trkpt><trkpt lat="38.16474938014042" lon="15.840240902220465"><ele>1368.0</ele><time>2026-04-25T12:03:56Z</time></trkpt><trkpt lat="38.164741861853635" lon="15.84012204508054"><ele>1366.6666666666667</ele><time>2026-04-25T12:03:58Z</time></trkpt><trkpt lat="38.16472380980006" lon="15.84001990208371"><ele>1365.3333333333333</ele><time>2026-04-25T12:04:00Z</time></trkpt><trkpt lat="38.16471675286606" lon="15.839936212037312"><ele>1364.0</ele><time>2026-04-25T12:04:02Z</time></trkpt><trkpt lat="38.164716216217954" lon="15.839846265221286"><ele>1362.6666666666665</ele><time>2026-04-25T12:04:08.001Z</time></trkpt><trkpt lat="38.16479302049316" lon="15.839788536761015"><ele>1361.3333333333333</ele><time>2026-04-25T12:04:10.001Z</time></trkpt><trkpt lat="38.16489226895926" lon="15.839727862931229"><ele>1360.0</ele><time>2026-04-25T12:04:12.001Z</time></trkpt><trkpt lat="38.16490125106867" lon="15.839624691983333"><ele>1359.8</ele><time>2026-04-25T12:04:15Z</time></trkpt><trkpt lat="38.16496792185499" lon="15.839547772007343"><ele>1359.6</ele><time>2026-04-25T12:04:17Z</time></trkpt><trkpt lat="38.16503126613291" lon="15.839444519719336"><ele>1359.4</ele><time>2026-04-25T12:04:19Z</time></trkpt><trkpt lat="38.165089540358544" lon="15.839337894317566"><ele>1359.2</ele><time>2026-04-25T12:04:21Z</time></trkpt><trkpt lat="38.165137038630235" lon="15.839284583403305"><ele>1359.0</ele><time>2026-04-25T12:04:22Z</time></trkpt><trkpt lat="38.165199640184284" lon="15.839193824665047"><ele>1357.6666666666667</ele><time>2026-04-25T12:04:24Z</time></trkpt><trkpt lat="38.165240495435704" lon="15.839081514741942"><ele>1356.3333333333333</ele><time>2026-04-25T12:04:26Z</time></trkpt><trkpt lat="38.16531681303222" lon="15.839079218628715"><ele>1355.0</ele><time>2026-04-25T12:04:29Z</time></trkpt><trkpt lat="38.165401297901376" lon="15.839013203621935"><ele>1353.6666666666665</ele><time>2026-04-25T12:04:34Z</time></trkpt><trkpt lat="38.165466272281" lon="15.838981161135298"><ele>1352.3333333333333</ele><time>2026-04-25T12:04:37Z</time></trkpt><trkpt lat="38.16553172405539" lon="15.83896410493423"><ele>1351.0</ele><time>2026-04-25T12:04:39Z</time></trkpt><trkpt lat="38.1656122502594" lon="15.838965948763544"><ele>1351.0</ele><time>2026-04-25T12:04:43Z</time></trkpt><trkpt lat="38.16569085028712" lon="15.838880357876425"><ele>1351.0</ele><time>2026-04-25T12:04:45Z</time></trkpt><trkpt lat="38.16572217257832" lon="15.838800322087888"><ele>1351.0</ele><time>2026-04-25T12:04:46Z</time></trkpt><trkpt lat="38.1657616784233" lon="15.83873347208923"><ele>1351.0</ele><time>2026-04-25T12:04:47Z</time></trkpt><trkpt lat="38.16580110904756" lon="15.838659847065532"><ele>1351.0</ele><time>2026-04-25T12:04:48Z</time></trkpt><trkpt lat="38.16584401871562" lon="15.838587693699163"><ele>1351.0</ele><time>2026-04-25T12:04:49Z</time></trkpt><trkpt lat="38.165886461910844" lon="15.838514836985008"><ele>1348.8333333333333</ele><time>2026-04-25T12:04:50Z</time></trkpt><trkpt lat="38.16592613523179" lon="15.838441992244581"><ele>1346.6666666666665</ele><time>2026-04-25T12:04:51Z</time></trkpt><trkpt lat="38.16597239410706" lon="15.838359285781111"><ele>1344.5</ele><time>2026-04-25T12:04:52Z</time></trkpt><trkpt lat="38.166018543702634" lon="15.838263593632675"><ele>1342.3333333333333</ele><time>2026-04-25T12:04:53Z</time></trkpt><trkpt lat="38.16606720540148" lon="15.838166499244574"><ele>1340.1666666666667</ele><time>2026-04-25T12:04:54Z</time></trkpt><trkpt lat="38.166114319416494" lon="15.838076600665188"><ele>1338.0</ele><time>2026-04-25T12:04:55Z</time></trkpt><trkpt lat="38.16616362622865" lon="15.837980261107859"><ele>1338.0</ele><time>2026-04-25T12:04:56Z</time></trkpt><trkpt lat="38.16620413782779" lon="15.83787761858545"><ele>1338.0</ele><time>2026-04-25T12:04:57Z</time></trkpt><trkpt lat="38.166251569693365" lon="15.837782366159493"><ele>1338.0</ele><time>2026-04-25T12:04:58Z</time></trkpt><trkpt lat="38.16629655086327" lon="15.837686886634913"><ele>1338.0</ele><time>2026-04-25T12:04:59Z</time></trkpt><trkpt lat="38.16636433556171" lon="15.837605187818983"><ele>1338.0</ele><time>2026-04-25T12:05:00Z</time></trkpt><trkpt lat="38.166400827267715" lon="15.837505878565569"><ele>1338.0</ele><time>2026-04-25T12:05:01Z</time></trkpt><trkpt lat="38.16644342854034" lon="15.83741237207768"><ele>1336.4</ele><time>2026-04-25T12:05:02Z</time></trkpt><trkpt lat="38.16649935348301" lon="15.837327365211765"><ele>1334.8000000000002</ele><time>2026-04-25T12:05:03Z</time></trkpt><trkpt lat="38.166529801651855" lon="15.837230294613876"><ele>1333.2</ele><time>2026-04-25T12:05:04Z</time></trkpt><trkpt lat="38.16661044463974" lon="15.83712845523647"><ele>1331.6</ele><time>2026-04-25T12:05:06Z</time></trkpt><trkpt lat="38.16666450553392" lon="15.837021260203214"><ele>1330.0</ele><time>2026-04-25T12:05:08Z</time></trkpt><trkpt lat="38.1667089792652" lon="15.836956508103766"><ele>1329.5</ele><time>2026-04-25T12:05:13Z</time></trkpt><trkpt lat="38.16679457495328" lon="15.836892053139051"><ele>1329.0</ele><time>2026-04-25T12:06:11Z</time></trkpt><trkpt lat="38.16685783385417" lon="15.836868561642442"><ele>1328.5</ele><time>2026-04-25T12:06:12Z</time></trkpt><trkpt lat="38.16692729120135" lon="15.83684785731373"><ele>1328.0</ele><time>2026-04-25T12:06:13Z</time></trkpt><trkpt lat="38.16699760204261" lon="15.836828349989032"><ele>1327.5</ele><time>2026-04-25T12:06:14Z</time></trkpt><trkpt lat="38.16708530720696" lon="15.836804539364818"><ele>1327.0</ele><time>2026-04-25T12:06:15Z</time></trkpt><trkpt lat="38.16717028090439" lon="15.836777587842722"><ele>1326.0</ele><time>2026-04-25T12:06:16Z</time></trkpt><trkpt lat="38.16723278547914" lon="15.836753733192383"><ele>1325.0</ele><time>2026-04-25T12:06:17Z</time></trkpt><trkpt lat="38.16729999990861" lon="15.836741951412323"><ele>1324.0</ele><time>2026-04-25T12:06:18Z</time></trkpt><trkpt lat="38.16738660486732" lon="15.836727040064542"><ele>1323.0</ele><time>2026-04-25T12:06:19.999Z</time></trkpt><trkpt lat="38.16744499539386" lon="15.836690373737147"><ele>1322.0</ele><time>2026-04-25T12:06:27Z</time></trkpt><trkpt lat="38.167468371588484" lon="15.836500267443627"><ele>1321.0</ele><time>2026-04-25T12:06:29Z</time></trkpt><trkpt lat="38.167438018198865" lon="15.836422224541655"><ele>1321.0</ele><time>2026-04-25T12:06:30Z</time></trkpt><trkpt lat="38.16739240029969" lon="15.836296754044"><ele>1321.0</ele><time>2026-04-25T12:06:32Z</time></trkpt><trkpt lat="38.16735524229341" lon="15.836135820170504"><ele>1321.0</ele><time>2026-04-25T12:06:34Z</time></trkpt><trkpt lat="38.16737350105044" lon="15.836055301473849"><ele>1321.0</ele><time>2026-04-25T12:06:35Z</time></trkpt><trkpt lat="38.167449068407976" lon="15.835974283584035"><ele>1321.0</ele><time>2026-04-25T12:06:36Z</time></trkpt><trkpt lat="38.16750915201413" lon="15.835927993527788"><ele>1320.1999999999998</ele><time>2026-04-25T12:06:37Z</time></trkpt><trkpt lat="38.16758484731725" lon="15.835878382143381"><ele>1319.3999999999999</ele><time>2026-04-25T12:06:38Z</time></trkpt><trkpt lat="38.167671838886555" lon="15.835823270186086"><ele>1318.6</ele><time>2026-04-25T12:06:39Z</time></trkpt><trkpt lat="38.16776806096384" lon="15.835762980134373"><ele>1317.8</ele><time>2026-04-25T12:06:40Z</time></trkpt><trkpt lat="38.16783662901152" lon="15.835701912994082"><ele>1317.0</ele><time>2026-04-25T12:06:41Z</time></trkpt><trkpt lat="38.167939250348574" lon="15.835652372249024"><ele>1317.0</ele><time>2026-04-25T12:06:42Z</time></trkpt><trkpt lat="38.16804185343298" lon="15.83559852520938"><ele>1317.0</ele><time>2026-04-25T12:06:43Z</time></trkpt><trkpt lat="38.1681402151145" lon="15.835526023397836"><ele>1317.0</ele><time>2026-04-25T12:06:44Z</time></trkpt><trkpt lat="38.16822029280384" lon="15.835423771441318"><ele>1317.0</ele><time>2026-04-25T12:06:45Z</time></trkpt><trkpt lat="38.16828557938611" lon="15.83529452456388"><ele>1315.5</ele><time>2026-04-25T12:06:46Z</time></trkpt><trkpt lat="38.16833743663738" lon="15.835156024031699"><ele>1314.0</ele><time>2026-04-25T12:06:47Z</time></trkpt><trkpt lat="38.16838913444968" lon="15.835013897283218"><ele>1312.5</ele><time>2026-04-25T12:06:48Z</time></trkpt><trkpt lat="38.16844864671171" lon="15.834870261198043"><ele>1311.0</ele><time>2026-04-25T12:06:49Z</time></trkpt><trkpt lat="38.168507961126416" lon="15.834739840027828"><ele>1311.0</ele><time>2026-04-25T12:06:50Z</time></trkpt><trkpt lat="38.1685215307462" lon="15.834581712787646"><ele>1311.0</ele><time>2026-04-25T12:06:51Z</time></trkpt><trkpt lat="38.16854510722825" lon="15.834437009073584"><ele>1311.0</ele><time>2026-04-25T12:06:52Z</time></trkpt><trkpt lat="38.16855161032132" lon="15.83427616700476"><ele>1311.0</ele><time>2026-04-25T12:06:53Z</time></trkpt><trkpt lat="38.16853290514501" lon="15.834091898776066"><ele>1310.5</ele><time>2026-04-25T12:06:54Z</time></trkpt><trkpt lat="38.16851895371086" lon="15.833967105404657"><ele>1310.0</ele><time>2026-04-25T12:06:55Z</time></trkpt><trkpt lat="38.16848174894803" lon="15.833825230662953"><ele>1309.5</ele><time>2026-04-25T12:06:56Z</time></trkpt><trkpt lat="38.168443244002525" lon="15.833675313645124"><ele>1309.0</ele><time>2026-04-25T12:06:57Z</time></trkpt><trkpt lat="38.168404756278875" lon="15.833517919196577"><ele>1307.75</ele><time>2026-04-25T12:06:58Z</time></trkpt><trkpt lat="38.168368149146296" lon="15.833360853686326"><ele>1306.5</ele><time>2026-04-25T12:06:59Z</time></trkpt><trkpt lat="38.168334014522976" lon="15.833215593037432"><ele>1305.25</ele><time>2026-04-25T12:07:00Z</time></trkpt><trkpt lat="38.16829878389372" lon="15.833071111830572"><ele>1304.0</ele><time>2026-04-25T12:07:01Z</time></trkpt><trkpt lat="38.16826572054217" lon="15.832916837668801"><ele>1304.0</ele><time>2026-04-25T12:07:02Z</time></trkpt><trkpt lat="38.16824536388074" lon="15.83277470541975"><ele>1304.0</ele><time>2026-04-25T12:07:03Z</time></trkpt><trkpt lat="38.16821531827742" lon="15.83264347552925"><ele>1304.0</ele><time>2026-04-25T12:07:04Z</time></trkpt><trkpt lat="38.16818373974453" lon="15.83250555026806"><ele>1304.0</ele><time>2026-04-25T12:07:05Z</time></trkpt><trkpt lat="38.16815727490509" lon="15.832385109996924"><ele>1304.0</ele><time>2026-04-25T12:07:06Z</time></trkpt><trkpt lat="38.16813033934962" lon="15.83227249651986"><ele>1303.2</ele><time>2026-04-25T12:07:07Z</time></trkpt><trkpt lat="38.16810232948148" lon="15.832167730295799"><ele>1302.4</ele><time>2026-04-25T12:07:08Z</time></trkpt><trkpt lat="38.16802392247454" lon="15.83208615401557"><ele>1301.6</ele><time>2026-04-25T12:07:09Z</time></trkpt><trkpt lat="38.16794831643149" lon="15.83201172577039"><ele>1300.8</ele><time>2026-04-25T12:07:10Z</time></trkpt><trkpt lat="38.167873151533364" lon="15.831955753658509"><ele>1300.0</ele><time>2026-04-25T12:07:11Z</time></trkpt><trkpt lat="38.167799381188495" lon="15.831860929032718"><ele>1298.5</ele><time>2026-04-25T12:07:12Z</time></trkpt><trkpt lat="38.16772019268468" lon="15.831786658919293"><ele>1297.0</ele><time>2026-04-25T12:07:13Z</time></trkpt><trkpt lat="38.167645364897595" lon="15.831729716350761"><ele>1295.5</ele><time>2026-04-25T12:07:14Z</time></trkpt><trkpt lat="38.1675748885841" lon="15.831681732896016"><ele>1294.0</ele><time>2026-04-25T12:07:15Z</time></trkpt><trkpt lat="38.16751147303851" lon="15.831632342246127"><ele>1292.5</ele><time>2026-04-25T12:07:16Z</time></trkpt><trkpt lat="38.16744642259781" lon="15.831574120064722"><ele>1291.0</ele><time>2026-04-25T12:07:17Z</time></trkpt><trkpt lat="38.167422599462725" lon="15.83149150448035"><ele>1291.0</ele><time>2026-04-25T12:07:18Z</time></trkpt><trkpt lat="38.16742805562" lon="15.831395360261244"><ele>1291.0</ele><time>2026-04-25T12:07:19Z</time></trkpt><trkpt lat="38.16749897515581" lon="15.831296631488177"><ele>1291.0</ele><time>2026-04-25T12:07:20Z</time></trkpt><trkpt lat="38.167556210518576" lon="15.831223111531289"><ele>1291.0</ele><time>2026-04-25T12:07:21Z</time></trkpt><trkpt lat="38.167647105700425" lon="15.831189665198641"><ele>1291.0</ele><time>2026-04-25T12:07:22Z</time></trkpt><trkpt lat="38.16775384626268" lon="15.83118603140331"><ele>1291.0</ele><time>2026-04-25T12:07:23Z</time></trkpt><trkpt lat="38.167863059231" lon="15.831168673043761"><ele>1291.0</ele><time>2026-04-25T12:07:24Z</time></trkpt><trkpt lat="38.16793937892445" lon="15.831093201581073"><ele>1291.0</ele><time>2026-04-25T12:07:25Z</time></trkpt><trkpt lat="38.168035571932215" lon="15.830993403409279"><ele>1291.0</ele><time>2026-04-25T12:07:26Z</time></trkpt><trkpt lat="38.16811682939631" lon="15.830857162287481"><ele>1287.25</ele><time>2026-04-25T12:07:27Z</time></trkpt><trkpt lat="38.16819910717018" lon="15.830713935552293"><ele>1283.5</ele><time>2026-04-25T12:07:28Z</time></trkpt><trkpt lat="38.16830161828224" lon="15.830595614789274"><ele>1279.75</ele><time>2026-04-25T12:07:29Z</time></trkpt><trkpt lat="38.16841070009333" lon="15.830461490542707"><ele>1276.0</ele><time>2026-04-25T12:07:30Z</time></trkpt><trkpt lat="38.16844171403353" lon="15.830331476152855"><ele>1276.0</ele><time>2026-04-25T12:07:31Z</time></trkpt><trkpt lat="38.16849330988789" lon="15.830172101957825"><ele>1276.0</ele><time>2026-04-25T12:07:32Z</time></trkpt><trkpt lat="38.168574629024995" lon="15.830066238339228"><ele>1276.0</ele><time>2026-04-25T12:07:33Z</time></trkpt><trkpt lat="38.16865579055993" lon="15.829949768914279"><ele>1276.0</ele><time>2026-04-25T12:07:34Z</time></trkpt><trkpt lat="38.168726028178845" lon="15.829816300721113"><ele>1274.3999999999999</ele><time>2026-04-25T12:07:35Z</time></trkpt><trkpt lat="38.16878587520455" lon="15.829695761446976"><ele>1272.8</ele><time>2026-04-25T12:07:36Z</time></trkpt><trkpt lat="38.16884817183395" lon="15.82957683307218"><ele>1271.1999999999998</ele><time>2026-04-25T12:07:37Z</time></trkpt><trkpt lat="38.16890004618399" lon="15.829463980383261"><ele>1269.6</ele><time>2026-04-25T12:07:38Z</time></trkpt><trkpt lat="38.16895329137607" lon="15.829366423415424"><ele>1268.0</ele><time>2026-04-25T12:07:39Z</time></trkpt><trkpt lat="38.16899204800165" lon="15.829290423060147"><ele>1268.2</ele><time>2026-04-25T12:07:40Z</time></trkpt><trkpt lat="38.1690580959024" lon="15.829267370289807"><ele>1268.4</ele><time>2026-04-25T12:07:41Z</time></trkpt><trkpt lat="38.16913650869012" lon="15.829428950459059"><ele>1268.6000000000001</ele><time>2026-04-25T12:07:43Z</time></trkpt><trkpt lat="38.1691401197032" lon="15.829550462903685"><ele>1268.8</ele><time>2026-04-25T12:07:44Z</time></trkpt><trkpt lat="38.169139989242325" lon="15.829637583439972"><ele>1269.0</ele><time>2026-04-25T12:07:45Z</time></trkpt><trkpt lat="38.16913867884717" lon="15.829761566099114"><ele>1269.0</ele><time>2026-04-25T12:07:46Z</time></trkpt><trkpt lat="38.16914237292657" lon="15.829868741043047"><ele>1269.0</ele><time>2026-04-25T12:07:47Z</time></trkpt><trkpt lat="38.16913416408417" lon="15.829967608587056"><ele>1269.0</ele><time>2026-04-25T12:07:48Z</time></trkpt><trkpt lat="38.16915555564679" lon="15.830046710117601"><ele>1269.0</ele><time>2026-04-25T12:07:49Z</time></trkpt><trkpt lat="38.16921868578294" lon="15.830087718805236"><ele>1269.0</ele><time>2026-04-25T12:07:50Z</time></trkpt><trkpt lat="38.16931307187629" lon="15.83010841404301"><ele>1269.0</ele><time>2026-04-25T12:07:52Z</time></trkpt><trkpt lat="38.169359900934516" lon="15.82994957929979"><ele>1269.0</ele><time>2026-04-25T12:07:53Z</time></trkpt><trkpt lat="38.16937961433887" lon="15.829861824797097"><ele>1269.0</ele><time>2026-04-25T12:07:54Z</time></trkpt><trkpt lat="38.169405500374445" lon="15.829758475028703"><ele>1269.0</ele><time>2026-04-25T12:07:55Z</time></trkpt><trkpt lat="38.16944124842106" lon="15.829668903411722"><ele>1269.0</ele><time>2026-04-25T12:07:56Z</time></trkpt><trkpt lat="38.16948473058101" lon="15.829543557198217"><ele>1269.0</ele><time>2026-04-25T12:07:57Z</time></trkpt><trkpt lat="38.169513161208144" lon="15.829418093636127"><ele>1269.0</ele><time>2026-04-25T12:07:58Z</time></trkpt><trkpt lat="38.169544836372005" lon="15.82930343896898"><ele>1269.2</ele><time>2026-04-25T12:07:59Z</time></trkpt><trkpt lat="38.16958275573238" lon="15.829195626413494"><ele>1269.4</ele><time>2026-04-25T12:08:00Z</time></trkpt><trkpt lat="38.16963942175352" lon="15.829070007172735"><ele>1269.6</ele><time>2026-04-25T12:08:01Z</time></trkpt><trkpt lat="38.16969096649531" lon="15.828968258005613"><ele>1269.8</ele><time>2026-04-25T12:08:02Z</time></trkpt><trkpt lat="38.16978554754421" lon="15.828919333120414"><ele>1270.0</ele><time>2026-04-25T12:08:03Z</time></trkpt><trkpt lat="38.16989463725637" lon="15.82885938744526"><ele>1266.4</ele><time>2026-04-25T12:08:04Z</time></trkpt><trkpt lat="38.16999257602929" lon="15.828796955792589"><ele>1262.8</ele><time>2026-04-25T12:08:05Z</time></trkpt><trkpt lat="38.17008155062971" lon="15.82874757964664"><ele>1259.2</ele><time>2026-04-25T12:08:06Z</time></trkpt><trkpt lat="38.17014593265164" lon="15.828728159914059"><ele>1255.6</ele><time>2026-04-25T12:08:07Z</time></trkpt><trkpt lat="38.17021417691465" lon="15.82868043501505"><ele>1252.0</ele><time>2026-04-25T12:08:08Z</time></trkpt><trkpt lat="38.17030361894054" lon="15.828587325189307"><ele>1252.0</ele><time>2026-04-25T12:08:10Z</time></trkpt><trkpt lat="38.170300689822746" lon="15.828481520633945"><ele>1252.0</ele><time>2026-04-25T12:08:11Z</time></trkpt><trkpt lat="38.17022402547137" lon="15.828416498006211"><ele>1252.0</ele><time>2026-04-25T12:08:12Z</time></trkpt><trkpt lat="38.170116569327035" lon="15.828417247288748"><ele>1252.0</ele><time>2026-04-25T12:08:13Z</time></trkpt><trkpt lat="38.17002486002246" lon="15.828449169689089"><ele>1252.0</ele><time>2026-04-25T12:08:14Z</time></trkpt><trkpt lat="38.16993682523813" lon="15.828484760047813"><ele>1250.8</ele><time>2026-04-25T12:08:15Z</time></trkpt><trkpt lat="38.16984347851976" lon="15.828486936392181"><ele>1249.6</ele><time>2026-04-25T12:08:16Z</time></trkpt><trkpt lat="38.169760470563034" lon="15.828514791139849"><ele>1248.3999999999999</ele><time>2026-04-25T12:08:17Z</time></trkpt><trkpt lat="38.16962050127172" lon="15.828476875076708"><ele>1247.2</ele><time>2026-04-25T12:08:19Z</time></trkpt><trkpt lat="38.169562763115195" lon="15.828370565819364"><ele>1246.0</ele><time>2026-04-25T12:08:21Z</time></trkpt><trkpt lat="38.16959065354763" lon="15.828297474611194"><ele>1246.0</ele><time>2026-04-25T12:08:22Z</time></trkpt><trkpt lat="38.16965239587185" lon="15.828240180544858"><ele>1246.0</ele><time>2026-04-25T12:08:23Z</time></trkpt><trkpt lat="38.16973259198265" lon="15.828246105450239"><ele>1246.0</ele><time>2026-04-25T12:08:24Z</time></trkpt><trkpt lat="38.169864015428786" lon="15.82819330671311"><ele>1246.0</ele><time>2026-04-25T12:08:24.999Z</time></trkpt><trkpt lat="38.170024776840634" lon="15.82816323887566"><ele>1243.25</ele><time>2026-04-25T12:08:25.999Z</time></trkpt><trkpt lat="38.17017325370694" lon="15.828096867474606"><ele>1240.5</ele><time>2026-04-25T12:08:26.999Z</time></trkpt><trkpt lat="38.17030072941161" lon="15.828076578018756"><ele>1237.75</ele><time>2026-04-25T12:08:27.999Z</time></trkpt><trkpt lat="38.170419033024" lon="15.828064528046415"><ele>1235.0</ele><time>2026-04-25T12:08:28.999Z</time></trkpt><trkpt lat="38.17056741397408" lon="15.828000785329303"><ele>1235.0</ele><time>2026-04-25T12:08:29.999Z</time></trkpt><trkpt lat="38.17065921455011" lon="15.827956904504203"><ele>1235.0</ele><time>2026-04-25T12:08:30.999Z</time></trkpt><trkpt lat="38.17071439677116" lon="15.827808590213161"><ele>1235.0</ele><time>2026-04-25T12:08:32.999Z</time></trkpt><trkpt lat="38.17070186804632" lon="15.827689522920274"><ele>1235.0</ele><time>2026-04-25T12:08:33.999Z</time></trkpt><trkpt lat="38.17057731266051" lon="15.82762335798549"><ele>1231.2</ele><time>2026-04-25T12:08:34.999Z</time></trkpt><trkpt lat="38.1705056921754" lon="15.827534656668831"><ele>1227.4</ele><time>2026-04-25T12:08:35.999Z</time></trkpt><trkpt lat="38.170442327523126" lon="15.827458841186774"><ele>1223.6</ele><time>2026-04-25T12:08:36.999Z</time></trkpt><trkpt lat="38.17040149805919" lon="15.827338628996566"><ele>1219.8</ele><time>2026-04-25T12:08:37.999Z</time></trkpt><trkpt lat="38.17039536345528" lon="15.827205045379108"><ele>1216.0</ele><time>2026-04-25T12:08:38.999Z</time></trkpt><trkpt lat="38.17041562600466" lon="15.827100326411568"><ele>1216.0</ele><time>2026-04-25T12:08:39.999Z</time></trkpt><trkpt lat="38.170479967166415" lon="15.826977127303676"><ele>1216.0</ele><time>2026-04-25T12:08:40.999Z</time></trkpt><trkpt lat="38.170561006590354" lon="15.826832751737918"><ele>1216.0</ele><time>2026-04-25T12:08:41.999Z</time></trkpt><trkpt lat="38.17063348085432" lon="15.826686129268488"><ele>1216.0</ele><time>2026-04-25T12:08:42.999Z</time></trkpt><trkpt lat="38.170702042118165" lon="15.82652551053683"><ele>1216.0</ele><time>2026-04-25T12:08:43.999Z</time></trkpt><trkpt lat="38.170777296529245" lon="15.826357105626814"><ele>1216.0</ele><time>2026-04-25T12:08:44.999Z</time></trkpt><trkpt lat="38.170855917431" lon="15.826167312124335"><ele>1216.0</ele><time>2026-04-25T12:08:45.999Z</time></trkpt><trkpt lat="38.17091948950162" lon="15.825994533378365"><ele>1214.0</ele><time>2026-04-25T12:08:46.999Z</time></trkpt><trkpt lat="38.170970980952845" lon="15.825807864433584"><ele>1212.0</ele><time>2026-04-25T12:08:47.999Z</time></trkpt><trkpt lat="38.171005788771055" lon="15.825602946764725"><ele>1210.0</ele><time>2026-04-25T12:08:48.999Z</time></trkpt><trkpt lat="38.171023522268015" lon="15.825399477329404"><ele>1210.0</ele><time>2026-04-25T12:08:49.999Z</time></trkpt><trkpt lat="38.17102639640028" lon="15.825185240431603"><ele>1210.0</ele><time>2026-04-25T12:08:50.999Z</time></trkpt><trkpt lat="38.17103239662155" lon="15.824967847610472"><ele>1210.0</ele><time>2026-04-25T12:08:52Z</time></trkpt><trkpt lat="38.171042607431104" lon="15.824784015793153"><ele>1206.3333333333333</ele><time>2026-04-25T12:08:53Z</time></trkpt><trkpt lat="38.17105349847533" lon="15.824587422961065"><ele>1202.6666666666667</ele><time>2026-04-25T12:08:54Z</time></trkpt><trkpt lat="38.17105845802463" lon="15.824390790672114"><ele>1199.0</ele><time>2026-04-25T12:08:55Z</time></trkpt><trkpt lat="38.1710787645644" lon="15.824209174812646"><ele>1196.5</ele><time>2026-04-25T12:08:56Z</time></trkpt><trkpt lat="38.171093422605985" lon="15.824031376018056"><ele>1194.0</ele><time>2026-04-25T12:08:57Z</time></trkpt><trkpt lat="38.1711026255928" lon="15.823847338446962"><ele>1191.5</ele><time>2026-04-25T12:08:58Z</time></trkpt><trkpt lat="38.17111938664824" lon="15.823660242725747"><ele>1189.0</ele><time>2026-04-25T12:08:59Z</time></trkpt><trkpt lat="38.17114403780838" lon="15.823463638069002"><ele>1184.6666666666665</ele><time>2026-04-25T12:09:00Z</time></trkpt><trkpt lat="38.17116843268001" lon="15.823280370139813"><ele>1180.3333333333333</ele><time>2026-04-25T12:09:01Z</time></trkpt><trkpt lat="38.17119143844391" lon="15.8230866327998"><ele>1176.0</ele><time>2026-04-25T12:09:02Z</time></trkpt><trkpt lat="38.17122769668954" lon="15.82288900322612"><ele>1176.0</ele><time>2026-04-25T12:09:03Z</time></trkpt><trkpt lat="38.17126175050743" lon="15.822691076475115"><ele>1176.0</ele><time>2026-04-25T12:09:04Z</time></trkpt><trkpt lat="38.171305281279324" lon="15.822486565081027"><ele>1176.0</ele><time>2026-04-25T12:09:05Z</time></trkpt><trkpt lat="38.171353462886024" lon="15.82225970657178"><ele>1169.6666666666667</ele><time>2026-04-25T12:09:06Z</time></trkpt><trkpt lat="38.17139520205073" lon="15.82205671635133"><ele>1163.3333333333335</ele><time>2026-04-25T12:09:07Z</time></trkpt><trkpt lat="38.171445707271744" lon="15.821844339847182"><ele>1157.0</ele><time>2026-04-25T12:09:08Z</time></trkpt><trkpt lat="38.17149680924905" lon="15.821627752252597"><ele>1163.0</ele><time>2026-04-25T12:09:09Z</time></trkpt><trkpt lat="38.171546999267825" lon="15.821407074688514"><ele>1169.0</ele><time>2026-04-25T12:09:10Z</time></trkpt><trkpt lat="38.1715960870895" lon="15.821197570542294"><ele>1175.0</ele><time>2026-04-25T12:09:11Z</time></trkpt><trkpt lat="38.17163947530785" lon="15.821006836162564"><ele>1172.3333333333335</ele><time>2026-04-25T12:09:12Z</time></trkpt><trkpt lat="38.17169271042652" lon="15.820777519795072"><ele>1169.6666666666667</ele><time>2026-04-25T12:09:13Z</time></trkpt><trkpt lat="38.17172085626225" lon="15.820595471810536"><ele>1167.0</ele><time>2026-04-25T12:09:14Z</time></trkpt><trkpt lat="38.17176100925168" lon="15.820453213810147"><ele>1167.0</ele><time>2026-04-25T12:09:15Z</time></trkpt><trkpt lat="38.17180034576014" lon="15.820321069176838"><ele>1167.0</ele><time>2026-04-25T12:09:16Z</time></trkpt><trkpt lat="38.171841312717454" lon="15.820186710010443"><ele>1167.0</ele><time>2026-04-25T12:09:17Z</time></trkpt><trkpt lat="38.171857646261394" lon="15.82005748261967"><ele>1167.0</ele><time>2026-04-25T12:09:18Z</time></trkpt><trkpt lat="38.171886366718525" lon="15.819918917042171"><ele>1167.0</ele><time>2026-04-25T12:09:19Z</time></trkpt><trkpt lat="38.171920894056264" lon="15.81977411468117"><ele>1167.0</ele><time>2026-04-25T12:09:20Z</time></trkpt><trkpt lat="38.171967990455165" lon="15.819603188626402"><ele>1167.0</ele><time>2026-04-25T12:09:21Z</time></trkpt><trkpt lat="38.172005274569074" lon="15.819456155866877"><ele>1167.0</ele><time>2026-04-25T12:09:22Z</time></trkpt><trkpt lat="38.172068131426535" lon="15.819251909757071"><ele>1167.0</ele><time>2026-04-25T12:09:23Z</time></trkpt><trkpt lat="38.17209334658342" lon="15.819113581066285"><ele>1167.75</ele><time>2026-04-25T12:09:24Z</time></trkpt><trkpt lat="38.17211943416621" lon="15.818960241024687"><ele>1168.5</ele><time>2026-04-25T12:09:25Z</time></trkpt><trkpt lat="38.172134812516006" lon="15.81877475381542"><ele>1169.25</ele><time>2026-04-25T12:09:26Z</time></trkpt><trkpt lat="38.1721265571002" lon="15.818592321716258"><ele>1170.0</ele><time>2026-04-25T12:09:27Z</time></trkpt><trkpt lat="38.172113554235494" lon="15.818412166107638"><ele>1170.25</ele><time>2026-04-25T12:09:28Z</time></trkpt><trkpt lat="38.17209907327602" lon="15.818227211679522"><ele>1170.5</ele><time>2026-04-25T12:09:29Z</time></trkpt><trkpt lat="38.172078960559894" lon="15.81804111107939"><ele>1170.75</ele><time>2026-04-25T12:09:30Z</time></trkpt><trkpt lat="38.172059893816076" lon="15.817882769956825"><ele>1171.0</ele><time>2026-04-25T12:09:31Z</time></trkpt><trkpt lat="38.17203987279565" lon="15.81773384670314"><ele>1169.75</ele><time>2026-04-25T12:09:32Z</time></trkpt><trkpt lat="38.17198287432069" lon="15.81758937549922"><ele>1168.5</ele><time>2026-04-25T12:09:33Z</time></trkpt><trkpt lat="38.17191856457232" lon="15.817440219151589"><ele>1167.25</ele><time>2026-04-25T12:09:34Z</time></trkpt><trkpt lat="38.17183909030596" lon="15.817311931776345"><ele>1166.0</ele><time>2026-04-25T12:09:35Z</time></trkpt><trkpt lat="38.171769086140785" lon="15.817168107335785"><ele>1166.0</ele><time>2026-04-25T12:09:36Z</time></trkpt><trkpt lat="38.17169909307873" lon="15.817039809291352"><ele>1166.0</ele><time>2026-04-25T12:09:37Z</time></trkpt><trkpt lat="38.17161180471947" lon="15.816849068845734"><ele>1166.0</ele><time>2026-04-25T12:09:38Z</time></trkpt><trkpt lat="38.17155815203688" lon="15.816756826776906"><ele>1166.0</ele><time>2026-04-25T12:09:39Z</time></trkpt><trkpt lat="38.17151831129725" lon="15.816637732065445"><ele>1166.0</ele><time>2026-04-25T12:09:40Z</time></trkpt><trkpt lat="38.17150256597566" lon="15.816474358068879"><ele>1166.0</ele><time>2026-04-25T12:09:41Z</time></trkpt><trkpt lat="38.17151692979964" lon="15.816351400192007"><ele>1166.0</ele><time>2026-04-25T12:09:42Z</time></trkpt><trkpt lat="38.171538522061425" lon="15.816204764444727"><ele>1166.0</ele><time>2026-04-25T12:09:43Z</time></trkpt><trkpt lat="38.17158369337781" lon="15.81599908307208"><ele>1164.0</ele><time>2026-04-25T12:09:44Z</time></trkpt><trkpt lat="38.171622694718714" lon="15.815722882670853"><ele>1162.0</ele><time>2026-04-25T12:09:46Z</time></trkpt><trkpt lat="38.171636839241636" lon="15.815545159716343"><ele>1160.0</ele><time>2026-04-25T12:09:47Z</time></trkpt><trkpt lat="38.171650630983734" lon="15.815381518740883"><ele>1160.0</ele><time>2026-04-25T12:09:48Z</time></trkpt><trkpt lat="38.17163476942356" lon="15.815208335456955"><ele>1160.0</ele><time>2026-04-25T12:09:49Z</time></trkpt><trkpt lat="38.17160179884713" lon="15.815046797587957"><ele>1160.0</ele><time>2026-04-25T12:09:50Z</time></trkpt><trkpt lat="38.171575645537025" lon="15.814894781084773"><ele>1160.0</ele><time>2026-04-25T12:09:51Z</time></trkpt><trkpt lat="38.17153420307823" lon="15.814732902029453"><ele>1157.0</ele><time>2026-04-25T12:09:52Z</time></trkpt><trkpt lat="38.171502632768565" lon="15.814582568919107"><ele>1154.0</ele><time>2026-04-25T12:09:53Z</time></trkpt><trkpt lat="38.1714997693603" lon="15.81445107755608"><ele>1151.0</ele><time>2026-04-25T12:09:54Z</time></trkpt><trkpt lat="38.17151371993937" lon="15.814343488142306"><ele>1148.0</ele><time>2026-04-25T12:09:55Z</time></trkpt><trkpt lat="38.17160661652582" lon="15.814244337278954"><ele>1145.0</ele><time>2026-04-25T12:09:56Z</time></trkpt><trkpt lat="38.171689202679204" lon="15.81414933460405"><ele>1145.0</ele><time>2026-04-25T12:09:57Z</time></trkpt><trkpt lat="38.17180559822367" lon="15.814048246864573"><ele>1145.0</ele><time>2026-04-25T12:09:58Z</time></trkpt><trkpt lat="38.17193605928773" lon="15.813969125541696"><ele>1145.0</ele><time>2026-04-25T12:09:59Z</time></trkpt><trkpt lat="38.17207193558149" lon="15.813923366504469"><ele>1145.0</ele><time>2026-04-25T12:10:00Z</time></trkpt><trkpt lat="38.17219404327987" lon="15.813903118105635"><ele>1145.0</ele><time>2026-04-25T12:10:01Z</time></trkpt><trkpt lat="38.17234445141703" lon="15.813861732599051"><ele>1145.0</ele><time>2026-04-25T12:10:02Z</time></trkpt><trkpt lat="38.17250330632773" lon="15.813787783623837"><ele>1145.0</ele><time>2026-04-25T12:10:03Z</time></trkpt><trkpt lat="38.17267468361133" lon="15.813743556037549"><ele>1145.0</ele><time>2026-04-25T12:10:04Z</time></trkpt><trkpt lat="38.17277975523314" lon="15.813742611971563"><ele>1145.0</ele><time>2026-04-25T12:10:05Z</time></trkpt><trkpt lat="38.172884618891956" lon="15.813699373512291"><ele>1145.0</ele><time>2026-04-25T12:10:06Z</time></trkpt><trkpt lat="38.173030319388936" lon="15.813644328254897"><ele>1145.0</ele><time>2026-04-25T12:10:07Z</time></trkpt><trkpt lat="38.173169925408985" lon="15.813609171399763"><ele>1144.5</ele><time>2026-04-25T12:10:08Z</time></trkpt><trkpt lat="38.173310320537304" lon="15.813559388827114"><ele>1144.0</ele><time>2026-04-25T12:10:09Z</time></trkpt><trkpt lat="38.17343798465504" lon="15.813471655919281"><ele>1143.5</ele><time>2026-04-25T12:10:10Z</time></trkpt><trkpt lat="38.17355283697883" lon="15.813390044238405"><ele>1143.0</ele><time>2026-04-25T12:10:11Z</time></trkpt><trkpt lat="38.17367746851735" lon="15.81329717648584"><ele>1136.3333333333333</ele><time>2026-04-25T12:10:12Z</time></trkpt><trkpt lat="38.17379328663228" lon="15.813169202053894"><ele>1129.6666666666665</ele><time>2026-04-25T12:10:13Z</time></trkpt><trkpt lat="38.17389892666183" lon="15.813010227031635"><ele>1123.0</ele><time>2026-04-25T12:10:14Z</time></trkpt><trkpt lat="38.174018968621844" lon="15.81283326769049"><ele>1121.5</ele><time>2026-04-25T12:10:15Z</time></trkpt><trkpt lat="38.17410935434607" lon="15.812703428763891"><ele>1120.0</ele><time>2026-04-25T12:10:16Z</time></trkpt><trkpt lat="38.17420547142936" lon="15.81256617214063"><ele>1118.5</ele><time>2026-04-25T12:10:17Z</time></trkpt><trkpt lat="38.174300762828594" lon="15.812423339352598"><ele>1117.0</ele><time>2026-04-25T12:10:18Z</time></trkpt><trkpt lat="38.17438763075644" lon="15.812280180222432"><ele>1117.0</ele><time>2026-04-25T12:10:19Z</time></trkpt><trkpt lat="38.174499341869556" lon="15.812178537813379"><ele>1117.0</ele><time>2026-04-25T12:10:20Z</time></trkpt><trkpt lat="38.174597097719506" lon="15.812062063580484"><ele>1117.0</ele><time>2026-04-25T12:10:21Z</time></trkpt><trkpt lat="38.17473644270818" lon="15.811990080853796"><ele>1117.0</ele><time>2026-04-25T12:10:22Z</time></trkpt><trkpt lat="38.17484250754281" lon="15.811938872961125"><ele>1115.0</ele><time>2026-04-25T12:10:23Z</time></trkpt><trkpt lat="38.174972272344625" lon="15.811885962978351"><ele>1113.0</ele><time>2026-04-25T12:10:24Z</time></trkpt><trkpt lat="38.17508777175871" lon="15.81182308916996"><ele>1111.0</ele><time>2026-04-25T12:10:25Z</time></trkpt><trkpt lat="38.17520476711957" lon="15.811791660177583"><ele>1109.0</ele><time>2026-04-25T12:10:26Z</time></trkpt><trkpt lat="38.17529882355764" lon="15.811728890867304"><ele>1109.0</ele><time>2026-04-25T12:10:27Z</time></trkpt><trkpt lat="38.175366709967044" lon="15.811647153579827"><ele>1109.0</ele><time>2026-04-25T12:10:28Z</time></trkpt><trkpt lat="38.17542513129751" lon="15.811511892429456"><ele>1109.0</ele><time>2026-04-25T12:10:29Z</time></trkpt><trkpt lat="38.175434167738416" lon="15.811359295398285"><ele>1109.0</ele><time>2026-04-25T12:10:30Z</time></trkpt><trkpt lat="38.17537167441599" lon="15.81118756187479"><ele>1109.0</ele><time>2026-04-25T12:10:30.999Z</time></trkpt><trkpt lat="38.175328136597045" lon="15.811055089873593"><ele>1109.0</ele><time>2026-04-25T12:10:31.999Z</time></trkpt><trkpt lat="38.17530912122184" lon="15.810926668183138"><ele>1109.0</ele><time>2026-04-25T12:10:32.999Z</time></trkpt><trkpt lat="38.17526498913249" lon="15.810738631880255"><ele>1109.0</ele><time>2026-04-25T12:10:33.999Z</time></trkpt><trkpt lat="38.175242372953235" lon="15.810598737910254"><ele>1106.0</ele><time>2026-04-25T12:10:34.999Z</time></trkpt><trkpt lat="38.17522269951176" lon="15.810380691359269"><ele>1103.0</ele><time>2026-04-25T12:10:35.999Z</time></trkpt><trkpt lat="38.17522344120816" lon="15.810195997585453"><ele>1100.0</ele><time>2026-04-25T12:10:36.999Z</time></trkpt><trkpt lat="38.17521756407511" lon="15.810043917765839"><ele>1097.0</ele><time>2026-04-25T12:10:37.999Z</time></trkpt><trkpt lat="38.17519362182587" lon="15.8098540344952"><ele>1096.75</ele><time>2026-04-25T12:10:38.999Z</time></trkpt><trkpt lat="38.1751260912601" lon="15.809663005853018"><ele>1096.5</ele><time>2026-04-25T12:10:39.999Z</time></trkpt><trkpt lat="38.17506589926098" lon="15.809492677555347"><ele>1096.25</ele><time>2026-04-25T12:10:40.999Z</time></trkpt><trkpt lat="38.175033328817335" lon="15.809342870426079"><ele>1096.0</ele><time>2026-04-25T12:10:42Z</time></trkpt><trkpt lat="38.17502726381677" lon="15.809203584948248"><ele>1096.0</ele><time>2026-04-25T12:10:43Z</time></trkpt><trkpt lat="38.175040857380104" lon="15.809076013538165"><ele>1096.0</ele><time>2026-04-25T12:10:44Z</time></trkpt><trkpt lat="38.175064236200676" lon="15.80891936155802"><ele>1096.0</ele><time>2026-04-25T12:10:45Z</time></trkpt><trkpt lat="38.175092780537014" lon="15.808733989601219"><ele>1096.0</ele><time>2026-04-25T12:10:46Z</time></trkpt><trkpt lat="38.175121198827846" lon="15.808582153266979"><ele>1094.0</ele><time>2026-04-25T12:10:47Z</time></trkpt><trkpt lat="38.175140953035495" lon="15.808355348001337"><ele>1092.0</ele><time>2026-04-25T12:10:48Z</time></trkpt><trkpt lat="38.17517268678699" lon="15.808118486932472"><ele>1090.0</ele><time>2026-04-25T12:10:49Z</time></trkpt><trkpt lat="38.17518879178234" lon="15.807937746580881"><ele>1090.0</ele><time>2026-04-25T12:10:50Z</time></trkpt><trkpt lat="38.175196108437355" lon="15.807762294038907"><ele>1090.0</ele><time>2026-04-25T12:10:51Z</time></trkpt><trkpt lat="38.17517706043985" lon="15.807621440868326"><ele>1090.0</ele><time>2026-04-25T12:10:52Z</time></trkpt><trkpt lat="38.175213703406776" lon="15.80746808137176"><ele>1090.0</ele><time>2026-04-25T12:10:53Z</time></trkpt><trkpt lat="38.17526728501985" lon="15.807281647503427"><ele>1089.0</ele><time>2026-04-25T12:10:54Z</time></trkpt><trkpt lat="38.17530366222278" lon="15.807140594439815"><ele>1088.0</ele><time>2026-04-25T12:10:55Z</time></trkpt><trkpt lat="38.17534810776802" lon="15.806978781607567"><ele>1087.0</ele><time>2026-04-25T12:10:56Z</time></trkpt><trkpt lat="38.175384780954545" lon="15.806810820026215"><ele>1086.0</ele><time>2026-04-25T12:10:57Z</time></trkpt><trkpt lat="38.1754053163262" lon="15.806623468049413"><ele>1084.5</ele><time>2026-04-25T12:10:58Z</time></trkpt><trkpt lat="38.17540222582788" lon="15.80643955429942"><ele>1083.0</ele><time>2026-04-25T12:10:59Z</time></trkpt><trkpt lat="38.17539480233911" lon="15.80627026695318"><ele>1081.5</ele><time>2026-04-25T12:11:00Z</time></trkpt><trkpt lat="38.17539720381815" lon="15.806105816854766"><ele>1080.0</ele><time>2026-04-25T12:11:01Z</time></trkpt><trkpt lat="38.17540005979639" lon="15.805938572611373"><ele>1077.0</ele><time>2026-04-25T12:11:02Z</time></trkpt><trkpt lat="38.175435407351316" lon="15.805787888131487"><ele>1074.0</ele><time>2026-04-25T12:11:03Z</time></trkpt><trkpt lat="38.17547609282849" lon="15.805628037176234"><ele>1071.0</ele><time>2026-04-25T12:11:04Z</time></trkpt><trkpt lat="38.17553657814265" lon="15.805484845429499"><ele>1068.0</ele><time>2026-04-25T12:11:05Z</time></trkpt><trkpt lat="38.17557677023871" lon="15.80534136010775"><ele>1072.6666666666667</ele><time>2026-04-25T12:11:06Z</time></trkpt><trkpt lat="38.17568746398876" lon="15.805189037371145"><ele>1077.3333333333335</ele><time>2026-04-25T12:11:07Z</time></trkpt><trkpt lat="38.175745406706795" lon="15.804961668742514"><ele>1082.0</ele><time>2026-04-25T12:11:08Z</time></trkpt><trkpt lat="38.17581338878175" lon="15.804748893952398"><ele>1082.0</ele><time>2026-04-25T12:11:09Z</time></trkpt><trkpt lat="38.17587155931667" lon="15.804566146312258"><ele>1082.0</ele><time>2026-04-25T12:11:10Z</time></trkpt><trkpt lat="38.17593330927424" lon="15.804372153466597"><ele>1082.0</ele><time>2026-04-25T12:11:11Z</time></trkpt><trkpt lat="38.17599882976485" lon="15.804174048082102"><ele>1075.6666666666667</ele><time>2026-04-25T12:11:12Z</time></trkpt><trkpt lat="38.17607302908581" lon="15.80398458442467"><ele>1069.3333333333333</ele><time>2026-04-25T12:11:13Z</time></trkpt><trkpt lat="38.17614187936209" lon="15.803788716720273"><ele>1063.0</ele><time>2026-04-25T12:11:14Z</time></trkpt><trkpt lat="38.17620241227045" lon="15.80358941707329"><ele>1058.6666666666665</ele><time>2026-04-25T12:11:15Z</time></trkpt><trkpt lat="38.17626372618143" lon="15.803389915244619"><ele>1054.3333333333333</ele><time>2026-04-25T12:11:16Z</time></trkpt><trkpt lat="38.17632774963029" lon="15.803190474526115"><ele>1050.0</ele><time>2026-04-25T12:11:17Z</time></trkpt><trkpt lat="38.17637442105775" lon="15.80301531510725"><ele>1050.0</ele><time>2026-04-25T12:11:18Z</time></trkpt><trkpt lat="38.17637058078747" lon="15.802855863146618"><ele>1050.0</ele><time>2026-04-25T12:11:19Z</time></trkpt><trkpt lat="38.17635978222348" lon="15.802691542420492"><ele>1050.0</ele><time>2026-04-25T12:11:20Z</time></trkpt><trkpt lat="38.17628029459769" lon="15.802549935758181"><ele>1050.0</ele><time>2026-04-25T12:11:21Z</time></trkpt><trkpt lat="38.176182028135266" lon="15.802441895845204"><ele>1049.75</ele><time>2026-04-25T12:11:22Z</time></trkpt><trkpt lat="38.17604294767567" lon="15.802373371480721"><ele>1049.5</ele><time>2026-04-25T12:11:23Z</time></trkpt><trkpt lat="38.175918408802715" lon="15.802295672151837"><ele>1049.25</ele><time>2026-04-25T12:11:24Z</time></trkpt><trkpt lat="38.17582504317582" lon="15.80217771218545"><ele>1049.0</ele><time>2026-04-25T12:11:25Z</time></trkpt><trkpt lat="38.175766010924455" lon="15.802035795451719"><ele>1049.0</ele><time>2026-04-25T12:11:26Z</time></trkpt><trkpt lat="38.17575426878558" lon="15.801843078250892"><ele>1049.0</ele><time>2026-04-25T12:11:27Z</time></trkpt><trkpt lat="38.17574655494621" lon="15.80165190096937"><ele>1049.0</ele><time>2026-04-25T12:11:28Z</time></trkpt><trkpt lat="38.17574317263588" lon="15.80145861781105"><ele>1049.3333333333335</ele><time>2026-04-25T12:11:29Z</time></trkpt><trkpt lat="38.17573629081312" lon="15.801286129154787"><ele>1049.6666666666667</ele><time>2026-04-25T12:11:30Z</time></trkpt><trkpt lat="38.17576176367255" lon="15.801072506104195"><ele>1050.0</ele><time>2026-04-25T12:11:31Z</time></trkpt><trkpt lat="38.17576987778068" lon="15.800873777024357"><ele>1050.0</ele><time>2026-04-25T12:11:32Z</time></trkpt><trkpt lat="38.17577235008891" lon="15.80068821820379"><ele>1050.0</ele><time>2026-04-25T12:11:33Z</time></trkpt><trkpt lat="38.17578540112381" lon="15.800509929030872"><ele>1050.0</ele><time>2026-04-25T12:11:34Z</time></trkpt><trkpt lat="38.1757976257086" lon="15.800320479768475"><ele>1050.0</ele><time>2026-04-25T12:11:35Z</time></trkpt><trkpt lat="38.17579596994523" lon="15.800187484037814"><ele>1050.3333333333333</ele><time>2026-04-25T12:11:36Z</time></trkpt><trkpt lat="38.17578538211853" lon="15.800098070505008"><ele>1050.6666666666667</ele><time>2026-04-25T12:11:37Z</time></trkpt><trkpt lat="38.175735424449286" lon="15.800015254056307"><ele>1051.0</ele><time>2026-04-25T12:11:38Z</time></trkpt><trkpt lat="38.17563697355315" lon="15.799967734536118"><ele>1051.3333333333335</ele><time>2026-04-25T12:11:39Z</time></trkpt><trkpt lat="38.17556122856729" lon="15.799963582896302"><ele>1051.6666666666667</ele><time>2026-04-25T12:11:40Z</time></trkpt><trkpt lat="38.17547293482604" lon="15.800039378180779"><ele>1052.0</ele><time>2026-04-25T12:11:41Z</time></trkpt><trkpt lat="38.17537642116637" lon="15.800261644990472"><ele>1044.75</ele><time>2026-04-25T12:11:42Z</time></trkpt><trkpt lat="38.17531270087316" lon="15.800416046434616"><ele>1037.5</ele><time>2026-04-25T12:11:43Z</time></trkpt><trkpt lat="38.175258973742245" lon="15.800572074797358"><ele>1030.25</ele><time>2026-04-25T12:11:44Z</time></trkpt><trkpt lat="38.175187573901454" lon="15.800689259113074"><ele>1023.0</ele><time>2026-04-25T12:11:45Z</time></trkpt><trkpt lat="38.17515239059513" lon="15.800838463259527"><ele>1023.0</ele><time>2026-04-25T12:11:46Z</time></trkpt><trkpt lat="38.17514483436574" lon="15.80099515457938"><ele>1023.0</ele><time>2026-04-25T12:11:47Z</time></trkpt><trkpt lat="38.17517804478732" lon="15.801175823328396"><ele>1023.0</ele><time>2026-04-25T12:11:48Z</time></trkpt><trkpt lat="38.17520513843148" lon="15.801336535099761"><ele>1023.0</ele><time>2026-04-25T12:11:49Z</time></trkpt><trkpt lat="38.17520907372395" lon="15.801480628818297"><ele>1023.0</ele><time>2026-04-25T12:11:50Z</time></trkpt><trkpt lat="38.175226812663496" lon="15.80165967525695"><ele>1023.0</ele><time>2026-04-25T12:11:51Z</time></trkpt><trkpt lat="38.17523427084379" lon="15.801788644166022"><ele>1023.0</ele><time>2026-04-25T12:11:52Z</time></trkpt><trkpt lat="38.17522091531745" lon="15.80194778123232"><ele>1023.0</ele><time>2026-04-25T12:11:53Z</time></trkpt><trkpt lat="38.17518647906519" lon="15.802068740729757"><ele>1023.0</ele><time>2026-04-25T12:11:54Z</time></trkpt><trkpt lat="38.17513815679872" lon="15.80221002715123"><ele>1023.0</ele><time>2026-04-25T12:11:55Z</time></trkpt><trkpt lat="38.17502279578387" lon="15.802419543412224"><ele>1023.0</ele><time>2026-04-25T12:11:56Z</time></trkpt><trkpt lat="38.17492412015188" lon="15.802548144211485"><ele>1020.5999999999999</ele><time>2026-04-25T12:11:57Z</time></trkpt><trkpt lat="38.174831095647555" lon="15.802691906063089"><ele>1018.1999999999999</ele><time>2026-04-25T12:11:58Z</time></trkpt><trkpt lat="38.17478247782415" lon="15.80278515430226"><ele>1015.8</ele><time>2026-04-25T12:11:59Z</time></trkpt><trkpt lat="38.17472746534202" lon="15.802863626170053"><ele>1013.4</ele><time>2026-04-25T12:12:00Z</time></trkpt><trkpt lat="38.17468711488498" lon="15.802934882173806"><ele>1011.0</ele><time>2026-04-25T12:12:01Z</time></trkpt><trkpt lat="38.174625477105366" lon="15.803006548391274"><ele>1011.0</ele><time>2026-04-25T12:12:02Z</time></trkpt><trkpt lat="38.174547649479294" lon="15.803014800154774"><ele>1010.9999999999999</ele><time>2026-04-25T12:12:03Z</time></trkpt><trkpt lat="38.1744720789656" lon="15.803002246420023"><ele>1010.9999999999999</ele><time>2026-04-25T12:12:04Z</time></trkpt><trkpt lat="38.174374385806196" lon="15.803060259644534"><ele>1011.0</ele><time>2026-04-25T12:12:05Z</time></trkpt><trkpt lat="38.174303773144686" lon="15.80295972287356"><ele>1011.0</ele><time>2026-04-25T12:12:06Z</time></trkpt><trkpt lat="38.174225607459704" lon="15.802833444419662"><ele>1011.0</ele><time>2026-04-25T12:12:07Z</time></trkpt><trkpt lat="38.17419474465998" lon="15.802704701051692"><ele>1010.9999999999999</ele><time>2026-04-25T12:12:08Z</time></trkpt><trkpt lat="38.17420167992844" lon="15.802597493508365"><ele>1010.9999999999999</ele><time>2026-04-25T12:12:09.001Z</time></trkpt><trkpt lat="38.174223499563425" lon="15.80248040309354"><ele>1011.0</ele><time>2026-04-25T12:12:10.001Z</time></trkpt><trkpt lat="38.17430615243289" lon="15.802354276083662"><ele>1011.0</ele><time>2026-04-25T12:12:11.001Z</time></trkpt><trkpt lat="38.17437229056376" lon="15.802205126598189"><ele>1010.25</ele><time>2026-04-25T12:12:12.001Z</time></trkpt><trkpt lat="38.1744386160041" lon="15.80204519543383"><ele>1009.5</ele><time>2026-04-25T12:12:13.001Z</time></trkpt><trkpt lat="38.17449144844867" lon="15.801890964959279"><ele>1008.75</ele><time>2026-04-25T12:12:14.001Z</time></trkpt><trkpt lat="38.17451392175797" lon="15.801721794130087"><ele>1008.0</ele><time>2026-04-25T12:12:15.001Z</time></trkpt><trkpt lat="38.174541258634015" lon="15.801543595623828"><ele>1006.5</ele><time>2026-04-25T12:12:16.001Z</time></trkpt><trkpt lat="38.17454081026291" lon="15.80136747362693"><ele>1005.0</ele><time>2026-04-25T12:12:17.001Z</time></trkpt><trkpt lat="38.1745643906826" lon="15.801188988510717"><ele>1003.5</ele><time>2026-04-25T12:12:18.001Z</time></trkpt><trkpt lat="38.1745748667301" lon="15.801018404402749"><ele>1002.0</ele><time>2026-04-25T12:12:19.001Z</time></trkpt><trkpt lat="38.17459819138373" lon="15.800818931903615"><ele>1000.5</ele><time>2026-04-25T12:12:20.001Z</time></trkpt><trkpt lat="38.17462949549928" lon="15.800623536190486"><ele>999.0</ele><time>2026-04-25T12:12:21.001Z</time></trkpt><trkpt lat="38.17463332075315" lon="15.80041252962039"><ele>997.5</ele><time>2026-04-25T12:12:22.001Z</time></trkpt><trkpt lat="38.17466426378715" lon="15.800266381325283"><ele>996.0</ele><time>2026-04-25T12:12:23.001Z</time></trkpt><trkpt lat="38.174674006304265" lon="15.800064446507498"><ele>994.25</ele><time>2026-04-25T12:12:24.001Z</time></trkpt><trkpt lat="38.174684803773445" lon="15.799863532458891"><ele>992.5</ele><time>2026-04-25T12:12:25.001Z</time></trkpt><trkpt lat="38.174700418131174" lon="15.799729589712856"><ele>990.75</ele><time>2026-04-25T12:12:26.001Z</time></trkpt><trkpt lat="38.17461793687286" lon="15.799589831385372"><ele>989.0</ele><time>2026-04-25T12:12:27.001Z</time></trkpt><trkpt lat="38.174580550096" lon="15.799411640248579"><ele>987.25</ele><time>2026-04-25T12:12:28.001Z</time></trkpt><trkpt lat="38.17455652655734" lon="15.799292960707563"><ele>985.5</ele><time>2026-04-25T12:12:29.001Z</time></trkpt><trkpt lat="38.17452452917118" lon="15.799128502708314"><ele>983.75</ele><time>2026-04-25T12:12:30.001Z</time></trkpt><trkpt lat="38.17449122587647" lon="15.798935191682741"><ele>982.0</ele><time>2026-04-25T12:12:31.001Z</time></trkpt><trkpt lat="38.17449108327815" lon="15.798742033148173"><ele>982.0</ele><time>2026-04-25T12:12:32.001Z</time></trkpt><trkpt lat="38.1744885661709" lon="15.798573384777688"><ele>982.0</ele><time>2026-04-25T12:12:33.001Z</time></trkpt><trkpt lat="38.17452239183014" lon="15.798387862923011"><ele>982.0</ele><time>2026-04-25T12:12:34.001Z</time></trkpt><trkpt lat="38.17451625772123" lon="15.798234030093134"><ele>982.0</ele><time>2026-04-25T12:12:35.001Z</time></trkpt><trkpt lat="38.17452321430357" lon="15.798058384955596"><ele>981.0</ele><time>2026-04-25T12:12:36.001Z</time></trkpt><trkpt lat="38.17454477019324" lon="15.797884631544761"><ele>980.0</ele><time>2026-04-25T12:12:37Z</time></trkpt><trkpt lat="38.17455082953975" lon="15.797742969386253"><ele>979.0</ele><time>2026-04-25T12:12:38Z</time></trkpt><trkpt lat="38.17455009937003" lon="15.797607782443661"><ele>978.0</ele><time>2026-04-25T12:12:39Z</time></trkpt><trkpt lat="38.17454219434522" lon="15.797472991148341"><ele>977.25</ele><time>2026-04-25T12:12:40Z</time></trkpt><trkpt lat="38.174474756089744" lon="15.7972773136564"><ele>976.5</ele><time>2026-04-25T12:12:41Z</time></trkpt><trkpt lat="38.17438082916953" lon="15.797131211501604"><ele>975.75</ele><time>2026-04-25T12:12:42Z</time></trkpt><trkpt lat="38.17429061634992" lon="15.797008037286439"><ele>975.0</ele><time>2026-04-25T12:12:43Z</time></trkpt><trkpt lat="38.174233567041085" lon="15.796845098783715"><ele>974.25</ele><time>2026-04-25T12:12:44Z</time></trkpt><trkpt lat="38.174217873701515" lon="15.796657367649889"><ele>973.5</ele><time>2026-04-25T12:12:45Z</time></trkpt><trkpt lat="38.17420849016283" lon="15.796498149441398"><ele>972.75</ele><time>2026-04-25T12:12:46Z</time></trkpt><trkpt lat="38.17420598381488" lon="15.796348067717533"><ele>972.0</ele><time>2026-04-25T12:12:47Z</time></trkpt><trkpt lat="38.17418108003837" lon="15.796199320633201"><ele>972.0</ele><time>2026-04-25T12:12:48Z</time></trkpt><trkpt lat="38.174201872201806" lon="15.796034662544207"><ele>972.0</ele><time>2026-04-25T12:12:49Z</time></trkpt><trkpt lat="38.17419925837629" lon="15.795877323149602"><ele>972.0</ele><time>2026-04-25T12:12:50Z</time></trkpt><trkpt lat="38.17420323952654" lon="15.795721938250894"><ele>972.0</ele><time>2026-04-25T12:12:51Z</time></trkpt><trkpt lat="38.17420122964362" lon="15.795592775798049"><ele>971.8</ele><time>2026-04-25T12:12:52Z</time></trkpt><trkpt lat="38.17421661885039" lon="15.795433953305416"><ele>971.6</ele><time>2026-04-25T12:12:53Z</time></trkpt><trkpt lat="38.17424158674558" lon="15.795303340508765"><ele>971.3999999999999</ele><time>2026-04-25T12:12:54Z</time></trkpt><trkpt lat="38.174229530199526" lon="15.795159499116897"><ele>971.1999999999999</ele><time>2026-04-25T12:12:56Z</time></trkpt><trkpt lat="38.174167528240396" lon="15.795108560710622"><ele>971.0</ele><time>2026-04-25T12:12:57Z</time></trkpt><trkpt lat="38.174065702457064" lon="15.795139278335512"><ele>963.75</ele><time>2026-04-25T12:12:58Z</time></trkpt><trkpt lat="38.17401398520565" lon="15.795291940542128"><ele>956.5</ele><time>2026-04-25T12:12:59Z</time></trkpt><trkpt lat="38.173962663534375" lon="15.795402603131285"><ele>949.25</ele><time>2026-04-25T12:13:00Z</time></trkpt><trkpt lat="38.17393800948386" lon="15.795538798493755"><ele>942.0</ele><time>2026-04-25T12:13:01Z</time></trkpt><trkpt lat="38.17388082488124" lon="15.795674700023916"><ele>942.0</ele><time>2026-04-25T12:13:02Z</time></trkpt><trkpt lat="38.17383239752571" lon="15.795825713978411"><ele>942.0</ele><time>2026-04-25T12:13:03Z</time></trkpt><trkpt lat="38.17379307242955" lon="15.795965695038166"><ele>942.0</ele><time>2026-04-25T12:13:04Z</time></trkpt><trkpt lat="38.17374308439968" lon="15.79610458030217"><ele>942.0</ele><time>2026-04-25T12:13:05Z</time></trkpt><trkpt lat="38.173700454101095" lon="15.796254724284685"><ele>942.4000000000001</ele><time>2026-04-25T12:13:06Z</time></trkpt><trkpt lat="38.173671878653685" lon="15.796386167562444"><ele>942.8000000000001</ele><time>2026-04-25T12:13:07Z</time></trkpt><trkpt lat="38.17363481778971" lon="15.796526412385491"><ele>943.2</ele><time>2026-04-25T12:13:08Z</time></trkpt><trkpt lat="38.17361237570223" lon="15.796648463593362"><ele>943.6</ele><time>2026-04-25T12:13:09Z</time></trkpt><trkpt lat="38.1735918064077" lon="15.796747057104197"><ele>944.0</ele><time>2026-04-25T12:13:10Z</time></trkpt><trkpt lat="38.17353724658699" lon="15.796877559425202"><ele>945.5</ele><time>2026-04-25T12:13:11Z</time></trkpt><trkpt lat="38.17349279802364" lon="15.796994744266904"><ele>947.0</ele><time>2026-04-25T12:13:12Z</time></trkpt><trkpt lat="38.17342287047788" lon="15.79714914012797"><ele>948.5</ele><time>2026-04-25T12:13:13Z</time></trkpt><trkpt lat="38.173333341793594" lon="15.79726598427393"><ele>950.0</ele><time>2026-04-25T12:13:14Z</time></trkpt><trkpt lat="38.17324577026164" lon="15.797382908205053"><ele>946.6</ele><time>2026-04-25T12:13:15Z</time></trkpt><trkpt lat="38.17317445212816" lon="15.797467310018181"><ele>943.2</ele><time>2026-04-25T12:13:16Z</time></trkpt><trkpt lat="38.17312521180121" lon="15.797558913921367"><ele>939.8</ele><time>2026-04-25T12:13:17Z</time></trkpt><trkpt lat="38.17306797450274" lon="15.797646857241276"><ele>936.4</ele><time>2026-04-25T12:13:18Z</time></trkpt><trkpt lat="38.172984684088306" lon="15.79776543883602"><ele>933.0</ele><time>2026-04-25T12:13:19Z</time></trkpt><trkpt lat="38.1729221316725" lon="15.797852429110996"><ele>933.0</ele><time>2026-04-25T12:13:20Z</time></trkpt><trkpt lat="38.17286791838856" lon="15.797918425060644"><ele>933.0</ele><time>2026-04-25T12:13:21Z</time></trkpt><trkpt lat="38.17276850963199" lon="15.797894720484472"><ele>933.0</ele><time>2026-04-25T12:13:23Z</time></trkpt><trkpt lat="38.1727396316274" lon="15.797818440714298"><ele>933.0</ele><time>2026-04-25T12:13:24Z</time></trkpt><trkpt lat="38.17277227883557" lon="15.797748021633135"><ele>933.0</ele><time>2026-04-25T12:13:25Z</time></trkpt><trkpt lat="38.17281484199453" lon="15.797681934803817"><ele>933.0</ele><time>2026-04-25T12:13:26Z</time></trkpt><trkpt lat="38.172854981212716" lon="15.7975962475714"><ele>931.3333333333334</ele><time>2026-04-25T12:13:27Z</time></trkpt><trkpt lat="38.17291814629599" lon="15.797536919140812"><ele>929.6666666666667</ele><time>2026-04-25T12:13:28Z</time></trkpt><trkpt lat="38.172962333375324" lon="15.797460509402304"><ele>928.0</ele><time>2026-04-25T12:13:29Z</time></trkpt><trkpt lat="38.173008085996344" lon="15.797377854040421"><ele>926.3333333333334</ele><time>2026-04-25T12:13:30Z</time></trkpt><trkpt lat="38.17303786217443" lon="15.79729042433623"><ele>924.6666666666667</ele><time>2026-04-25T12:13:31Z</time></trkpt><trkpt lat="38.1730520480744" lon="15.797166287322515"><ele>923.0</ele><time>2026-04-25T12:13:32Z</time></trkpt><trkpt lat="38.173068012315206" lon="15.797083915500295"><ele>923.0000000000001</ele><time>2026-04-25T12:13:33Z</time></trkpt><trkpt lat="38.17309218412362" lon="15.796990769856409"><ele>923.0</ele><time>2026-04-25T12:13:34Z</time></trkpt><trkpt lat="38.17311079096883" lon="15.796884155493165"><ele>923.0</ele><time>2026-04-25T12:13:36Z</time></trkpt><trkpt lat="38.173155282338314" lon="15.796748170232163"><ele>923.0</ele><time>2026-04-25T12:13:38Z</time></trkpt><trkpt lat="38.17317020959763" lon="15.796656529068862"><ele>923.0000000000001</ele><time>2026-04-25T12:13:40Z</time></trkpt><trkpt lat="38.173159033936315" lon="15.796536738717274"><ele>923.0</ele><time>2026-04-25T12:13:42Z</time></trkpt><trkpt lat="38.17314422285153" lon="15.796405253248578"><ele>921.4</ele><time>2026-04-25T12:13:44Z</time></trkpt><trkpt lat="38.173145035798306" lon="15.796298953208032"><ele>919.8</ele><time>2026-04-25T12:13:47Z</time></trkpt><trkpt lat="38.17316139396502" lon="15.796211640801458"><ele>918.2</ele><time>2026-04-25T12:14:08.001Z</time></trkpt><trkpt lat="38.17308145807048" lon="15.796184846907744"><ele>916.6</ele><time>2026-04-25T12:14:57Z</time></trkpt><trkpt lat="38.172900897845764" lon="15.796260017866736"><ele>915.0</ele><time>2026-04-25T12:15:15Z</time></trkpt><trkpt lat="38.173121777726585" lon="15.796467078171691"><ele>915.0</ele><time>2026-04-25T12:15:16Z</time></trkpt><trkpt lat="38.17312200016168" lon="15.796574588352732"><ele>915.0</ele><time>2026-04-25T12:15:17Z</time></trkpt><trkpt lat="38.173112006684455" lon="15.796692326836352"><ele>915.0</ele><time>2026-04-25T12:15:18Z</time></trkpt><trkpt lat="38.17310170885481" lon="15.79683483731549"><ele>915.0</ele><time>2026-04-25T12:15:19Z</time></trkpt><trkpt lat="38.173062775022224" lon="15.79697962353769"><ele>915.0</ele><time>2026-04-25T12:15:20Z</time></trkpt><trkpt lat="38.17302911892578" lon="15.797167615711828"><ele>917.0</ele><time>2026-04-25T12:15:21Z</time></trkpt><trkpt lat="38.1729612533536" lon="15.797356706176243"><ele>919.0</ele><time>2026-04-25T12:15:22Z</time></trkpt><trkpt lat="38.17299951506065" lon="15.797219207974958"><ele>921.0</ele><time>2026-04-25T12:15:23Z</time></trkpt><trkpt lat="38.1729661210033" lon="15.797405284349038"><ele>923.0</ele><time>2026-04-25T12:15:24Z</time></trkpt><trkpt lat="38.17289831040136" lon="15.797503236691675"><ele>923.0</ele><time>2026-04-25T12:15:25Z</time></trkpt><trkpt lat="38.17282254530786" lon="15.797611434301459"><ele>923.0</ele><time>2026-04-25T12:15:26Z</time></trkpt><trkpt lat="38.172764203641606" lon="15.7977111972563"><ele>923.0</ele><time>2026-04-25T12:15:27Z</time></trkpt><trkpt lat="38.17270526743064" lon="15.797844865386963"><ele>923.0</ele><time>2026-04-25T12:15:29Z</time></trkpt><trkpt lat="38.172725892278116" lon="15.797931969865937"><ele>923.0</ele><time>2026-04-25T12:15:30Z</time></trkpt><trkpt lat="38.172782727700806" lon="15.797993559087478"><ele>923.0</ele><time>2026-04-25T12:15:31Z</time></trkpt><trkpt lat="38.172863779319044" lon="15.798003133632713"><ele>923.0</ele><time>2026-04-25T12:15:32Z</time></trkpt><trkpt lat="38.17293552684105" lon="15.797955780270852"><ele>923.0</ele><time>2026-04-25T12:15:33Z</time></trkpt><trkpt lat="38.17300521525945" lon="15.797935913266901"><ele>923.0</ele><time>2026-04-25T12:15:34Z</time></trkpt><trkpt lat="38.17306629354493" lon="15.797763589495528"><ele>923.0</ele><time>2026-04-25T12:15:35Z</time></trkpt><trkpt lat="38.17313602613638" lon="15.797646754262956"><ele>929.75</ele><time>2026-04-25T12:15:36Z</time></trkpt><trkpt lat="38.173202653501036" lon="15.797528206703587"><ele>936.5</ele><time>2026-04-25T12:15:37Z</time></trkpt><trkpt lat="38.173281774764305" lon="15.79741222054636"><ele>943.25</ele><time>2026-04-25T12:15:38Z</time></trkpt><trkpt lat="38.17335994331663" lon="15.797289646576143"><ele>950.0</ele><time>2026-04-25T12:15:39Z</time></trkpt><trkpt lat="38.17343598412576" lon="15.79716504037804"><ele>950.0</ele><time>2026-04-25T12:15:40Z</time></trkpt><trkpt lat="38.1735067454727" lon="15.79706023413265"><ele>950.0</ele><time>2026-04-25T12:15:41Z</time></trkpt><trkpt lat="38.17356424304849" lon="15.796924957599318"><ele>950.0</ele><time>2026-04-25T12:15:42Z</time></trkpt><trkpt lat="38.173618422041066" lon="15.796782248514509"><ele>950.0</ele><time>2026-04-25T12:15:43Z</time></trkpt><trkpt lat="38.1736562407382" lon="15.796622843646485"><ele>948.5</ele><time>2026-04-25T12:15:44Z</time></trkpt><trkpt lat="38.17368215596969" lon="15.796468490609733"><ele>947.0</ele><time>2026-04-25T12:15:45Z</time></trkpt><trkpt lat="38.173723782528846" lon="15.796303900396442"><ele>945.5</ele><time>2026-04-25T12:15:46Z</time></trkpt><trkpt lat="38.173785973980785" lon="15.796091761904929"><ele>944.0</ele><time>2026-04-25T12:15:47Z</time></trkpt><trkpt lat="38.17383402996981" lon="15.795940721886106"><ele>943.5</ele><time>2026-04-25T12:15:48Z</time></trkpt><trkpt lat="38.173888910636336" lon="15.795780026692013"><ele>943.0</ele><time>2026-04-25T12:15:49Z</time></trkpt><trkpt lat="38.173945851813784" lon="15.795612021552373"><ele>942.5</ele><time>2026-04-25T12:15:50Z</time></trkpt><trkpt lat="38.17402443825876" lon="15.795457285476555"><ele>942.0</ele><time>2026-04-25T12:15:51Z</time></trkpt><trkpt lat="38.17404818064992" lon="15.795328760444457"><ele>946.5</ele><time>2026-04-25T12:15:52Z</time></trkpt><trkpt lat="38.17407852705122" lon="15.795236435044096"><ele>951.0</ele><time>2026-04-25T12:15:53Z</time></trkpt><trkpt lat="38.17413378620106" lon="15.795178147028832"><ele>955.5</ele><time>2026-04-25T12:15:54Z</time></trkpt><trkpt lat="38.174200506509685" lon="15.795157885572864"><ele>960.0</ele><time>2026-04-25T12:15:55.001Z</time></trkpt><trkpt lat="38.17424171714436" lon="15.79528141724582"><ele>964.5</ele><time>2026-04-25T12:15:57.001Z</time></trkpt><trkpt lat="38.17419935545902" lon="15.795397439454685"><ele>969.0</ele><time>2026-04-25T12:15:58.001Z</time></trkpt><trkpt lat="38.17417138209546" lon="15.795518013241114"><ele>969.4000000000001</ele><time>2026-04-25T12:15:59.001Z</time></trkpt><trkpt lat="38.174164390123444" lon="15.79565504758199"><ele>969.8000000000001</ele><time>2026-04-25T12:16:00.001Z</time></trkpt><trkpt lat="38.17413019288642" lon="15.795792889327524"><ele>970.1999999999999</ele><time>2026-04-25T12:16:01.001Z</time></trkpt><trkpt lat="38.174106474724056" lon="15.795916174398412"><ele>970.5999999999999</ele><time>2026-04-25T12:16:02.001Z</time></trkpt><trkpt lat="38.17412345661952" lon="15.79602473237647"><ele>971.0</ele><time>2026-04-25T12:16:03.001Z</time></trkpt><trkpt lat="38.17412496870533" lon="15.796249764617224"><ele>971.25</ele><time>2026-04-25T12:16:04.001Z</time></trkpt><trkpt lat="38.17413339386268" lon="15.79643682792776"><ele>971.5</ele><time>2026-04-25T12:16:05.001Z</time></trkpt><trkpt lat="38.17413515081728" lon="15.796605929170777"><ele>971.75</ele><time>2026-04-25T12:16:06.001Z</time></trkpt><trkpt lat="38.17412557636681" lon="15.796747394842983"><ele>972.0</ele><time>2026-04-25T12:16:07.001Z</time></trkpt><trkpt lat="38.174143213310124" lon="15.79688592878673"><ele>972.75</ele><time>2026-04-25T12:16:08.001Z</time></trkpt><trkpt lat="38.174204473051915" lon="15.797031078669537"><ele>973.5</ele><time>2026-04-25T12:16:09.001Z</time></trkpt><trkpt lat="38.1742984678203" lon="15.797160433763867"><ele>974.25</ele><time>2026-04-25T12:16:10.001Z</time></trkpt><trkpt lat="38.17441662742894" lon="15.797263235090949"><ele>975.0</ele><time>2026-04-25T12:16:11.001Z</time></trkpt><trkpt lat="38.17446734127986" lon="15.797334964165003"><ele>975.0</ele><time>2026-04-25T12:16:12.001Z</time></trkpt><trkpt lat="38.17449714310615" lon="15.797425577917135"><ele>975.0</ele><time>2026-04-25T12:16:13.001Z</time></trkpt><trkpt lat="38.174531432581105" lon="15.797670096797708"><ele>975.0</ele><time>2026-04-25T12:16:14.001Z</time></trkpt><trkpt lat="38.17452048547425" lon="15.79784354647023"><ele>975.0</ele><time>2026-04-25T12:16:15.001Z</time></trkpt><trkpt lat="38.174506117000035" lon="15.798022020235997"><ele>975.75</ele><time>2026-04-25T12:16:16.001Z</time></trkpt><trkpt lat="38.17449333261885" lon="15.79820414902589"><ele>976.5</ele><time>2026-04-25T12:16:17.001Z</time></trkpt><trkpt lat="38.17447550176808" lon="15.798407366496841"><ele>977.25</ele><time>2026-04-25T12:16:18.001Z</time></trkpt><trkpt lat="38.17444516941411" lon="15.79858717531838"><ele>978.0</ele><time>2026-04-25T12:16:19.001Z</time></trkpt><trkpt lat="38.17442141806872" lon="15.798758860781048"><ele>979.3333333333333</ele><time>2026-04-25T12:16:20.001Z</time></trkpt><trkpt lat="38.17435709951943" lon="15.798936747199784"><ele>980.6666666666666</ele><time>2026-04-25T12:16:21.001Z</time></trkpt><trkpt lat="38.17446283858193" lon="15.799130101405458"><ele>982.0</ele><time>2026-04-25T12:16:22.001Z</time></trkpt><trkpt lat="38.1745041584113" lon="15.799326746528584"><ele>983.75</ele><time>2026-04-25T12:16:23.001Z</time></trkpt><trkpt lat="38.17455344342567" lon="15.7995148857467"><ele>985.5</ele><time>2026-04-25T12:16:24.001Z</time></trkpt><trkpt lat="38.17459769141872" lon="15.799657101926252"><ele>987.25</ele><time>2026-04-25T12:16:25.001Z</time></trkpt><trkpt lat="38.17463406770538" lon="15.799825188505437"><ele>989.0</ele><time>2026-04-25T12:16:26.001Z</time></trkpt><trkpt lat="38.17466376153076" lon="15.799969201650216"><ele>989.0</ele><time>2026-04-25T12:16:27.001Z</time></trkpt><trkpt lat="38.17464983584406" lon="15.800093481011052"><ele>989.0</ele><time>2026-04-25T12:16:28.001Z</time></trkpt><trkpt lat="38.17461330253749" lon="15.800206433307963"><ele>989.0</ele><time>2026-04-25T12:16:29.001Z</time></trkpt><trkpt lat="38.17458753157308" lon="15.800378575338517"><ele>989.0</ele><time>2026-04-25T12:16:30.001Z</time></trkpt><trkpt lat="38.174579197324796" lon="15.800589440155447"><ele>990.75</ele><time>2026-04-25T12:16:31.001Z</time></trkpt><trkpt lat="38.17458094048597" lon="15.800776971721707"><ele>992.5</ele><time>2026-04-25T12:16:32.001Z</time></trkpt><trkpt lat="38.174559066445845" lon="15.80093806403843"><ele>994.25</ele><time>2026-04-25T12:16:33.001Z</time></trkpt><trkpt lat="38.174522166890235" lon="15.801090330427925"><ele>996.0</ele><time>2026-04-25T12:16:34.001Z</time></trkpt><trkpt lat="38.174482603522456" lon="15.801259355865248"><ele>997.5</ele><time>2026-04-25T12:16:35.001Z</time></trkpt><trkpt lat="38.17449076979372" lon="15.80144419561266"><ele>999.0</ele><time>2026-04-25T12:16:36.001Z</time></trkpt><trkpt lat="38.17447150281033" lon="15.801616253839315"><ele>1000.5</ele><time>2026-04-25T12:16:37.001Z</time></trkpt><trkpt lat="38.17443587798244" lon="15.801810191158108"><ele>1002.0</ele><time>2026-04-25T12:16:38.001Z</time></trkpt><trkpt lat="38.174390545028594" lon="15.801949812970825"><ele>1003.5</ele><time>2026-04-25T12:16:39.001Z</time></trkpt><trkpt lat="38.174335100991016" lon="15.80212403562721"><ele>1005.0</ele><time>2026-04-25T12:16:40.001Z</time></trkpt><trkpt lat="38.174264956371346" lon="15.802280648664244"><ele>1006.5</ele><time>2026-04-25T12:16:41.001Z</time></trkpt><trkpt lat="38.174207509937865" lon="15.802423106947188"><ele>1008.0</ele><time>2026-04-25T12:16:42.001Z</time></trkpt><trkpt lat="38.17416511214169" lon="15.80254215188487"><ele>1008.5999999999999</ele><time>2026-04-25T12:16:43.001Z</time></trkpt><trkpt lat="38.17414129755323" lon="15.80266735473708"><ele>1009.1999999999999</ele><time>2026-04-25T12:16:44.001Z</time></trkpt><trkpt lat="38.17415506949342" lon="15.802800192068583"><ele>1009.8</ele><time>2026-04-25T12:16:45.001Z</time></trkpt><trkpt lat="38.17420938184946" lon="15.802936232988445"><ele>1010.4</ele><time>2026-04-25T12:16:46.001Z</time></trkpt><trkpt lat="38.17428766588824" lon="15.803048306414091"><ele>1011.0</ele><time>2026-04-25T12:16:47.001Z</time></trkpt><trkpt lat="38.17439485286704" lon="15.80312204716174"><ele>1011.0</ele><time>2026-04-25T12:16:48.001Z</time></trkpt><trkpt lat="38.17451001526268" lon="15.803146361099571"><ele>1011.0</ele><time>2026-04-25T12:16:48.999Z</time></trkpt><trkpt lat="38.1746252533635" lon="15.803105004398377"><ele>1011.0</ele><time>2026-04-25T12:16:49.999Z</time></trkpt><trkpt lat="38.17472433111369" lon="15.803018295762804"><ele>1011.0</ele><time>2026-04-25T12:16:50.999Z</time></trkpt><trkpt lat="38.17481292360825" lon="15.80289842915414"><ele>1014.0</ele><time>2026-04-25T12:16:51.999Z</time></trkpt><trkpt lat="38.1748889261117" lon="15.802761806330558"><ele>1017.0</ele><time>2026-04-25T12:16:52.999Z</time></trkpt><trkpt lat="38.17496293450214" lon="15.802628542878576"><ele>1020.0</ele><time>2026-04-25T12:16:53.999Z</time></trkpt><trkpt lat="38.17504049873326" lon="15.802496896231666"><ele>1023.0</ele><time>2026-04-25T12:16:54.999Z</time></trkpt><trkpt lat="38.175129293739396" lon="15.802357978998728"><ele>1023.0</ele><time>2026-04-25T12:16:55.999Z</time></trkpt><trkpt lat="38.17517822365326" lon="15.802220761475775"><ele>1023.0</ele><time>2026-04-25T12:16:57Z</time></trkpt><trkpt lat="38.17521354819596" lon="15.802063087015055"><ele>1023.0</ele><time>2026-04-25T12:16:58Z</time></trkpt><trkpt lat="38.17523757804674" lon="15.801927285675623"><ele>1023.0</ele><time>2026-04-25T12:16:59Z</time></trkpt><trkpt lat="38.17524793586827" lon="15.801784257483588"><ele>1023.0</ele><time>2026-04-25T12:17:00Z</time></trkpt><trkpt lat="38.175258412868985" lon="15.801647861745757"><ele>1023.0</ele><time>2026-04-25T12:17:01Z</time></trkpt><trkpt lat="38.1752436027922" lon="15.801470138666803"><ele>1023.0</ele><time>2026-04-25T12:17:02Z</time></trkpt><trkpt lat="38.17522624246646" lon="15.80132649659012"><ele>1023.0</ele><time>2026-04-25T12:17:03Z</time></trkpt><trkpt lat="38.175207659728315" lon="15.801172739915646"><ele>1023.0</ele><time>2026-04-25T12:17:04Z</time></trkpt><trkpt lat="38.175189758590626" lon="15.8010193788248"><ele>1023.0</ele><time>2026-04-25T12:17:05Z</time></trkpt><trkpt lat="38.175180903409256" lon="15.800897825681787"><ele>1023.0</ele><time>2026-04-25T12:17:06Z</time></trkpt><trkpt lat="38.1751966407111" lon="15.800788832295673"><ele>1023.0</ele><time>2026-04-25T12:17:07Z</time></trkpt><trkpt lat="38.175233011155335" lon="15.800670918015085"><ele>1023.0</ele><time>2026-04-25T12:17:08Z</time></trkpt><trkpt lat="38.175314224410926" lon="15.800506409008388"><ele>1023.0</ele><time>2026-04-25T12:17:09Z</time></trkpt><trkpt lat="38.17537835004496" lon="15.800337386249083"><ele>1023.0</ele><time>2026-04-25T12:17:10Z</time></trkpt><trkpt lat="38.17544561211481" lon="15.800183786283778"><ele>1023.0</ele><time>2026-04-25T12:17:11Z</time></trkpt><trkpt lat="38.17549181359121" lon="15.800102918915435"><ele>1023.0</ele><time>2026-04-25T12:17:12Z</time></trkpt><trkpt lat="38.17555904513884" lon="15.8000497063403"><ele>1023.0</ele><time>2026-04-25T12:17:13Z</time></trkpt><trkpt lat="38.17562529168169" lon="15.800035333248006"><ele>1028.4</ele><time>2026-04-25T12:17:14Z</time></trkpt><trkpt lat="38.17569738139747" lon="15.800078087528435"><ele>1033.8</ele><time>2026-04-25T12:17:15Z</time></trkpt><trkpt lat="38.17572021877149" lon="15.80020135432948"><ele>1039.2</ele><time>2026-04-25T12:17:16Z</time></trkpt><trkpt lat="38.17572153602281" lon="15.800313081986094"><ele>1044.6</ele><time>2026-04-25T12:17:17Z</time></trkpt><trkpt lat="38.175717668818365" lon="15.800450976814927"><ele>1050.0</ele><time>2026-04-25T12:17:18Z</time></trkpt><trkpt lat="38.175717047596876" lon="15.800602475674056"><ele>1050.0</ele><time>2026-04-25T12:17:19Z</time></trkpt><trkpt lat="38.175697317409174" lon="15.800769186368507"><ele>1050.0</ele><time>2026-04-25T12:17:20Z</time></trkpt><trkpt lat="38.17569134048972" lon="15.800943346609156"><ele>1050.0</ele><time>2026-04-25T12:17:21Z</time></trkpt><trkpt lat="38.17565982117832" lon="15.801082462517055"><ele>1050.0</ele><time>2026-04-25T12:17:22Z</time></trkpt><trkpt lat="38.1756586811753" lon="15.801268252169507"><ele>1049.75</ele><time>2026-04-25T12:17:23Z</time></trkpt><trkpt lat="38.17567076138873" lon="15.801443076908608"><ele>1049.5</ele><time>2026-04-25T12:17:24Z</time></trkpt><trkpt lat="38.17566189990529" lon="15.801596915774963"><ele>1049.25</ele><time>2026-04-25T12:17:25Z</time></trkpt><trkpt lat="38.17565971285594" lon="15.801746383675985"><ele>1049.0</ele><time>2026-04-25T12:17:26Z</time></trkpt><trkpt lat="38.17569650521645" lon="15.80191937179347"><ele>1049.0</ele><time>2026-04-25T12:17:27Z</time></trkpt><trkpt lat="38.175723033744106" lon="15.802052483010067"><ele>1049.0</ele><time>2026-04-25T12:17:28Z</time></trkpt><trkpt lat="38.17575239265094" lon="15.802176297187863"><ele>1049.0</ele><time>2026-04-25T12:17:29Z</time></trkpt><trkpt lat="38.17582911113952" lon="15.802310110863045"><ele>1049.0</ele><time>2026-04-25T12:17:30Z</time></trkpt><trkpt lat="38.17593514715662" lon="15.802413989906672"><ele>1049.0</ele><time>2026-04-25T12:17:31Z</time></trkpt><trkpt lat="38.176051536720095" lon="15.802485965456048"><ele>1049.0</ele><time>2026-04-25T12:17:32Z</time></trkpt><trkpt lat="38.17615506360803" lon="15.802568464189044"><ele>1049.0</ele><time>2026-04-25T12:17:33Z</time></trkpt><trkpt lat="38.1762257409696" lon="15.802657884365656"><ele>1049.0</ele><time>2026-04-25T12:17:34Z</time></trkpt><trkpt lat="38.17626163237729" lon="15.80272463214588"><ele>1049.0</ele><time>2026-04-25T12:17:35Z</time></trkpt><trkpt lat="38.17627077034214" lon="15.80282352179984"><ele>1049.2</ele><time>2026-04-25T12:17:36Z</time></trkpt><trkpt lat="38.176273396366106" lon="15.802923373686413"><ele>1049.4</ele><time>2026-04-25T12:17:37Z</time></trkpt><trkpt lat="38.17626374895209" lon="15.803041953543222"><ele>1049.6</ele><time>2026-04-25T12:17:38Z</time></trkpt><trkpt lat="38.1762320754551" lon="15.803160826734315"><ele>1049.8</ele><time>2026-04-25T12:17:39Z</time></trkpt><trkpt lat="38.17620259318793" lon="15.803268000413624"><ele>1050.0</ele><time>2026-04-25T12:17:40Z</time></trkpt><trkpt lat="38.17615732824217" lon="15.803390461965579"><ele>1050.0</ele><time>2026-04-25T12:17:41Z</time></trkpt><trkpt lat="38.17611081022266" lon="15.803476270814814"><ele>1050.0</ele><time>2026-04-25T12:17:42Z</time></trkpt><trkpt lat="38.176081669085164" lon="15.803564897673247"><ele>1050.0</ele><time>2026-04-25T12:17:43Z</time></trkpt><trkpt lat="38.17605572999158" lon="15.803658580480175"><ele>1050.0</ele><time>2026-04-25T12:17:44Z</time></trkpt><trkpt lat="38.17603766178461" lon="15.803747274882374"><ele>1050.0</ele><time>2026-04-25T12:17:45Z</time></trkpt><trkpt lat="38.17601376790299" lon="15.80383909949898"><ele>1050.0</ele><time>2026-04-25T12:17:47Z</time></trkpt><trkpt lat="38.1761415327003" lon="15.803802012545114"><ele>1050.0</ele><time>2026-04-25T12:17:52Z</time></trkpt><trkpt lat="38.17620761784321" lon="15.803681984770002"><ele>1050.0</ele><time>2026-04-25T12:17:54Z</time></trkpt><trkpt lat="38.17626713507633" lon="15.803549165023334"><ele>1050.0</ele><time>2026-04-25T12:17:56Z</time></trkpt><trkpt lat="38.17632041284751" lon="15.803444795145392"><ele>1050.0</ele><time>2026-04-25T12:17:58Z</time></trkpt><trkpt lat="38.176394786614345" lon="15.803314417456846"><ele>1050.0</ele><time>2026-04-25T12:18:00Z</time></trkpt><trkpt lat="38.17643515435823" lon="15.803251662850304"><ele>1050.0</ele><time>2026-04-25T12:18:01Z</time></trkpt><trkpt lat="38.176487830624666" lon="15.803144868644821"><ele>1050.0</ele><time>2026-04-25T12:18:03Z</time></trkpt><trkpt lat="38.176529995154276" lon="15.8030574582444"><ele>1050.0</ele><time>2026-04-25T12:18:05Z</time></trkpt><trkpt lat="38.17660225336787" lon="15.802932323787482"><ele>1050.0</ele><time>2026-04-25T12:18:07Z</time></trkpt><trkpt lat="38.17668377924378" lon="15.802818755423308"><ele>1055.75</ele><time>2026-04-25T12:18:09Z</time></trkpt><trkpt lat="38.17677916732101" lon="15.802745107749757"><ele>1061.5</ele><time>2026-04-25T12:18:10Z</time></trkpt><trkpt lat="38.17688359464902" lon="15.80264817331795"><ele>1067.25</ele><time>2026-04-25T12:18:11Z</time></trkpt><trkpt lat="38.17701594374406" lon="15.802536298714399"><ele>1073.0</ele><time>2026-04-25T12:18:12Z</time></trkpt><trkpt lat="38.176882351348354" lon="15.802630126494916"><ele>1073.0</ele><time>2026-04-25T12:18:13.001Z</time></trkpt><trkpt lat="38.176949856578595" lon="15.802580592613227"><ele>1073.0</ele><time>2026-04-25T12:18:14.001Z</time></trkpt><trkpt lat="38.17701641744429" lon="15.802537352589622"><ele>1073.0</ele><time>2026-04-25T12:18:15.001Z</time></trkpt><trkpt lat="38.17706779237817" lon="15.802475777608045"><ele>1073.0</ele><time>2026-04-25T12:18:16.001Z</time></trkpt><trkpt lat="38.177107781253405" lon="15.802400891586302"><ele>1073.0</ele><time>2026-04-25T12:18:17.001Z</time></trkpt><trkpt lat="38.177163958857825" lon="15.80233428424487"><ele>1073.0</ele><time>2026-04-25T12:18:18.001Z</time></trkpt><trkpt lat="38.17723390709251" lon="15.802278061504634"><ele>1073.0</ele><time>2026-04-25T12:18:19.001Z</time></trkpt><trkpt lat="38.177303062687706" lon="15.802227787742869"><ele>1073.0</ele><time>2026-04-25T12:18:20.001Z</time></trkpt><trkpt lat="38.17738037533945" lon="15.80218415419804"><ele>1073.0</ele><time>2026-04-25T12:18:21.001Z</time></trkpt><trkpt lat="38.17745959558034" lon="15.802159249461509"><ele>1073.0</ele><time>2026-04-25T12:18:22.001Z</time></trkpt><trkpt lat="38.17756655130303" lon="15.802117757140568"><ele>1073.0</ele><time>2026-04-25T12:18:23.001Z</time></trkpt><trkpt lat="38.17763615809503" lon="15.802086797576399"><ele>1073.0</ele><time>2026-04-25T12:18:24.001Z</time></trkpt><trkpt lat="38.17772461042959" lon="15.802049629287335"><ele>1075.0</ele><time>2026-04-25T12:18:25.001Z</time></trkpt><trkpt lat="38.177797577250395" lon="15.802017050658058"><ele>1077.0</ele><time>2026-04-25T12:18:26.001Z</time></trkpt><trkpt lat="38.17786493783213" lon="15.801985600373134"><ele>1079.0</ele><time>2026-04-25T12:18:27.001Z</time></trkpt><trkpt lat="38.17795470573852" lon="15.801940936333882"><ele>1081.0</ele><time>2026-04-25T12:18:28.001Z</time></trkpt><trkpt lat="38.178039252904625" lon="15.801896914120164"><ele>1083.0</ele><time>2026-04-25T12:18:29.001Z</time></trkpt><trkpt lat="38.17813365529848" lon="15.801825242372589"><ele>1085.0</ele><time>2026-04-25T12:18:31.001Z</time></trkpt><trkpt lat="38.178230125681644" lon="15.801748166870672"><ele>1089.0</ele><time>2026-04-25T12:18:33.001Z</time></trkpt><trkpt lat="38.178321397116264" lon="15.801672760521752"><ele>1093.0</ele><time>2026-04-25T12:18:35.001Z</time></trkpt><trkpt lat="38.178406031444325" lon="15.801602837592236"><ele>1097.0</ele><time>2026-04-25T12:18:37.001Z</time></trkpt><trkpt lat="38.17837532540062" lon="15.80141886696589"><ele>1101.0</ele><time>2026-04-25T12:18:38.001Z</time></trkpt><trkpt lat="38.17845529293732" lon="15.80136643766059"><ele>1105.0</ele><time>2026-04-25T12:18:40.001Z</time></trkpt><trkpt lat="38.178503450142095" lon="15.801295603285872"><ele>1105.0</ele><time>2026-04-25T12:18:41.001Z</time></trkpt><trkpt lat="38.178561628776414" lon="15.80124949972918"><ele>1105.0</ele><time>2026-04-25T12:18:42.001Z</time></trkpt><trkpt lat="38.178589938747116" lon="15.80116012493943"><ele>1105.0</ele><time>2026-04-25T12:18:46.001Z</time></trkpt><trkpt lat="38.178574766797574" lon="15.801033509179732"><ele>1105.0</ele><time>2026-04-25T12:18:50.001Z</time></trkpt><trkpt lat="38.178575556196314" lon="15.800912543820269"><ele>1105.0</ele><time>2026-04-25T12:18:52.001Z</time></trkpt><trkpt lat="38.17853346629004" lon="15.800815847475926"><ele>1105.0</ele><time>2026-04-25T12:18:53.001Z</time></trkpt><trkpt lat="38.17852199620363" lon="15.800714436351939"><ele>1105.0</ele><time>2026-04-25T12:18:55Z</time></trkpt><trkpt lat="38.178528355258855" lon="15.80063019163983"><ele>1105.0</ele><time>2026-04-25T12:18:56Z</time></trkpt><trkpt lat="38.17851168304193" lon="15.800542602617154"><ele>1105.0</ele><time>2026-04-25T12:18:58Z</time></trkpt><trkpt lat="38.17848857847285" lon="15.800412787971027"><ele>1105.0</ele><time>2026-04-25T12:18:59Z</time></trkpt><trkpt lat="38.17842778893228" lon="15.800315118188358"><ele>1105.0</ele><time>2026-04-25T12:19:00Z</time></trkpt><trkpt lat="38.17837912123843" lon="15.8001986103863"><ele>1105.0</ele><time>2026-04-25T12:19:01Z</time></trkpt><trkpt lat="38.17835193853372" lon="15.80012303406769"><ele>1105.0</ele><time>2026-04-25T12:19:02Z</time></trkpt><trkpt lat="38.178301380188024" lon="15.800008781882745"><ele>1105.0</ele><time>2026-04-25T12:19:03Z</time></trkpt><trkpt lat="38.17823470776198" lon="15.799911040786993"><ele>1105.0</ele><time>2026-04-25T12:19:04Z</time></trkpt><trkpt lat="38.17822570797948" lon="15.799802346108805"><ele>1105.0</ele><time>2026-04-25T12:19:05Z</time></trkpt><trkpt lat="38.17818734263665" lon="15.799706107499427"><ele>1105.0</ele><time>2026-04-25T12:19:06Z</time></trkpt><trkpt lat="38.178128641851245" lon="15.799538149231923"><ele>1103.2</ele><time>2026-04-25T12:19:08Z</time></trkpt><trkpt lat="38.17813082219426" lon="15.79939406250674"><ele>1101.4</ele><time>2026-04-25T12:19:09Z</time></trkpt><trkpt lat="38.17811037592421" lon="15.7992653472518"><ele>1099.6</ele><time>2026-04-25T12:19:10Z</time></trkpt><trkpt lat="38.178078183360725" lon="15.799157575502392"><ele>1097.8</ele><time>2026-04-25T12:19:11Z</time></trkpt><trkpt lat="38.17806240264328" lon="15.799005977233113"><ele>1096.0</ele><time>2026-04-25T12:19:13Z</time></trkpt><trkpt lat="38.17803867197741" lon="15.798871612409314"><ele>1096.0</ele><time>2026-04-25T12:19:14Z</time></trkpt><trkpt lat="38.17800914140765" lon="15.798760091659048"><ele>1096.0</ele><time>2026-04-25T12:19:15Z</time></trkpt><trkpt lat="38.177973900632274" lon="15.798643135882724"><ele>1096.0</ele><time>2026-04-25T12:19:16Z</time></trkpt><trkpt lat="38.17793018898933" lon="15.798581441789604"><ele>1096.0</ele><time>2026-04-25T12:19:17Z</time></trkpt><trkpt lat="38.177891613296204" lon="15.798480443469149"><ele>1096.0</ele><time>2026-04-25T12:19:18Z</time></trkpt><trkpt lat="38.177931451249194" lon="15.798327325205642"><ele>1095.5</ele><time>2026-04-25T12:19:20Z</time></trkpt><trkpt lat="38.177939410260336" lon="15.798231993256023"><ele>1095.0</ele><time>2026-04-25T12:19:21Z</time></trkpt><trkpt lat="38.17794627309862" lon="15.798108492028106"><ele>1094.5</ele><time>2026-04-25T12:19:22Z</time></trkpt><trkpt lat="38.17793658581649" lon="15.79802498151113"><ele>1094.0</ele><time>2026-04-25T12:19:23Z</time></trkpt><trkpt lat="38.177905629205576" lon="15.797947745509639"><ele>1093.5</ele><time>2026-04-25T12:19:24Z</time></trkpt><trkpt lat="38.17788659332775" lon="15.797801340124927"><ele>1093.0</ele><time>2026-04-25T12:19:26Z</time></trkpt><trkpt lat="38.17785559607191" lon="15.79771689908043"><ele>1092.3333333333333</ele><time>2026-04-25T12:19:27Z</time></trkpt><trkpt lat="38.17782516667606" lon="15.7976267297476"><ele>1091.6666666666665</ele><time>2026-04-25T12:19:28Z</time></trkpt><trkpt lat="38.17780420433465" lon="15.797532591432985"><ele>1091.0</ele><time>2026-04-25T12:19:29Z</time></trkpt><trkpt lat="38.17782595058849" lon="15.79738872787063"><ele>1090.3333333333333</ele><time>2026-04-25T12:19:30Z</time></trkpt><trkpt lat="38.177830345468124" lon="15.797294790933538"><ele>1089.6666666666667</ele><time>2026-04-25T12:19:31Z</time></trkpt><trkpt lat="38.1778180942408" lon="15.797193149494529"><ele>1089.0</ele><time>2026-04-25T12:19:33Z</time></trkpt><trkpt lat="38.17785274162504" lon="15.79710919536593"><ele>1089.0</ele><time>2026-04-25T12:19:34Z</time></trkpt><trkpt lat="38.17788331931204" lon="15.797023466280645"><ele>1089.0</ele><time>2026-04-25T12:19:35Z</time></trkpt><trkpt lat="38.17789243830244" lon="15.796942147090604"><ele>1089.0</ele><time>2026-04-25T12:19:36Z</time></trkpt><trkpt lat="38.17790310784231" lon="15.796759775545722"><ele>1089.0</ele><time>2026-04-25T12:19:38Z</time></trkpt><trkpt lat="38.17790292302603" lon="15.796637825770047"><ele>1089.0</ele><time>2026-04-25T12:19:40Z</time></trkpt><trkpt lat="38.17795529066778" lon="15.796565820555626"><ele>1089.1666666666667</ele><time>2026-04-25T12:19:41Z</time></trkpt><trkpt lat="38.17799400730328" lon="15.796480447227013"><ele>1089.3333333333333</ele><time>2026-04-25T12:19:42Z</time></trkpt><trkpt lat="38.178013883417854" lon="15.79637653126506"><ele>1089.5</ele><time>2026-04-25T12:19:43Z</time></trkpt><trkpt lat="38.17803240927432" lon="15.796293510561522"><ele>1089.6666666666665</ele><time>2026-04-25T12:19:44Z</time></trkpt><trkpt lat="38.17806062142945" lon="15.796168969063853"><ele>1089.8333333333333</ele><time>2026-04-25T12:19:45Z</time></trkpt><trkpt lat="38.178152419293916" lon="15.796098051327998"><ele>1090.0</ele><time>2026-04-25T12:19:46Z</time></trkpt><trkpt lat="38.178203320404464" lon="15.796037720778703"><ele>1088.6</ele><time>2026-04-25T12:19:47Z</time></trkpt><trkpt lat="38.17823892223044" lon="15.795948029599064"><ele>1087.2</ele><time>2026-04-25T12:19:48Z</time></trkpt><trkpt lat="38.178236652277974" lon="15.795817271660402"><ele>1085.8</ele><time>2026-04-25T12:19:49Z</time></trkpt><trkpt lat="38.17822237751112" lon="15.795713922912507"><ele>1084.4</ele><time>2026-04-25T12:19:50Z</time></trkpt><trkpt lat="38.178275557961314" lon="15.795526926766648"><ele>1083.0</ele><time>2026-04-25T12:19:52Z</time></trkpt><trkpt lat="38.17829567083845" lon="15.795435462527237"><ele>1083.0</ele><time>2026-04-25T12:19:53Z</time></trkpt><trkpt lat="38.17830024158038" lon="15.795339769276126"><ele>1083.0</ele><time>2026-04-25T12:19:54Z</time></trkpt><trkpt lat="38.17837899878281" lon="15.795195750129755"><ele>1083.0</ele><time>2026-04-25T12:19:56Z</time></trkpt><trkpt lat="38.17843130290838" lon="15.795044635020915"><ele>1083.0</ele><time>2026-04-25T12:19:58Z</time></trkpt><trkpt lat="38.17848180839053" lon="15.794926302935872"><ele>1083.0</ele><time>2026-04-25T12:20:00.001Z</time></trkpt><trkpt lat="38.17851523639112" lon="15.794799572546147"><ele>1082.6</ele><time>2026-04-25T12:20:01.001Z</time></trkpt><trkpt lat="38.178538723225856" lon="15.7947065800757"><ele>1082.1999999999998</ele><time>2026-04-25T12:20:02.001Z</time></trkpt><trkpt lat="38.1785715076291" lon="15.794595615199714"><ele>1081.8</ele><time>2026-04-25T12:20:03.001Z</time></trkpt><trkpt lat="38.17860481220458" lon="15.79450677318711"><ele>1081.3999999999999</ele><time>2026-04-25T12:20:04.001Z</time></trkpt><trkpt lat="38.17867312560104" lon="15.7943358928607"><ele>1081.0</ele><time>2026-04-25T12:20:06.001Z</time></trkpt><trkpt lat="38.17871859888165" lon="15.794242620390087"><ele>1080.3999999999999</ele><time>2026-04-25T12:20:07.001Z</time></trkpt><trkpt lat="38.17874877553392" lon="15.79414926243217"><ele>1079.8</ele><time>2026-04-25T12:20:08.001Z</time></trkpt><trkpt lat="38.178782521551774" lon="15.79406120077085"><ele>1079.1999999999998</ele><time>2026-04-25T12:20:09.001Z</time></trkpt><trkpt lat="38.17883588413467" lon="15.793891202064849"><ele>1078.6</ele><time>2026-04-25T12:20:11.001Z</time></trkpt><trkpt lat="38.17886116152007" lon="15.793771932995332"><ele>1078.0</ele><time>2026-04-25T12:20:12.001Z</time></trkpt><trkpt lat="38.178878330467285" lon="15.793663475710437"><ele>1078.0</ele><time>2026-04-25T12:20:13.001Z</time></trkpt><trkpt lat="38.17890413044459" lon="15.793559129042542"><ele>1078.0</ele><time>2026-04-25T12:20:14.001Z</time></trkpt><trkpt lat="38.17892046402911" lon="15.793459951045817"><ele>1078.0</ele><time>2026-04-25T12:20:15.001Z</time></trkpt><trkpt lat="38.17892807061825" lon="15.793369227660792"><ele>1078.0</ele><time>2026-04-25T12:20:16.001Z</time></trkpt><trkpt lat="38.17894473113177" lon="15.79329106920313"><ele>1078.0</ele><time>2026-04-25T12:20:17.001Z</time></trkpt><trkpt lat="38.17895653463893" lon="15.793173997474643"><ele>1078.0</ele><time>2026-04-25T12:20:19.001Z</time></trkpt><trkpt lat="38.17896859463498" lon="15.793095107099534"><ele>1077.4</ele><time>2026-04-25T12:20:20.001Z</time></trkpt><trkpt lat="38.17901394563216" lon="15.793027462458802"><ele>1076.8</ele><time>2026-04-25T12:20:21.001Z</time></trkpt><trkpt lat="38.179098430912155" lon="15.792918486766867"><ele>1076.2</ele><time>2026-04-25T12:20:23.001Z</time></trkpt><trkpt lat="38.179161436733835" lon="15.792820276365205"><ele>1075.6</ele><time>2026-04-25T12:20:24.001Z</time></trkpt><trkpt lat="38.17920751447199" lon="15.792673982942025"><ele>1075.0</ele><time>2026-04-25T12:20:25.001Z</time></trkpt><trkpt lat="38.179236891124695" lon="15.792549098216782"><ele>1074.2</ele><time>2026-04-25T12:20:26.001Z</time></trkpt><trkpt lat="38.17928316484878" lon="15.792452887152828"><ele>1073.4</ele><time>2026-04-25T12:20:27.001Z</time></trkpt><trkpt lat="38.179335600421595" lon="15.792331709980155"><ele>1072.6</ele><time>2026-04-25T12:20:29.001Z</time></trkpt><trkpt lat="38.17936871623455" lon="15.7921657279556"><ele>1071.8</ele><time>2026-04-25T12:20:30.001Z</time></trkpt><trkpt lat="38.17936401173672" lon="15.792056840748446"><ele>1071.0</ele><time>2026-04-25T12:20:31.001Z</time></trkpt><trkpt lat="38.17938411389306" lon="15.7919267143294"><ele>1070.1666666666667</ele><time>2026-04-25T12:20:32.001Z</time></trkpt><trkpt lat="38.179376237760344" lon="15.7918073628809"><ele>1069.3333333333333</ele><time>2026-04-25T12:20:33.001Z</time></trkpt><trkpt lat="38.179367369043185" lon="15.791694051922708"><ele>1068.5</ele><time>2026-04-25T12:20:34.001Z</time></trkpt><trkpt lat="38.17938459902819" lon="15.791585129903467"><ele>1067.6666666666665</ele><time>2026-04-25T12:20:35.001Z</time></trkpt><trkpt lat="38.179383345660426" lon="15.791487146773111"><ele>1066.8333333333333</ele><time>2026-04-25T12:20:36.001Z</time></trkpt><trkpt lat="38.179403501791" lon="15.791366408427598"><ele>1066.0</ele><time>2026-04-25T12:20:37.001Z</time></trkpt><trkpt lat="38.17941676517583" lon="15.791256590231583"><ele>1066.0</ele><time>2026-04-25T12:20:38.001Z</time></trkpt><trkpt lat="38.17943736731555" lon="15.791150153360736"><ele>1066.0</ele><time>2026-04-25T12:20:39.001Z</time></trkpt><trkpt lat="38.17946328000327" lon="15.791043992219022"><ele>1066.0</ele><time>2026-04-25T12:20:40.001Z</time></trkpt><trkpt lat="38.17948278626106" lon="15.790946206749656"><ele>1066.0</ele><time>2026-04-25T12:20:41.001Z</time></trkpt><trkpt lat="38.17950076936623" lon="15.790846853796502"><ele>1066.0</ele><time>2026-04-25T12:20:42.001Z</time></trkpt><trkpt lat="38.179512872619966" lon="15.790744620594445"><ele>1066.0</ele><time>2026-04-25T12:20:43.001Z</time></trkpt><trkpt lat="38.17954132228741" lon="15.790656221952098"><ele>1064.8</ele><time>2026-04-25T12:20:44.001Z</time></trkpt><trkpt lat="38.17957940531414" lon="15.790556377011281"><ele>1063.6</ele><time>2026-04-25T12:20:45.001Z</time></trkpt><trkpt lat="38.17962856978152" lon="15.790450958727083"><ele>1062.4</ele><time>2026-04-25T12:20:46.001Z</time></trkpt><trkpt lat="38.179682120677576" lon="15.790346062106394"><ele>1061.2</ele><time>2026-04-25T12:20:47.001Z</time></trkpt><trkpt lat="38.179732962014846" lon="15.790232915751533"><ele>1060.0</ele><time>2026-04-25T12:20:48.001Z</time></trkpt><trkpt lat="38.17977799637215" lon="15.790122399257863"><ele>1058.1666666666665</ele><time>2026-04-25T12:20:49.001Z</time></trkpt><trkpt lat="38.17981374874998" lon="15.790022970102212"><ele>1056.3333333333333</ele><time>2026-04-25T12:20:50.001Z</time></trkpt><trkpt lat="38.17985171056788" lon="15.78993105649079"><ele>1054.5</ele><time>2026-04-25T12:20:51.001Z</time></trkpt><trkpt lat="38.17988945306569" lon="15.789834145814336"><ele>1052.6666666666667</ele><time>2026-04-25T12:20:52.001Z</time></trkpt><trkpt lat="38.17993814146147" lon="15.78973426891825"><ele>1050.8333333333335</ele><time>2026-04-25T12:20:53.001Z</time></trkpt><trkpt lat="38.179974962021134" lon="15.789644160572866"><ele>1049.0</ele><time>2026-04-25T12:20:54.001Z</time></trkpt><trkpt lat="38.18000462572985" lon="15.789534602947272"><ele>1049.0</ele><time>2026-04-25T12:20:55.001Z</time></trkpt><trkpt lat="38.180031836595305" lon="15.789426215319336"><ele>1049.0</ele><time>2026-04-25T12:20:56.001Z</time></trkpt><trkpt lat="38.180062687513114" lon="15.789319338938045"><ele>1049.0</ele><time>2026-04-25T12:20:57.001Z</time></trkpt><trkpt lat="38.18009047318134" lon="15.789229054356696"><ele>1049.0</ele><time>2026-04-25T12:20:58.001Z</time></trkpt><trkpt lat="38.180166352683884" lon="15.789134110364932"><ele>1049.0</ele><time>2026-04-25T12:21:00.001Z</time></trkpt><trkpt lat="38.180195610255176" lon="15.789000797338606"><ele>1047.0</ele><time>2026-04-25T12:21:01Z</time></trkpt><trkpt lat="38.18022818194337" lon="15.788876961668931"><ele>1045.0</ele><time>2026-04-25T12:21:02Z</time></trkpt><trkpt lat="38.18024435551309" lon="15.78871047592863"><ele>1043.0</ele><time>2026-04-25T12:21:04Z</time></trkpt><trkpt lat="38.180266846429774" lon="15.788619234572257"><ele>1041.0</ele><time>2026-04-25T12:21:05Z</time></trkpt><trkpt lat="38.18029533227572" lon="15.788519098647864"><ele>1039.0</ele><time>2026-04-25T12:21:06Z</time></trkpt><trkpt lat="38.18033855386152" lon="15.78844063957719"><ele>1037.3333333333333</ele><time>2026-04-25T12:21:07Z</time></trkpt><trkpt lat="38.18037583381328" lon="15.788372577790463"><ele>1035.6666666666665</ele><time>2026-04-25T12:21:08Z</time></trkpt><trkpt lat="38.18041499059239" lon="15.788246837798095"><ele>1034.0</ele><time>2026-04-25T12:21:09Z</time></trkpt><trkpt lat="38.180461785631564" lon="15.788143770041444"><ele>1032.3333333333333</ele><time>2026-04-25T12:21:10Z</time></trkpt><trkpt lat="38.180445133539266" lon="15.788061044540735"><ele>1030.6666666666667</ele><time>2026-04-25T12:21:11Z</time></trkpt><trkpt lat="38.180478268285285" lon="15.787974631880012"><ele>1029.0</ele><time>2026-04-25T12:21:12Z</time></trkpt><trkpt lat="38.180515127819206" lon="15.787890588738826"><ele>1029.0</ele><time>2026-04-25T12:21:13Z</time></trkpt><trkpt lat="38.18054470900076" lon="15.787781051716248"><ele>1029.0</ele><time>2026-04-25T12:21:14Z</time></trkpt><trkpt lat="38.18058239345744" lon="15.787680981860372"><ele>1029.0</ele><time>2026-04-25T12:21:15Z</time></trkpt><trkpt lat="38.180613126060216" lon="15.787565800210373"><ele>1029.0</ele><time>2026-04-25T12:21:16Z</time></trkpt><trkpt lat="38.18064747328582" lon="15.787468858369877"><ele>1029.0</ele><time>2026-04-25T12:21:17Z</time></trkpt><trkpt lat="38.18067474282615" lon="15.787369685987038"><ele>1029.0</ele><time>2026-04-25T12:21:18Z</time></trkpt><trkpt lat="38.1807067036706" lon="15.787268048455976"><ele>1028.6666666666667</ele><time>2026-04-25T12:21:19Z</time></trkpt><trkpt lat="38.18073803830568" lon="15.787174306698729"><ele>1028.3333333333333</ele><time>2026-04-25T12:21:20Z</time></trkpt><trkpt lat="38.18075536281238" lon="15.787076993440426"><ele>1028.0</ele><time>2026-04-25T12:21:21Z</time></trkpt><trkpt lat="38.18079724559624" lon="15.786968343325999"><ele>1027.6666666666665</ele><time>2026-04-25T12:21:22Z</time></trkpt><trkpt lat="38.180819515622545" lon="15.786878355597674"><ele>1027.3333333333333</ele><time>2026-04-25T12:21:23Z</time></trkpt><trkpt lat="38.180847854318884" lon="15.78677372166422"><ele>1027.0</ele><time>2026-04-25T12:21:25Z</time></trkpt><trkpt lat="38.18090418441389" lon="15.786660636591881"><ele>1026.857142857143</ele><time>2026-04-25T12:21:27Z</time></trkpt><trkpt lat="38.1809288152862" lon="15.786550231231828"><ele>1026.7142857142858</ele><time>2026-04-25T12:21:28Z</time></trkpt><trkpt lat="38.180967300552744" lon="15.786466153692649"><ele>1026.5714285714287</ele><time>2026-04-25T12:21:29Z</time></trkpt><trkpt lat="38.180990267526" lon="15.78638867970463"><ele>1026.4285714285716</ele><time>2026-04-25T12:21:30Z</time></trkpt><trkpt lat="38.18101019620199" lon="15.786311262681394"><ele>1026.2857142857142</ele><time>2026-04-25T12:21:31Z</time></trkpt><trkpt lat="38.181045708905806" lon="15.786229998393484"><ele>1026.1428571428573</ele><time>2026-04-25T12:21:32Z</time></trkpt><trkpt lat="38.18108423380028" lon="15.786153612490788"><ele>1026.0</ele><time>2026-04-25T12:21:33Z</time></trkpt><trkpt lat="38.181124522800715" lon="15.786066099760056"><ele>1023.6666666666666</ele><time>2026-04-25T12:21:34Z</time></trkpt><trkpt lat="38.181172694913755" lon="15.785977576127065"><ele>1021.3333333333333</ele><time>2026-04-25T12:21:35Z</time></trkpt><trkpt lat="38.18122177947487" lon="15.78589744085113"><ele>1019.0</ele><time>2026-04-25T12:21:36Z</time></trkpt><trkpt lat="38.18126230946777" lon="15.785831655497528"><ele>1016.6666666666666</ele><time>2026-04-25T12:21:37Z</time></trkpt><trkpt lat="38.18125118679311" lon="15.785701815588329"><ele>1014.3333333333333</ele><time>2026-04-25T12:21:39Z</time></trkpt><trkpt lat="38.18129667845484" lon="15.785632890976464"><ele>1012.0</ele><time>2026-04-25T12:21:40Z</time></trkpt><trkpt lat="38.181408288153676" lon="15.785539278247334"><ele>1012.0</ele><time>2026-04-25T12:21:43Z</time></trkpt><trkpt lat="38.18144813634368" lon="15.785445647223742"><ele>1012.0</ele><time>2026-04-25T12:21:46Z</time></trkpt><trkpt lat="38.1814781117698" lon="15.785347136674423"><ele>1012.0</ele><time>2026-04-25T12:21:48Z</time></trkpt><trkpt lat="38.18152071216444" lon="15.785273657003742"><ele>1012.0</ele><time>2026-04-25T12:21:50Z</time></trkpt><trkpt lat="38.18156879622137" lon="15.785181388577874"><ele>1012.0</ele><time>2026-04-25T12:21:52Z</time></trkpt><trkpt lat="38.18161192920252" lon="15.785020858226051"><ele>1013.6</ele><time>2026-04-25T12:21:54Z</time></trkpt><trkpt lat="38.18166709455295" lon="15.784911610429146"><ele>1015.2</ele><time>2026-04-25T12:21:56Z</time></trkpt><trkpt lat="38.18174022945946" lon="15.784777191806"><ele>1016.8</ele><time>2026-04-25T12:21:58Z</time></trkpt><trkpt lat="38.18180259849316" lon="15.784645081628891"><ele>1018.4</ele><time>2026-04-25T12:22:00Z</time></trkpt><trkpt lat="38.181853848889865" lon="15.784576680718223"><ele>1020.0</ele><time>2026-04-25T12:22:01.001Z</time></trkpt><trkpt lat="38.1819134960858" lon="15.784528719082163"><ele>1020.0</ele><time>2026-04-25T12:22:02.001Z</time></trkpt><trkpt lat="38.18196988323987" lon="15.784419948897018"><ele>1020.0</ele><time>2026-04-25T12:22:04.001Z</time></trkpt><trkpt lat="38.18200784145462" lon="15.784348344055694"><ele>1020.0</ele><time>2026-04-25T12:22:05.001Z</time></trkpt><trkpt lat="38.18204945726239" lon="15.7842770841512"><ele>1020.0</ele><time>2026-04-25T12:22:06.001Z</time></trkpt><trkpt lat="38.1820850273711" lon="15.784198295436195"><ele>1020.0</ele><time>2026-04-25T12:22:07.001Z</time></trkpt><trkpt lat="38.18213536851819" lon="15.784059092939286"><ele>1020.0</ele><time>2026-04-25T12:22:09.001Z</time></trkpt><trkpt lat="38.18221001362313" lon="15.783943231150994"><ele>1020.5</ele><time>2026-04-25T12:22:11.001Z</time></trkpt><trkpt lat="38.18225619029743" lon="15.783860387266806"><ele>1021.0</ele><time>2026-04-25T12:22:12.001Z</time></trkpt><trkpt lat="38.182299956700135" lon="15.783789455964678"><ele>1021.5</ele><time>2026-04-25T12:22:13.001Z</time></trkpt><trkpt lat="38.182348464166104" lon="15.783699150693977"><ele>1022.0</ele><time>2026-04-25T12:22:14.001Z</time></trkpt><trkpt lat="38.18239172406347" lon="15.78363583142194"><ele>1022.5</ele><time>2026-04-25T12:22:15.001Z</time></trkpt><trkpt lat="38.18246709609596" lon="15.783520743109454"><ele>1023.0</ele><time>2026-04-25T12:22:17.001Z</time></trkpt><trkpt lat="38.18253927424709" lon="15.783393433482773"><ele>1023.5</ele><time>2026-04-25T12:22:19.001Z</time></trkpt><trkpt lat="38.182613630048444" lon="15.783286122099641"><ele>1024.0</ele><time>2026-04-25T12:22:21.001Z</time></trkpt><trkpt lat="38.182672891517626" lon="15.78317858637454"><ele>1024.5</ele><time>2026-04-25T12:22:23.001Z</time></trkpt><trkpt lat="38.18269635066577" lon="15.783092367576254"><ele>1025.0</ele><time>2026-04-25T12:22:24.001Z</time></trkpt><trkpt lat="38.18272068021337" lon="15.783009356937233"><ele>1025.5</ele><time>2026-04-25T12:22:25.001Z</time></trkpt><trkpt lat="38.18274655574747" lon="15.782917523821515"><ele>1026.0</ele><time>2026-04-25T12:22:26.001Z</time></trkpt><trkpt lat="38.18277639795306" lon="15.782832880684953"><ele>1026.0</ele><time>2026-04-25T12:22:27.001Z</time></trkpt><trkpt lat="38.18281235448326" lon="15.782764752543068"><ele>1026.0</ele><time>2026-04-25T12:22:28.001Z</time></trkpt><trkpt lat="38.182873115081115" lon="15.782614584029853"><ele>1026.0</ele><time>2026-04-25T12:22:30.001Z</time></trkpt><trkpt lat="38.18289000661636" lon="15.782508197161446"><ele>1026.0</ele><time>2026-04-25T12:22:31.001Z</time></trkpt><trkpt lat="38.18290202905815" lon="15.782409211448002"><ele>1026.0</ele><time>2026-04-25T12:22:32.001Z</time></trkpt><trkpt lat="38.18291970463682" lon="15.782318046985008"><ele>1026.0</ele><time>2026-04-25T12:22:33.001Z</time></trkpt><trkpt lat="38.182935743836296" lon="15.782234000735729"><ele>1026.3333333333333</ele><time>2026-04-25T12:22:34.001Z</time></trkpt><trkpt lat="38.1829829583102" lon="15.782141243389011"><ele>1026.6666666666667</ele><time>2026-04-25T12:22:35.001Z</time></trkpt><trkpt lat="38.183007933472595" lon="15.782067570392936"><ele>1027.0</ele><time>2026-04-25T12:22:36.001Z</time></trkpt><trkpt lat="38.18305195555284" lon="15.78191692794092"><ele>1027.3333333333335</ele><time>2026-04-25T12:22:38.001Z</time></trkpt><trkpt lat="38.18307828020278" lon="15.781832304481446"><ele>1027.6666666666667</ele><time>2026-04-25T12:22:39.001Z</time></trkpt><trkpt lat="38.18310032154671" lon="15.781742637835544"><ele>1028.0</ele><time>2026-04-25T12:22:40.001Z</time></trkpt><trkpt lat="38.183119314830854" lon="15.781653218157357"><ele>1029.1666666666667</ele><time>2026-04-25T12:22:41.001Z</time></trkpt><trkpt lat="38.18315173257853" lon="15.781570465208913"><ele>1030.3333333333335</ele><time>2026-04-25T12:22:42.001Z</time></trkpt><trkpt lat="38.18316188765991" lon="15.781481036081317"><ele>1031.5</ele><time>2026-04-25T12:22:43.001Z</time></trkpt><trkpt lat="38.18318348639215" lon="15.781402678989483"><ele>1032.6666666666667</ele><time>2026-04-25T12:22:44.001Z</time></trkpt><trkpt lat="38.183273661722865" lon="15.781213131581666"><ele>1033.8333333333333</ele><time>2026-04-25T12:22:46.001Z</time></trkpt><trkpt lat="38.18327491738931" lon="15.781129008919306"><ele>1035.0</ele><time>2026-04-25T12:22:47.001Z</time></trkpt><trkpt lat="38.18332193514194" lon="15.780965437945444"><ele>1037.0</ele><time>2026-04-25T12:22:49.001Z</time></trkpt><trkpt lat="38.183336857064454" lon="15.78087112582964"><ele>1039.0</ele><time>2026-04-25T12:22:50.001Z</time></trkpt><trkpt lat="38.18337098013152" lon="15.78077837813873"><ele>1041.0</ele><time>2026-04-25T12:22:51.001Z</time></trkpt><trkpt lat="38.18340636893005" lon="15.780692874316733"><ele>1043.0</ele><time>2026-04-25T12:22:52.001Z</time></trkpt><trkpt lat="38.183453995389755" lon="15.780542980541622"><ele>1045.0</ele><time>2026-04-25T12:22:54.001Z</time></trkpt><trkpt lat="38.183506653416224" lon="15.780422499541874"><ele>1045.0</ele><time>2026-04-25T12:22:56.001Z</time></trkpt><trkpt lat="38.183541320557175" lon="15.7803144104225"><ele>1045.0</ele><time>2026-04-25T12:22:58.001Z</time></trkpt><trkpt lat="38.18358075712823" lon="15.780198242305245"><ele>1045.0</ele><time>2026-04-25T12:23:00.001Z</time></trkpt><trkpt lat="38.18358467035479" lon="15.780073484884916"><ele>1045.0</ele><time>2026-04-25T12:23:02.001Z</time></trkpt><trkpt lat="38.18362444748503" lon="15.78000321217076"><ele>1045.0</ele><time>2026-04-25T12:23:04.001Z</time></trkpt><trkpt lat="38.183666255539606" lon="15.779902711021991"><ele>1045.0</ele><time>2026-04-25T12:23:07Z</time></trkpt><trkpt lat="38.18369447194335" lon="15.779772717937487"><ele>1045.2</ele><time>2026-04-25T12:23:09Z</time></trkpt><trkpt lat="38.183711459890645" lon="15.779653257044405"><ele>1045.4</ele><time>2026-04-25T12:23:11Z</time></trkpt><trkpt lat="38.183735452663676" lon="15.779571914661375"><ele>1045.6</ele><time>2026-04-25T12:23:12Z</time></trkpt><trkpt lat="38.183771407008535" lon="15.779439449420748"><ele>1045.8</ele><time>2026-04-25T12:23:14Z</time></trkpt><trkpt lat="38.183786277221664" lon="15.779305113100376"><ele>1046.0</ele><time>2026-04-25T12:23:16Z</time></trkpt><trkpt lat="38.18381011432425" lon="15.779168721554726"><ele>1046.0</ele><time>2026-04-25T12:23:18Z</time></trkpt><trkpt lat="38.183805069138494" lon="15.77908838224247"><ele>1046.0</ele><time>2026-04-25T12:23:19Z</time></trkpt><trkpt lat="38.18372860064396" lon="15.779012138356773"><ele>1046.0</ele><time>2026-04-25T12:23:21Z</time></trkpt><trkpt lat="38.183684197698476" lon="15.778899403142658"><ele>1046.0</ele><time>2026-04-25T12:23:24Z</time></trkpt><trkpt lat="38.183653414230534" lon="15.778737731138259"><ele>1046.0</ele><time>2026-04-25T12:23:27Z</time></trkpt><trkpt lat="38.18362314272092" lon="15.778657001385156"><ele>1046.0</ele><time>2026-04-25T12:23:28Z</time></trkpt><trkpt lat="38.183608572815366" lon="15.778560308856472"><ele>1046.0</ele><time>2026-04-25T12:23:29Z</time></trkpt><trkpt lat="38.183620321302726" lon="15.778416516512669"><ele>1046.0</ele><time>2026-04-25T12:23:31Z</time></trkpt><trkpt lat="38.18363381686678" lon="15.778329385748606"><ele>1046.0</ele><time>2026-04-25T12:23:32Z</time></trkpt><trkpt lat="38.18365424834459" lon="15.77817491040264"><ele>1046.0</ele><time>2026-04-25T12:23:34Z</time></trkpt><trkpt lat="38.18369397476139" lon="15.778041368408381"><ele>1047.8</ele><time>2026-04-25T12:23:36Z</time></trkpt><trkpt lat="38.183709951125365" lon="15.777954704873277"><ele>1049.6</ele><time>2026-04-25T12:23:37Z</time></trkpt><trkpt lat="38.18371442250743" lon="15.77778234467191"><ele>1051.4</ele><time>2026-04-25T12:23:39Z</time></trkpt><trkpt lat="38.183743235233244" lon="15.777675307420523"><ele>1053.2</ele><time>2026-04-25T12:23:41Z</time></trkpt><trkpt lat="38.18378840735768" lon="15.77759046941911"><ele>1055.0</ele><time>2026-04-25T12:23:44Z</time></trkpt><trkpt lat="38.183817991240325" lon="15.777462289949337"><ele>1056.0</ele><time>2026-04-25T12:23:46Z</time></trkpt><trkpt lat="38.18382445846865" lon="15.77738260843183"><ele>1057.0</ele><time>2026-04-25T12:23:47Z</time></trkpt><trkpt lat="38.1838667671021" lon="15.777264032621948"><ele>1058.0</ele><time>2026-04-25T12:23:48Z</time></trkpt><trkpt lat="38.18390709383374" lon="15.777159411869299"><ele>1059.0</ele><time>2026-04-25T12:23:49Z</time></trkpt><trkpt lat="38.183938782831454" lon="15.777065703218591"><ele>1060.0</ele><time>2026-04-25T12:23:50Z</time></trkpt><trkpt lat="38.183975324609094" lon="15.776950932032523"><ele>1061.0</ele><time>2026-04-25T12:23:51Z</time></trkpt><trkpt lat="38.18401756751302" lon="15.776824793201108"><ele>1061.8</ele><time>2026-04-25T12:23:52Z</time></trkpt><trkpt lat="38.1840904637506" lon="15.776731110197694"><ele>1062.6</ele><time>2026-04-25T12:23:53Z</time></trkpt><trkpt lat="38.184099723509654" lon="15.776610957889256"><ele>1063.4</ele><time>2026-04-25T12:23:54Z</time></trkpt><trkpt lat="38.18413256699765" lon="15.776497113961296"><ele>1064.2</ele><time>2026-04-25T12:23:55.001Z</time></trkpt><trkpt lat="38.18416949752933" lon="15.776379482058598"><ele>1065.0</ele><time>2026-04-25T12:23:56.001Z</time></trkpt><trkpt lat="38.18419687647084" lon="15.7762764739751"><ele>1065.0</ele><time>2026-04-25T12:23:57.001Z</time></trkpt><trkpt lat="38.18425435159537" lon="15.776120913612697"><ele>1065.0</ele><time>2026-04-25T12:23:59.001Z</time></trkpt><trkpt lat="38.18427955526288" lon="15.776020811858698"><ele>1065.0</ele><time>2026-04-25T12:24:00.001Z</time></trkpt><trkpt lat="38.18431083715105" lon="15.775919928490149"><ele>1065.0</ele><time>2026-04-25T12:24:01.001Z</time></trkpt><trkpt lat="38.184343445091905" lon="15.775818000936331"><ele>1065.0</ele><time>2026-04-25T12:24:02.001Z</time></trkpt><trkpt lat="38.184401749218495" lon="15.775727875614564"><ele>1064.8</ele><time>2026-04-25T12:24:03.001Z</time></trkpt><trkpt lat="38.18439700229482" lon="15.77563152091664"><ele>1064.6</ele><time>2026-04-25T12:24:04.001Z</time></trkpt><trkpt lat="38.18441626308203" lon="15.775539873882396"><ele>1064.4</ele><time>2026-04-25T12:24:05.001Z</time></trkpt><trkpt lat="38.18444607751824" lon="15.775458417388784"><ele>1064.2</ele><time>2026-04-25T12:24:06.001Z</time></trkpt><trkpt lat="38.184485353788574" lon="15.775311495354364"><ele>1064.0</ele><time>2026-04-25T12:24:08.001Z</time></trkpt><trkpt lat="38.184523511667415" lon="15.775178318994524"><ele>1063.1666666666667</ele><time>2026-04-25T12:24:10.001Z</time></trkpt><trkpt lat="38.184546600017" lon="15.775093098615"><ele>1062.3333333333335</ele><time>2026-04-25T12:24:12.001Z</time></trkpt><trkpt lat="38.184564285907484" lon="15.774993505432281"><ele>1061.5</ele><time>2026-04-25T12:24:15.001Z</time></trkpt><trkpt lat="38.18457362144059" lon="15.774853324369479"><ele>1060.6666666666667</ele><time>2026-04-25T12:24:17.001Z</time></trkpt><trkpt lat="38.184585396795576" lon="15.774767115265503"><ele>1059.8333333333333</ele><time>2026-04-25T12:24:18.001Z</time></trkpt><trkpt lat="38.1845933270603" lon="15.774683677117206"><ele>1059.0</ele><time>2026-04-25T12:24:19.001Z</time></trkpt><trkpt lat="38.1845772139719" lon="15.774514212619131"><ele>1059.0</ele><time>2026-04-25T12:24:21.001Z</time></trkpt><trkpt lat="38.184608360520876" lon="15.774442299063228"><ele>1059.0</ele><time>2026-04-25T12:24:24.001Z</time></trkpt><trkpt lat="38.18453833385219" lon="15.77438139846982"><ele>1059.0</ele><time>2026-04-25T12:24:27.001Z</time></trkpt><trkpt lat="38.18446170361041" lon="15.77434658410725"><ele>1059.0</ele><time>2026-04-25T12:24:28.001Z</time></trkpt><trkpt lat="38.18436443254769" lon="15.774290433394222"><ele>1059.0</ele><time>2026-04-25T12:24:30.001Z</time></trkpt><trkpt lat="38.18424640857645" lon="15.774190373154376"><ele>1058.4</ele><time>2026-04-25T12:24:32.001Z</time></trkpt><trkpt lat="38.184181569568985" lon="15.77415421956773"><ele>1057.8000000000002</ele><time>2026-04-25T12:24:33.001Z</time></trkpt><trkpt lat="38.18411181107978" lon="15.774120382535568"><ele>1057.1999999999998</ele><time>2026-04-25T12:24:34.001Z</time></trkpt><trkpt lat="38.18400723617538" lon="15.774089888945225"><ele>1056.6</ele><time>2026-04-25T12:24:36.001Z</time></trkpt><trkpt lat="38.18391419746267" lon="15.774041648581889"><ele>1056.0</ele><time>2026-04-25T12:24:38.001Z</time></trkpt><trkpt lat="38.18380559181275" lon="15.774000371567467"><ele>1054.8333333333333</ele><time>2026-04-25T12:24:40.001Z</time></trkpt><trkpt lat="38.1837050426555" lon="15.773948869292468"><ele>1053.6666666666667</ele><time>2026-04-25T12:24:42.001Z</time></trkpt><trkpt lat="38.183600758464166" lon="15.773898686441582"><ele>1052.5</ele><time>2026-04-25T12:24:44.001Z</time></trkpt><trkpt lat="38.18354499539357" lon="15.773860981124004"><ele>1051.3333333333335</ele><time>2026-04-25T12:24:45.001Z</time></trkpt><trkpt lat="38.18348987185666" lon="15.773817267105787"><ele>1050.1666666666667</ele><time>2026-04-25T12:24:46.001Z</time></trkpt><trkpt lat="38.18343558448193" lon="15.773772633201313"><ele>1049.0</ele><time>2026-04-25T12:24:47.001Z</time></trkpt><trkpt lat="38.18337889002011" lon="15.773723612568585"><ele>1049.0</ele><time>2026-04-25T12:24:48.001Z</time></trkpt><trkpt lat="38.183319512990266" lon="15.773671866165813"><ele>1049.0</ele><time>2026-04-25T12:24:49.001Z</time></trkpt><trkpt lat="38.183267604206044" lon="15.77362239889856"><ele>1049.0</ele><time>2026-04-25T12:24:50.001Z</time></trkpt><trkpt lat="38.18317257873203" lon="15.773541921470546"><ele>1049.0</ele><time>2026-04-25T12:24:52.001Z</time></trkpt><trkpt lat="38.183108874554335" lon="15.773481666594858"><ele>1049.0</ele><time>2026-04-25T12:24:54.001Z</time></trkpt><trkpt lat="38.18306145905746" lon="15.773415108218224"><ele>1049.0</ele><time>2026-04-25T12:24:56.001Z</time></trkpt><trkpt lat="38.183007822238864" lon="15.773340318943074"><ele>1046.6666666666667</ele><time>2026-04-25T12:24:58.001Z</time></trkpt><trkpt lat="38.18295655341635" lon="15.773262190805953"><ele>1044.3333333333335</ele><time>2026-04-25T12:25:01.001Z</time></trkpt><trkpt lat="38.18291254875252" lon="15.77316706159547"><ele>1042.0</ele><time>2026-04-25T12:25:03.001Z</time></trkpt><trkpt lat="38.18294892581412" lon="15.773094761884597"><ele>1039.6666666666667</ele><time>2026-04-25T12:25:05.001Z</time></trkpt><trkpt lat="38.18295520370673" lon="15.772984816893585"><ele>1037.3333333333333</ele><time>2026-04-25T12:25:08.001Z</time></trkpt><trkpt lat="38.18293391853881" lon="15.772869906699295"><ele>1035.0</ele><time>2026-04-25T12:25:11.001Z</time></trkpt><trkpt lat="38.182937633854635" lon="15.772782582726176"><ele>1035.0</ele><time>2026-04-25T12:25:15Z</time></trkpt><trkpt lat="38.182917739207454" lon="15.772706350229665"><ele>1035.0</ele><time>2026-04-25T12:25:18Z</time></trkpt><trkpt lat="38.182940181021884" lon="15.772619812490941"><ele>1035.0</ele><time>2026-04-25T12:25:22Z</time></trkpt><trkpt lat="38.18294049832172" lon="15.772515335610573"><ele>1035.0</ele><time>2026-04-25T12:25:27Z</time></trkpt><trkpt lat="38.18287073938188" lon="15.772464366109721"><ele>1035.0</ele><time>2026-04-25T12:25:31Z</time></trkpt><trkpt lat="38.18281154299121" lon="15.772428806413098"><ele>1035.0</ele><time>2026-04-25T12:25:35Z</time></trkpt><trkpt lat="38.18274528945565" lon="15.772382486954772"><ele>1035.0</ele><time>2026-04-25T12:25:39Z</time></trkpt><trkpt lat="38.18268145829643" lon="15.772351746053712"><ele>1033.8333333333333</ele><time>2026-04-25T12:25:41Z</time></trkpt><trkpt lat="38.18261424466523" lon="15.772279835664023"><ele>1032.6666666666667</ele><time>2026-04-25T12:25:44Z</time></trkpt><trkpt lat="38.18255774229463" lon="15.772232676860469"><ele>1031.5</ele><time>2026-04-25T12:25:47Z</time></trkpt><trkpt lat="38.1825029295354" lon="15.772167426614121"><ele>1030.3333333333335</ele><time>2026-04-25T12:25:50Z</time></trkpt><trkpt lat="38.182493146791884" lon="15.772033393778658"><ele>1029.1666666666667</ele><time>2026-04-25T12:26:29.001Z</time></trkpt><trkpt lat="38.18256300102517" lon="15.772023725162446"><ele>1028.0</ele><time>2026-04-25T12:26:31.001Z</time></trkpt><trkpt lat="38.18265743320529" lon="15.771975514212498"><ele>1028.0</ele><time>2026-04-25T12:26:35.001Z</time></trkpt><trkpt lat="38.18273305185997" lon="15.771861293340141"><ele>1028.0</ele><time>2026-04-25T12:26:37.001Z</time></trkpt><trkpt lat="38.18279193472445" lon="15.771748851787965"><ele>1028.0</ele><time>2026-04-25T12:26:39.001Z</time></trkpt><trkpt lat="38.182867439670076" lon="15.771683412474719"><ele>1028.0</ele><time>2026-04-25T12:26:41.001Z</time></trkpt><trkpt lat="38.18296600623072" lon="15.771671359961816"><ele>1028.0</ele><time>2026-04-25T12:26:43.001Z</time></trkpt><trkpt lat="38.183070150396816" lon="15.771633925087075"><ele>1026.2</ele><time>2026-04-25T12:26:45.001Z</time></trkpt><trkpt lat="38.183206405104315" lon="15.771612738135282"><ele>1024.4</ele><time>2026-04-25T12:26:47.001Z</time></trkpt><trkpt lat="38.18328332856472" lon="15.771620431377535"><ele>1022.6000000000001</ele><time>2026-04-25T12:26:48.001Z</time></trkpt><trkpt lat="38.183375033762275" lon="15.771570329549418"><ele>1020.8000000000001</ele><time>2026-04-25T12:26:49.001Z</time></trkpt><trkpt lat="38.18343871143591" lon="15.771567211599375"><ele>1019.0</ele><time>2026-04-25T12:26:50.001Z</time></trkpt><trkpt lat="38.18352359154106" lon="15.771493187636969"><ele>1019.0</ele><time>2026-04-25T12:26:52.001Z</time></trkpt><trkpt lat="38.18362943272686" lon="15.771447190536383"><ele>1019.0000000000001</ele><time>2026-04-25T12:26:54.001Z</time></trkpt><trkpt lat="38.18374480326149" lon="15.771427889194074"><ele>1019.0000000000001</ele><time>2026-04-25T12:26:56.001Z</time></trkpt><trkpt lat="38.18379324447582" lon="15.771374318954361"><ele>1019.0</ele><time>2026-04-25T12:26:57.001Z</time></trkpt><trkpt lat="38.18385737582674" lon="15.771334834175724"><ele>1019.0</ele><time>2026-04-25T12:26:58.001Z</time></trkpt><trkpt lat="38.183939607877754" lon="15.771287743160988"><ele>1019.0000000000001</ele><time>2026-04-25T12:27:00.001Z</time></trkpt><trkpt lat="38.18400630030391" lon="15.771298330027992"><ele>1019.0</ele><time>2026-04-25T12:27:01.001Z</time></trkpt><trkpt lat="38.184087563807495" lon="15.771292483690976"><ele>1019.0000000000001</ele><time>2026-04-25T12:27:02.001Z</time></trkpt><trkpt lat="38.18416515404719" lon="15.771257959154399"><ele>1019.0000000000001</ele><time>2026-04-25T12:27:03.001Z</time></trkpt><trkpt lat="38.18423323009604" lon="15.771237377649946"><ele>1019.0</ele><time>2026-04-25T12:27:04.001Z</time></trkpt><trkpt lat="38.18429958618764" lon="15.771216155320252"><ele>1019.0000000000001</ele><time>2026-04-25T12:27:05.001Z</time></trkpt><trkpt lat="38.18436435375236" lon="15.771199131671612"><ele>1019.0000000000001</ele><time>2026-04-25T12:27:06.001Z</time></trkpt><trkpt lat="38.18442847891668" lon="15.771187661944264"><ele>1020.8000000000001</ele><time>2026-04-25T12:27:07.001Z</time></trkpt><trkpt lat="38.184501752868194" lon="15.771176236781205"><ele>1022.6000000000001</ele><time>2026-04-25T12:27:08.001Z</time></trkpt><trkpt lat="38.18457798175232" lon="15.771163779240265"><ele>1024.4</ele><time>2026-04-25T12:27:09.001Z</time></trkpt><trkpt lat="38.184679609432955" lon="15.771194487867067"><ele>1026.2</ele><time>2026-04-25T12:27:11.001Z</time></trkpt><trkpt lat="38.184798776273354" lon="15.771227864506514"><ele>1028.0</ele><time>2026-04-25T12:27:13.001Z</time></trkpt><trkpt lat="38.18491061282886" lon="15.77125763696264"><ele>1028.0</ele><time>2026-04-25T12:27:15.001Z</time></trkpt><trkpt lat="38.18498611517115" lon="15.771260143052256"><ele>1028.0</ele><time>2026-04-25T12:27:16.001Z</time></trkpt><trkpt lat="38.18511596529167" lon="15.771229843256892"><ele>1028.0</ele><time>2026-04-25T12:27:18.001Z</time></trkpt><trkpt lat="38.18517715026781" lon="15.771198171043205"><ele>1028.0</ele><time>2026-04-25T12:27:19Z</time></trkpt><trkpt lat="38.18526719244921" lon="15.771135780612553"><ele>1028.0</ele><time>2026-04-25T12:27:20Z</time></trkpt><trkpt lat="38.18534609486114" lon="15.771097070704746"><ele>1028.0</ele><time>2026-04-25T12:27:21Z</time></trkpt><trkpt lat="38.185446623934446" lon="15.771094085504139"><ele>1028.0</ele><time>2026-04-25T12:27:23Z</time></trkpt><trkpt lat="38.1855116401496" lon="15.770981841204463"><ele>1028.0</ele><time>2026-04-25T12:27:25Z</time></trkpt><trkpt lat="38.185556973606914" lon="15.770918635807854"><ele>1028.0</ele><time>2026-04-25T12:27:26Z</time></trkpt><trkpt lat="38.18562662813596" lon="15.770800488406877"><ele>1028.0</ele><time>2026-04-25T12:27:28Z</time></trkpt><trkpt lat="38.18564488479311" lon="15.770647743266485"><ele>1020.4</ele><time>2026-04-25T12:27:30Z</time></trkpt><trkpt lat="38.1856336998077" lon="15.770542896598858"><ele>1012.8</ele><time>2026-04-25T12:27:31Z</time></trkpt><trkpt lat="38.18561109915194" lon="15.770411689949361"><ele>1005.2</ele><time>2026-04-25T12:27:33Z</time></trkpt><trkpt lat="38.18559074655355" lon="15.770250732013753"><ele>997.6</ele><time>2026-04-25T12:27:35Z</time></trkpt><trkpt lat="38.18559965516773" lon="15.770170662185903"><ele>990.0</ele><time>2026-04-25T12:27:36Z</time></trkpt><trkpt lat="38.185619073250656" lon="15.770071805200033"><ele>988.8</ele><time>2026-04-25T12:27:37Z</time></trkpt><trkpt lat="38.18562292007253" lon="15.76999103250031"><ele>987.6</ele><time>2026-04-25T12:27:38Z</time></trkpt><trkpt lat="38.185652343389314" lon="15.769833440339209"><ele>986.4000000000001</ele><time>2026-04-25T12:27:40Z</time></trkpt><trkpt lat="38.185717452886934" lon="15.769715068163766"><ele>985.2</ele><time>2026-04-25T12:27:42Z</time></trkpt><trkpt lat="38.18576823228176" lon="15.76966608498185"><ele>984.0</ele><time>2026-04-25T12:27:43Z</time></trkpt><trkpt lat="38.18587443810023" lon="15.769679063839401"><ele>984.0</ele><time>2026-04-25T12:27:45Z</time></trkpt><trkpt lat="38.18594444059089" lon="15.769677989338435"><ele>984.0</ele><time>2026-04-25T12:27:46Z</time></trkpt><trkpt lat="38.186045131064056" lon="15.769600144031747"><ele>984.0</ele><time>2026-04-25T12:27:48Z</time></trkpt><trkpt lat="38.186086197795035" lon="15.769515232246198"><ele>984.0</ele><time>2026-04-25T12:27:49Z</time></trkpt><trkpt lat="38.18610659471911" lon="15.769406065922311"><ele>984.0</ele><time>2026-04-25T12:27:50Z</time></trkpt><trkpt lat="38.18612959745994" lon="15.76930132936925"><ele>984.0</ele><time>2026-04-25T12:27:51Z</time></trkpt><trkpt lat="38.186168667487195" lon="15.769200191548896"><ele>977.0</ele><time>2026-04-25T12:27:52Z</time></trkpt><trkpt lat="38.18622645550939" lon="15.769105878343616"><ele>970.0000000000001</ele><time>2026-04-25T12:27:53Z</time></trkpt><trkpt lat="38.18628564472579" lon="15.769011118060057"><ele>963.0000000000001</ele><time>2026-04-25T12:27:54Z</time></trkpt><trkpt lat="38.186322973647286" lon="15.768904888651386"><ele>956.0</ele><time>2026-04-25T12:27:55Z</time></trkpt><trkpt lat="38.186342894048" lon="15.768784299892577"><ele>949.0</ele><time>2026-04-25T12:27:56Z</time></trkpt><trkpt lat="38.18636000283627" lon="15.768659005321375"><ele>949.0</ele><time>2026-04-25T12:27:57Z</time></trkpt><trkpt lat="38.18639448536774" lon="15.768531355752987"><ele>949.0000000000001</ele><time>2026-04-25T12:27:58Z</time></trkpt><trkpt lat="38.186432653819416" lon="15.768424482013994"><ele>949.0000000000001</ele><time>2026-04-25T12:27:59Z</time></trkpt><trkpt lat="38.18646007264379" lon="15.768296193601055"><ele>949.0</ele><time>2026-04-25T12:28:00Z</time></trkpt><trkpt lat="38.18646817453103" lon="15.768180946976605"><ele>949.0</ele><time>2026-04-25T12:28:01Z</time></trkpt><trkpt lat="38.18646184935875" lon="15.768067294295768"><ele>949.0</ele><time>2026-04-25T12:28:02Z</time></trkpt><trkpt lat="38.18645213889578" lon="15.767926672402654"><ele>949.0000000000001</ele><time>2026-04-25T12:28:03Z</time></trkpt><trkpt lat="38.18646082791338" lon="15.767788835205002"><ele>949.0000000000001</ele><time>2026-04-25T12:28:04Z</time></trkpt><trkpt lat="38.18648672392888" lon="15.767645372794131"><ele>949.0</ele><time>2026-04-25T12:28:05Z</time></trkpt><trkpt lat="38.18650751116165" lon="15.767508250529032"><ele>949.0</ele><time>2026-04-25T12:28:06Z</time></trkpt><trkpt lat="38.1865284395828" lon="15.76738142880543"><ele>949.0</ele><time>2026-04-25T12:28:07Z</time></trkpt><trkpt lat="38.1865516867214" lon="15.767252774589489"><ele>949.0000000000001</ele><time>2026-04-25T12:28:08Z</time></trkpt><trkpt lat="38.186573164484344" lon="15.767131192595665"><ele>949.0000000000001</ele><time>2026-04-25T12:28:09Z</time></trkpt><trkpt lat="38.186592115535284" lon="15.767031731398772"><ele>949.0</ele><time>2026-04-25T12:28:10Z</time></trkpt><trkpt lat="38.18663706463967" lon="15.766945669499206"><ele>949.0</ele><time>2026-04-25T12:28:12Z</time></trkpt><trkpt lat="38.18674682213229" lon="15.766912186189428"><ele>948.9999999999999</ele><time>2026-04-25T12:28:14Z</time></trkpt><trkpt lat="38.1868123001584" lon="15.766909695466454"><ele>949.0</ele><time>2026-04-25T12:28:15Z</time></trkpt><trkpt lat="38.18687889095664" lon="15.766888147310649"><ele>949.0</ele><time>2026-04-25T12:28:16Z</time></trkpt><trkpt lat="38.18699443703831" lon="15.766871002880254"><ele>949.0</ele><time>2026-04-25T12:28:18.001Z</time></trkpt><trkpt lat="38.187058520458145" lon="15.766896167265857"><ele>948.9999999999999</ele><time>2026-04-25T12:28:19.001Z</time></trkpt><trkpt lat="38.18710252139404" lon="15.766957192727498"><ele>949.0</ele><time>2026-04-25T12:28:20.001Z</time></trkpt><trkpt lat="38.187146355771986" lon="15.767021454810557"><ele>949.0000000000001</ele><time>2026-04-25T12:28:21.001Z</time></trkpt><trkpt lat="38.18718197544876" lon="15.767095922248906"><ele>949.0</ele><time>2026-04-25T12:28:22.001Z</time></trkpt><trkpt lat="38.18721468098456" lon="15.767174747276641"><ele>949.0000000000001</ele><time>2026-04-25T12:28:23.001Z</time></trkpt><trkpt lat="38.18725931649564" lon="15.767234486897538"><ele>949.0000000000001</ele><time>2026-04-25T12:28:24.001Z</time></trkpt><trkpt lat="38.18729232637225" lon="15.767306232853269"><ele>949.0</ele><time>2026-04-25T12:28:25.001Z</time></trkpt><trkpt lat="38.187323400682885" lon="15.767385677850486"><ele>949.0000000000001</ele><time>2026-04-25T12:28:26.001Z</time></trkpt><trkpt lat="38.187370945727544" lon="15.767482786917688"><ele>949.0000000000001</ele><time>2026-04-25T12:28:27.001Z</time></trkpt><trkpt lat="38.187416908778616" lon="15.767577955856709"><ele>947.9999999999999</ele><time>2026-04-25T12:28:28.001Z</time></trkpt><trkpt lat="38.187470946398655" lon="15.767674940230572"><ele>947.0</ele><time>2026-04-25T12:28:29.001Z</time></trkpt><trkpt lat="38.187502495211604" lon="15.767764616607327"><ele>946.0</ele><time>2026-04-25T12:28:30.001Z</time></trkpt><trkpt lat="38.18755375459047" lon="15.767859897828787"><ele>945.0</ele><time>2026-04-25T12:28:31.001Z</time></trkpt><trkpt lat="38.187587529670076" lon="15.76795563071469"><ele>943.9999999999999</ele><time>2026-04-25T12:28:32.001Z</time></trkpt><trkpt lat="38.18762909090348" lon="15.768049223731161"><ele>943.0</ele><time>2026-04-25T12:28:33.001Z</time></trkpt><trkpt lat="38.18766173189555" lon="15.76814815404852"><ele>943.0</ele><time>2026-04-25T12:28:34.001Z</time></trkpt><trkpt lat="38.18770285149855" lon="15.768294624968288"><ele>943.0</ele><time>2026-04-25T12:28:36.001Z</time></trkpt><trkpt lat="38.187719812272924" lon="15.768419098826005"><ele>943.0</ele><time>2026-04-25T12:28:38.001Z</time></trkpt><trkpt lat="38.187787164906844" lon="15.768425181600753"><ele>943.0</ele><time>2026-04-25T12:28:40.001Z</time></trkpt><trkpt lat="38.18782224347772" lon="15.768341669830894"><ele>943.0</ele><time>2026-04-25T12:28:42.001Z</time></trkpt><trkpt lat="38.187817152385854" lon="15.768198322620128"><ele>943.0</ele><time>2026-04-25T12:28:45.001Z</time></trkpt><trkpt lat="38.18778377344465" lon="15.76810278537907"><ele>943.0</ele><time>2026-04-25T12:28:46.001Z</time></trkpt><trkpt lat="38.18776034667456" lon="15.767967850687441"><ele>943.0</ele><time>2026-04-25T12:28:47.001Z</time></trkpt><trkpt lat="38.18773621151894" lon="15.767836257486456"><ele>943.0</ele><time>2026-04-25T12:28:48.001Z</time></trkpt><trkpt lat="38.18775290987902" lon="15.767721601163549"><ele>943.0</ele><time>2026-04-25T12:28:49.001Z</time></trkpt><trkpt lat="38.187781769276135" lon="15.767621697704646"><ele>940.8</ele><time>2026-04-25T12:28:50.001Z</time></trkpt><trkpt lat="38.187821829039024" lon="15.76752142121604"><ele>938.5999999999999</ele><time>2026-04-25T12:28:51.001Z</time></trkpt><trkpt lat="38.18775722236293" lon="15.767341077162587"><ele>936.4000000000001</ele><time>2026-04-25T12:28:53.001Z</time></trkpt><trkpt lat="38.187733855068736" lon="15.767231392212368"><ele>934.2</ele><time>2026-04-25T12:28:54.001Z</time></trkpt><trkpt lat="38.18768287884307" lon="15.767131921612021"><ele>932.0</ele><time>2026-04-25T12:28:55.001Z</time></trkpt><trkpt lat="38.18763217844318" lon="15.76706194896195"><ele>932.0</ele><time>2026-04-25T12:28:56.001Z</time></trkpt><trkpt lat="38.187595053004294" lon="15.766949209991907"><ele>932.0</ele><time>2026-04-25T12:28:57.001Z</time></trkpt><trkpt lat="38.18753098309313" lon="15.766773067545987"><ele>932.0</ele><time>2026-04-25T12:28:59.001Z</time></trkpt><trkpt lat="38.18746657133323" lon="15.766613071806397"><ele>932.0</ele><time>2026-04-25T12:29:01.001Z</time></trkpt><trkpt lat="38.18742685263016" lon="15.766547924155446"><ele>932.0</ele><time>2026-04-25T12:29:02.001Z</time></trkpt><trkpt lat="38.1873265775458" lon="15.766427301765992"><ele>932.0</ele><time>2026-04-25T12:29:04.001Z</time></trkpt><trkpt lat="38.1872719004115" lon="15.766334722255838"><ele>932.0</ele><time>2026-04-25T12:29:05.001Z</time></trkpt><trkpt lat="38.18720805395563" lon="15.766250990052134"><ele>932.0</ele><time>2026-04-25T12:29:06.001Z</time></trkpt><trkpt lat="38.187184549444105" lon="15.766165857943621"><ele>932.0</ele><time>2026-04-25T12:29:07.001Z</time></trkpt><trkpt lat="38.18717097106032" lon="15.766086036207026"><ele>928.2</ele><time>2026-04-25T12:29:08.001Z</time></trkpt><trkpt lat="38.18716207349652" lon="15.765982071249777"><ele>924.4000000000001</ele><time>2026-04-25T12:29:09.001Z</time></trkpt><trkpt lat="38.187153280124555" lon="15.765858891200157"><ele>920.5999999999999</ele><time>2026-04-25T12:29:10.001Z</time></trkpt><trkpt lat="38.18712209930558" lon="15.765697126499525"><ele>916.8</ele><time>2026-04-25T12:29:12.001Z</time></trkpt><trkpt lat="38.187100556926005" lon="15.765598390464532"><ele>913.0</ele><time>2026-04-25T12:29:13.001Z</time></trkpt><trkpt lat="38.18708726825564" lon="15.765503423263656"><ele>912.9999999999999</ele><time>2026-04-25T12:29:14.001Z</time></trkpt><trkpt lat="38.18707237877342" lon="15.76540982202773"><ele>913.0</ele><time>2026-04-25T12:29:15.001Z</time></trkpt><trkpt lat="38.18706044980989" lon="15.765327931388326"><ele>913.0</ele><time>2026-04-25T12:29:16.001Z</time></trkpt><trkpt lat="38.18703512653354" lon="15.765235894184476"><ele>913.0</ele><time>2026-04-25T12:29:18.001Z</time></trkpt><trkpt lat="38.18699163839179" lon="15.765153837635763"><ele>912.9999999999999</ele><time>2026-04-25T12:29:19.001Z</time></trkpt><trkpt lat="38.18694581803021" lon="15.765082679414276"><ele>913.0</ele><time>2026-04-25T12:29:20.001Z</time></trkpt><trkpt lat="38.186933039113114" lon="15.76495695660867"><ele>909.5999999999999</ele><time>2026-04-25T12:29:21.001Z</time></trkpt><trkpt lat="38.18689709130249" lon="15.764800477531905"><ele>906.1999999999999</ele><time>2026-04-25T12:29:23.001Z</time></trkpt><trkpt lat="38.186933151867485" lon="15.76467376508226"><ele>902.8</ele><time>2026-04-25T12:29:25Z</time></trkpt><trkpt lat="38.18693387184436" lon="15.764550166034065"><ele>899.4</ele><time>2026-04-25T12:29:26Z</time></trkpt><trkpt lat="38.1869507567256" lon="15.764467416403967"><ele>896.0</ele><time>2026-04-25T12:29:27Z</time></trkpt><trkpt lat="38.18695779067298" lon="15.764362728542173"><ele>893.4</ele><time>2026-04-25T12:29:28Z</time></trkpt><trkpt lat="38.18696309331041" lon="15.764266624767396"><ele>890.8</ele><time>2026-04-25T12:29:29Z</time></trkpt><trkpt lat="38.186917820390136" lon="15.764133204274486"><ele>888.1999999999999</ele><time>2026-04-25T12:29:31Z</time></trkpt><trkpt lat="38.18691456163132" lon="15.76402862093889"><ele>885.5999999999999</ele><time>2026-04-25T12:29:36Z</time></trkpt><trkpt lat="38.18685540788357" lon="15.763912516772647"><ele>883.0</ele><time>2026-04-25T12:29:38Z</time></trkpt><trkpt lat="38.186834187404145" lon="15.763792007337369"><ele>883.0</ele><time>2026-04-25T12:29:39Z</time></trkpt><trkpt lat="38.18681812758404" lon="15.763710527827643"><ele>883.0</ele><time>2026-04-25T12:29:40Z</time></trkpt><trkpt lat="38.186795377575784" lon="15.76362239217117"><ele>883.0</ele><time>2026-04-25T12:29:41Z</time></trkpt><trkpt lat="38.18677021985905" lon="15.763525735740501"><ele>883.0</ele><time>2026-04-25T12:29:42Z</time></trkpt><trkpt lat="38.186744261113745" lon="15.7634427570301"><ele>883.0</ele><time>2026-04-25T12:29:43Z</time></trkpt><trkpt lat="38.186718442107676" lon="15.763364305569354"><ele>883.0</ele><time>2026-04-25T12:29:44Z</time></trkpt><trkpt lat="38.186693472054465" lon="15.763250934312556"><ele>883.0</ele><time>2026-04-25T12:29:46Z</time></trkpt><trkpt lat="38.186765523077426" lon="15.763135590325115"><ele>880.5999999999999</ele><time>2026-04-25T12:29:48Z</time></trkpt><trkpt lat="38.186829704362324" lon="15.763036306011582"><ele>878.1999999999999</ele><time>2026-04-25T12:29:50Z</time></trkpt><trkpt lat="38.1868775894653" lon="15.762975155789656"><ele>875.8</ele><time>2026-04-25T12:29:51Z</time></trkpt><trkpt lat="38.186928376400935" lon="15.762875312198927"><ele>873.4</ele><time>2026-04-25T12:29:53Z</time></trkpt><trkpt lat="38.187026072533605" lon="15.762801501959023"><ele>871.0</ele><time>2026-04-25T12:29:55Z</time></trkpt><trkpt lat="38.18713834720072" lon="15.762804533863239"><ele>870.9999999999999</ele><time>2026-04-25T12:29:57Z</time></trkpt><trkpt lat="38.187224018768006" lon="15.762780899609863"><ele>871.0</ele><time>2026-04-25T12:29:59Z</time></trkpt><trkpt lat="38.18728757786358" lon="15.762727965910749"><ele>871.0</ele><time>2026-04-25T12:30:00Z</time></trkpt><trkpt lat="38.18734481162368" lon="15.762672942035408"><ele>871.0</ele><time>2026-04-25T12:30:01Z</time></trkpt><trkpt lat="38.18739032927345" lon="15.762611776132127"><ele>870.9999999999999</ele><time>2026-04-25T12:30:02Z</time></trkpt><trkpt lat="38.18745680600467" lon="15.76251694852408"><ele>871.0</ele><time>2026-04-25T12:30:04Z</time></trkpt><trkpt lat="38.18747140292545" lon="15.762413808555635"><ele>868.1999999999999</ele><time>2026-04-25T12:30:06Z</time></trkpt><trkpt lat="38.18742054241062" lon="15.762289406527238"><ele>865.3999999999999</ele><time>2026-04-25T12:30:08Z</time></trkpt><trkpt lat="38.187386633031196" lon="15.762214422946435"><ele>862.6</ele><time>2026-04-25T12:30:09Z</time></trkpt><trkpt lat="38.18736816146774" lon="15.762067945472015"><ele>859.8</ele><time>2026-04-25T12:30:11Z</time></trkpt><trkpt lat="38.18739747880593" lon="15.761910274391651"><ele>857.0</ele><time>2026-04-25T12:30:13Z</time></trkpt><trkpt lat="38.18734280602057" lon="15.761779612685176"><ele>857.0000000000001</ele><time>2026-04-25T12:30:15Z</time></trkpt><trkpt lat="38.18729025554318" lon="15.761722486705676"><ele>857.0</ele><time>2026-04-25T12:30:16Z</time></trkpt><trkpt lat="38.18724225146099" lon="15.761562505701491"><ele>857.0</ele><time>2026-04-25T12:30:18Z</time></trkpt><trkpt lat="38.18721681788146" lon="15.76147363725196"><ele>857.0</ele><time>2026-04-25T12:30:19Z</time></trkpt><trkpt lat="38.1871962117952" lon="15.761365264706065"><ele>857.0000000000001</ele><time>2026-04-25T12:30:21Z</time></trkpt><trkpt lat="38.18719613746006" lon="15.761285013873174"><ele>857.0</ele><time>2026-04-25T12:30:22Z</time></trkpt><trkpt lat="38.18719810723268" lon="15.761193685333998"><ele>857.0</ele><time>2026-04-25T12:30:23Z</time></trkpt><trkpt lat="38.187153815960706" lon="15.761082805040388"><ele>857.0</ele><time>2026-04-25T12:30:25Z</time></trkpt><trkpt lat="38.18708122399487" lon="15.761049950810499"><ele>857.0</ele><time>2026-04-25T12:30:27.001Z</time></trkpt><trkpt lat="38.18697629161086" lon="15.761054357121722"><ele>857.0</ele><time>2026-04-25T12:30:29.001Z</time></trkpt><trkpt lat="38.18691357731277" lon="15.761083665735367"><ele>857.0</ele><time>2026-04-25T12:30:30.001Z</time></trkpt><trkpt lat="38.18679146697397" lon="15.761103145139842"><ele>857.0000000000001</ele><time>2026-04-25T12:30:32.001Z</time></trkpt><trkpt lat="38.18666364634721" lon="15.761094534753505"><ele>857.0</ele><time>2026-04-25T12:30:34.001Z</time></trkpt><trkpt lat="38.18660070908229" lon="15.761052698569737"><ele>857.0</ele><time>2026-04-25T12:30:35.001Z</time></trkpt><trkpt lat="38.18653991268574" lon="15.761008079841016"><ele>857.0</ele><time>2026-04-25T12:30:36.001Z</time></trkpt><trkpt lat="38.1864820214672" lon="15.760955331317707"><ele>857.0000000000001</ele><time>2026-04-25T12:30:37.001Z</time></trkpt><trkpt lat="38.18643297840456" lon="15.760890120724525"><ele>857.0</ele><time>2026-04-25T12:30:38.001Z</time></trkpt><trkpt lat="38.18637478081318" lon="15.760850083670212"><ele>858.5000000000001</ele><time>2026-04-25T12:30:39.001Z</time></trkpt><trkpt lat="38.186259061041746" lon="15.760758692799385"><ele>860.0</ele><time>2026-04-25T12:30:41.001Z</time></trkpt><trkpt lat="38.18618994110586" lon="15.760738560035898"><ele>861.5</ele><time>2026-04-25T12:30:42.001Z</time></trkpt><trkpt lat="38.186116011201754" lon="15.760733731561205"><ele>863.0</ele><time>2026-04-25T12:30:43.001Z</time></trkpt><trkpt lat="38.18604057120558" lon="15.760740294129372"><ele>864.5000000000001</ele><time>2026-04-25T12:30:44.001Z</time></trkpt><trkpt lat="38.18596696088955" lon="15.76077045400477"><ele>866.0</ele><time>2026-04-25T12:30:45.001Z</time></trkpt><trkpt lat="38.18584895527273" lon="15.76080850717273"><ele>866.0</ele><time>2026-04-25T12:30:47.001Z</time></trkpt><trkpt lat="38.18569329641474" lon="15.760812595692556"><ele>865.9999999999999</ele><time>2026-04-25T12:30:50.001Z</time></trkpt><trkpt lat="38.18563034735909" lon="15.760815721875872"><ele>865.9999999999999</ele><time>2026-04-25T12:30:51.001Z</time></trkpt><trkpt lat="38.18555114384798" lon="15.76082881698023"><ele>866.0</ele><time>2026-04-25T12:30:52.001Z</time></trkpt><trkpt lat="38.18548424804625" lon="15.760772760820974"><ele>866.0</ele><time>2026-04-25T12:30:54.001Z</time></trkpt><trkpt lat="38.185424360346566" lon="15.760668228018842"><ele>861.4</ele><time>2026-04-25T12:30:56.001Z</time></trkpt><trkpt lat="38.185419301929684" lon="15.760526659675458"><ele>856.8</ele><time>2026-04-25T12:30:58.001Z</time></trkpt><trkpt lat="38.1854218561334" lon="15.760432845990955"><ele>852.1999999999999</ele><time>2026-04-25T12:30:59.001Z</time></trkpt><trkpt lat="38.18542392627148" lon="15.760264640281102"><ele>847.5999999999999</ele><time>2026-04-25T12:31:01.001Z</time></trkpt><trkpt lat="38.18544519898072" lon="15.760181370552065"><ele>843.0</ele><time>2026-04-25T12:31:02.001Z</time></trkpt><trkpt lat="38.18547226663899" lon="15.760087138363092"><ele>843.0</ele><time>2026-04-25T12:31:03.001Z</time></trkpt><trkpt lat="38.1854946389984" lon="15.759992046232227"><ele>843.0</ele><time>2026-04-25T12:31:04.001Z</time></trkpt><trkpt lat="38.185531066377" lon="15.759920826493305"><ele>843.0</ele><time>2026-04-25T12:31:05.001Z</time></trkpt><trkpt lat="38.18557848638417" lon="15.759852732587925"><ele>843.0</ele><time>2026-04-25T12:31:06.001Z</time></trkpt><trkpt lat="38.18562821771402" lon="15.759791789721728"><ele>843.0</ele><time>2026-04-25T12:31:07.001Z</time></trkpt><trkpt lat="38.185684528529244" lon="15.759686800564781"><ele>843.0</ele><time>2026-04-25T12:31:09.001Z</time></trkpt><trkpt lat="38.185644232193155" lon="15.75956123475762"><ele>843.0</ele><time>2026-04-25T12:31:11.001Z</time></trkpt><trkpt lat="38.185585069548075" lon="15.759487215230466"><ele>843.0</ele><time>2026-04-25T12:31:12.001Z</time></trkpt><trkpt lat="38.185535827655244" lon="15.759427753555661"><ele>843.0</ele><time>2026-04-25T12:31:13.001Z</time></trkpt><trkpt lat="38.185489998054216" lon="15.759257305927415"><ele>843.0</ele><time>2026-04-25T12:31:15.001Z</time></trkpt><trkpt lat="38.18547467672554" lon="15.759145104738277"><ele>843.0</ele><time>2026-04-25T12:31:16.001Z</time></trkpt><trkpt lat="38.185453425837196" lon="15.759044843827159"><ele>847.8</ele><time>2026-04-25T12:31:17.001Z</time></trkpt><trkpt lat="38.18542308475818" lon="15.75895119473437"><ele>852.5999999999999</ele><time>2026-04-25T12:31:18.001Z</time></trkpt><trkpt lat="38.18536986431715" lon="15.758888986209756"><ele>857.4000000000001</ele><time>2026-04-25T12:31:19.001Z</time></trkpt><trkpt lat="38.18530898746785" lon="15.758804369975694"><ele>862.2</ele><time>2026-04-25T12:31:20.001Z</time></trkpt><trkpt lat="38.18524417414466" lon="15.758749759061741"><ele>867.0</ele><time>2026-04-25T12:31:21.001Z</time></trkpt><trkpt lat="38.18509752425116" lon="15.758707985723516"><ele>867.0</ele><time>2026-04-25T12:31:23.001Z</time></trkpt><trkpt lat="38.18501502497669" lon="15.758699663250669"><ele>867.0</ele><time>2026-04-25T12:31:24.001Z</time></trkpt><trkpt lat="38.18493371380656" lon="15.758678840675586"><ele>867.0</ele><time>2026-04-25T12:31:25.001Z</time></trkpt><trkpt lat="38.184831882417" lon="15.75865937143799"><ele>867.0</ele><time>2026-04-25T12:31:27.001Z</time></trkpt><trkpt lat="38.184765152323266" lon="15.758617653941172"><ele>867.0</ele><time>2026-04-25T12:31:28.001Z</time></trkpt><trkpt lat="38.18470280835151" lon="15.758539332141812"><ele>867.0</ele><time>2026-04-25T12:31:30.001Z</time></trkpt><trkpt lat="38.18460914779087" lon="15.758476542574275"><ele>864.0</ele><time>2026-04-25T12:31:35Z</time></trkpt><trkpt lat="38.18452634640548" lon="15.758479086904432"><ele>861.0</ele><time>2026-04-25T12:31:36Z</time></trkpt><trkpt lat="38.184456339259775" lon="15.758523305888179"><ele>858.0</ele><time>2026-04-25T12:31:37Z</time></trkpt><trkpt lat="38.18439497114139" lon="15.758541706180678"><ele>855.0</ele><time>2026-04-25T12:31:38Z</time></trkpt><trkpt lat="38.18429283419534" lon="15.758537925331572"><ele>852.0</ele><time>2026-04-25T12:31:40Z</time></trkpt><trkpt lat="38.184219731012696" lon="15.758452126249388"><ele>849.0</ele><time>2026-04-25T12:31:42Z</time></trkpt><trkpt lat="38.18418348006253" lon="15.758309147799494"><ele>852.3333333333334</ele><time>2026-04-25T12:31:44Z</time></trkpt><trkpt lat="38.18413966472305" lon="15.758196884465093"><ele>855.6666666666667</ele><time>2026-04-25T12:31:45Z</time></trkpt><trkpt lat="38.18410061453859" lon="15.758089791226853"><ele>859.0</ele><time>2026-04-25T12:31:47Z</time></trkpt><trkpt lat="38.18404035449827" lon="15.7579787792316"><ele>862.3333333333334</ele><time>2026-04-25T12:31:49Z</time></trkpt><trkpt lat="38.18398967028713" lon="15.757929468033675"><ele>865.6666666666667</ele><time>2026-04-25T12:31:50Z</time></trkpt><trkpt lat="38.18392913003695" lon="15.75789536539956"><ele>869.0</ele><time>2026-04-25T12:31:51Z</time></trkpt><trkpt lat="38.18381963524038" lon="15.757813517767097"><ele>869.0000000000001</ele><time>2026-04-25T12:31:53Z</time></trkpt><trkpt lat="38.18374827392144" lon="15.757794467746983"><ele>869.0</ele><time>2026-04-25T12:31:54Z</time></trkpt><trkpt lat="38.18367971435053" lon="15.757787102800052"><ele>869.0</ele><time>2026-04-25T12:31:55Z</time></trkpt><trkpt lat="38.18360736647491" lon="15.757779620658319"><ele>869.0</ele><time>2026-04-25T12:31:56Z</time></trkpt><trkpt lat="38.18353099202293" lon="15.757785433407506"><ele>869.0000000000001</ele><time>2026-04-25T12:31:57Z</time></trkpt><trkpt lat="38.18346327948696" lon="15.757789073259026"><ele>869.0</ele><time>2026-04-25T12:31:58Z</time></trkpt><trkpt lat="38.18336389804318" lon="15.757799150789689"><ele>869.0000000000001</ele><time>2026-04-25T12:31:59Z</time></trkpt><trkpt lat="38.183285117857054" lon="15.757821477538071"><ele>869.0</ele><time>2026-04-25T12:32:00Z</time></trkpt><trkpt lat="38.183209859420685" lon="15.757851276757496"><ele>869.0</ele><time>2026-04-25T12:32:01Z</time></trkpt><trkpt lat="38.18313430152083" lon="15.757884098903528"><ele>869.0</ele><time>2026-04-25T12:32:02Z</time></trkpt><trkpt lat="38.18305869426743" lon="15.757916942470926"><ele>869.0000000000001</ele><time>2026-04-25T12:32:03Z</time></trkpt><trkpt lat="38.182964506754416" lon="15.75795154256067"><ele>869.0</ele><time>2026-04-25T12:32:05Z</time></trkpt><trkpt lat="38.18290018470452" lon="15.75792144582335"><ele>868.5000000000001</ele><time>2026-04-25T12:32:07Z</time></trkpt><trkpt lat="38.18290417739386" lon="15.75783338590437"><ele>868.0</ele><time>2026-04-25T12:32:10Z</time></trkpt><trkpt lat="38.18296281154836" lon="15.757799261912583"><ele>867.5</ele><time>2026-04-25T12:32:12Z</time></trkpt><trkpt lat="38.183016306532835" lon="15.757750210927206"><ele>867.0</ele><time>2026-04-25T12:32:14Z</time></trkpt><trkpt lat="38.18309204326604" lon="15.757712276740321"><ele>866.5000000000001</ele><time>2026-04-25T12:32:16Z</time></trkpt><trkpt lat="38.18318973855787" lon="15.757682158444968"><ele>866.0</ele><time>2026-04-25T12:32:18Z</time></trkpt><trkpt lat="38.183277759822055" lon="15.757609431311376"><ele>867.3333333333334</ele><time>2026-04-25T12:32:20.001Z</time></trkpt><trkpt lat="38.18335951841022" lon="15.75749168824509"><ele>868.6666666666667</ele><time>2026-04-25T12:32:22.001Z</time></trkpt><trkpt lat="38.18340187905352" lon="15.757425499431365"><ele>870.0</ele><time>2026-04-25T12:32:23.001Z</time></trkpt><trkpt lat="38.18344690230842" lon="15.757354961713375"><ele>871.3333333333333</ele><time>2026-04-25T12:32:24.001Z</time></trkpt><trkpt lat="38.18349540886305" lon="15.757287732325356"><ele>872.6666666666666</ele><time>2026-04-25T12:32:25.001Z</time></trkpt><trkpt lat="38.18354136296113" lon="15.75721443833894"><ele>874.0</ele><time>2026-04-25T12:32:26.001Z</time></trkpt><trkpt lat="38.18358466087168" lon="15.757129519289725"><ele>874.0</ele><time>2026-04-25T12:32:27.001Z</time></trkpt><trkpt lat="38.18362734490316" lon="15.757024338223284"><ele>874.0000000000001</ele><time>2026-04-25T12:32:28.001Z</time></trkpt><trkpt lat="38.18365066389574" lon="15.756947311120092"><ele>874.0000000000001</ele><time>2026-04-25T12:32:29.001Z</time></trkpt><trkpt lat="38.18367649230721" lon="15.756873680456978"><ele>874.0</ele><time>2026-04-25T12:32:30.001Z</time></trkpt><trkpt lat="38.18376318247221" lon="15.756779262588712"><ele>874.0</ele><time>2026-04-25T12:32:32.001Z</time></trkpt><trkpt lat="38.183875651050776" lon="15.756747207030838"><ele>875.2</ele><time>2026-04-25T12:32:34.001Z</time></trkpt><trkpt lat="38.18393271197612" lon="15.756709123643454"><ele>876.4000000000001</ele><time>2026-04-25T12:32:35.001Z</time></trkpt><trkpt lat="38.18404605531539" lon="15.75668420499597"><ele>877.6</ele><time>2026-04-25T12:32:37.001Z</time></trkpt><trkpt lat="38.184131640465" lon="15.756714263670132"><ele>878.8</ele><time>2026-04-25T12:32:39.001Z</time></trkpt><trkpt lat="38.1841978072548" lon="15.756733083909284"><ele>880.0</ele><time>2026-04-25T12:32:40.001Z</time></trkpt><trkpt lat="38.18429783753347" lon="15.756818537438969"><ele>883.6666666666666</ele><time>2026-04-25T12:32:42.001Z</time></trkpt><trkpt lat="38.184370909957" lon="15.756897205396495"><ele>887.3333333333333</ele><time>2026-04-25T12:32:44.001Z</time></trkpt><trkpt lat="38.18448027731764" lon="15.756931085702554"><ele>891.0</ele><time>2026-04-25T12:32:46.001Z</time></trkpt><trkpt lat="38.1845429061806" lon="15.756941007331786"><ele>894.6666666666667</ele><time>2026-04-25T12:32:47.001Z</time></trkpt><trkpt lat="38.1846175484681" lon="15.756935288390391"><ele>898.3333333333334</ele><time>2026-04-25T12:32:48.001Z</time></trkpt><trkpt lat="38.18469516925988" lon="15.756925678050491"><ele>902.0</ele><time>2026-04-25T12:32:49.001Z</time></trkpt><trkpt lat="38.18477387671899" lon="15.756910457312717"><ele>902.0000000000001</ele><time>2026-04-25T12:32:50.001Z</time></trkpt><trkpt lat="38.184844093752" lon="15.756902071411876"><ele>902.0</ele><time>2026-04-25T12:32:51.001Z</time></trkpt><trkpt lat="38.18491511624506" lon="15.756895109835312"><ele>902.0</ele><time>2026-04-25T12:32:52.001Z</time></trkpt><trkpt lat="38.18502175896791" lon="15.75688246509076"><ele>902.0</ele><time>2026-04-25T12:32:54.001Z</time></trkpt><trkpt lat="38.18508885925212" lon="15.756853752196067"><ele>902.0000000000001</ele><time>2026-04-25T12:32:55.001Z</time></trkpt><trkpt lat="38.18515229863138" lon="15.756809848249834"><ele>902.0</ele><time>2026-04-25T12:32:56.001Z</time></trkpt><trkpt lat="38.185217958263536" lon="15.756774873489467"><ele>898.7142857142857</ele><time>2026-04-25T12:32:57.001Z</time></trkpt><trkpt lat="38.18526389482153" lon="15.756694777090411"><ele>895.4285714285714</ele><time>2026-04-25T12:32:58.001Z</time></trkpt><trkpt lat="38.1853125518264" lon="15.756620963990885"><ele>892.1428571428571</ele><time>2026-04-25T12:32:59.001Z</time></trkpt><trkpt lat="38.185358022202365" lon="15.756550176019271"><ele>888.8571428571429</ele><time>2026-04-25T12:33:00.001Z</time></trkpt><trkpt lat="38.185410567722435" lon="15.756492634430158"><ele>885.5714285714287</ele><time>2026-04-25T12:33:01.001Z</time></trkpt><trkpt lat="38.185478910500905" lon="15.756456722774418"><ele>882.2857142857143</ele><time>2026-04-25T12:33:02.001Z</time></trkpt><trkpt lat="38.18554112413444" lon="15.756410817104472"><ele>879.0</ele><time>2026-04-25T12:33:03.001Z</time></trkpt><trkpt lat="38.18559603254082" lon="15.756351392700775"><ele>879.0</ele><time>2026-04-25T12:33:04.001Z</time></trkpt><trkpt lat="38.185651429136556" lon="15.756286666828768"><ele>879.0</ele><time>2026-04-25T12:33:05.001Z</time></trkpt><trkpt lat="38.18569709930016" lon="15.75620625383955"><ele>879.0</ele><time>2026-04-25T12:33:06.001Z</time></trkpt><trkpt lat="38.1857337029137" lon="15.756120462356456"><ele>879.0</ele><time>2026-04-25T12:33:07.001Z</time></trkpt><trkpt lat="38.185764329090105" lon="15.756042109317589"><ele>879.0</ele><time>2026-04-25T12:33:08.001Z</time></trkpt><trkpt lat="38.18586690268125" lon="15.75593743415753"><ele>879.0</ele><time>2026-04-25T12:33:10.001Z</time></trkpt><trkpt lat="38.18592630341104" lon="15.75586421624775"><ele>877.3333333333334</ele><time>2026-04-25T12:33:11.001Z</time></trkpt><trkpt lat="38.1859729336565" lon="15.755777156583127"><ele>875.6666666666667</ele><time>2026-04-25T12:33:13.001Z</time></trkpt><trkpt lat="38.18596341700357" lon="15.75564517773609"><ele>874.0</ele><time>2026-04-25T12:33:15.001Z</time></trkpt><trkpt lat="38.18594961207082" lon="15.755553105669055"><ele>872.3333333333334</ele><time>2026-04-25T12:33:16.001Z</time></trkpt><trkpt lat="38.1859315501398" lon="15.755460567936932"><ele>870.6666666666667</ele><time>2026-04-25T12:33:17.001Z</time></trkpt><trkpt lat="38.185915854953436" lon="15.755378008045257"><ele>869.0</ele><time>2026-04-25T12:33:18.001Z</time></trkpt><trkpt lat="38.18589324033153" lon="15.755231490734788"><ele>868.0000000000001</ele><time>2026-04-25T12:33:20.001Z</time></trkpt><trkpt lat="38.18587430916528" lon="15.755144421696436"><ele>867.0</ele><time>2026-04-25T12:33:21.001Z</time></trkpt><trkpt lat="38.18582801171539" lon="15.755069274215739"><ele>866.0</ele><time>2026-04-25T12:33:22.001Z</time></trkpt><trkpt lat="38.18578959489267" lon="15.754983437734474"><ele>865.0</ele><time>2026-04-25T12:33:23.001Z</time></trkpt><trkpt lat="38.18574010288591" lon="15.754910772246543"><ele>864.0000000000001</ele><time>2026-04-25T12:33:24.001Z</time></trkpt><trkpt lat="38.18569669892142" lon="15.754841305878744"><ele>863.0</ele><time>2026-04-25T12:33:25.001Z</time></trkpt><trkpt lat="38.18564268301349" lon="15.754723082241261"><ele>863.0</ele><time>2026-04-25T12:33:27.001Z</time></trkpt><trkpt lat="38.18565064605979" lon="15.75460682514997"><ele>863.0</ele><time>2026-04-25T12:33:29.001Z</time></trkpt><trkpt lat="38.18572301259758" lon="15.754498311956286"><ele>863.0</ele><time>2026-04-25T12:33:31.001Z</time></trkpt><trkpt lat="38.185809168137276" lon="15.754462266456066"><ele>863.0</ele><time>2026-04-25T12:33:33.001Z</time></trkpt><trkpt lat="38.185896633886344" lon="15.754440207533571"><ele>863.0</ele><time>2026-04-25T12:33:35.001Z</time></trkpt><trkpt lat="38.18594696802929" lon="15.754362255706178"><ele>862.5000000000001</ele><time>2026-04-25T12:33:37Z</time></trkpt><trkpt lat="38.18597646443711" lon="15.754247485064186"><ele>862.0</ele><time>2026-04-25T12:33:39Z</time></trkpt><trkpt lat="38.185957559735364" lon="15.754162137568294"><ele>861.5</ele><time>2026-04-25T12:33:40Z</time></trkpt><trkpt lat="38.185914969563484" lon="15.75409651718571"><ele>861.0</ele><time>2026-04-25T12:33:41Z</time></trkpt><trkpt lat="38.18589221595254" lon="15.753997022951353"><ele>860.5000000000001</ele><time>2026-04-25T12:33:42Z</time></trkpt><trkpt lat="38.18587215468115" lon="15.753916040795207"><ele>860.0</ele><time>2026-04-25T12:33:43Z</time></trkpt><trkpt lat="38.18580962691189" lon="15.753798443155665"><ele>860.0</ele><time>2026-04-25T12:33:45Z</time></trkpt><trkpt lat="38.185739910520134" lon="15.75366126317491"><ele>860.0</ele><time>2026-04-25T12:33:47Z</time></trkpt><trkpt lat="38.18570930677646" lon="15.753549045264302"><ele>860.0</ele><time>2026-04-25T12:33:49Z</time></trkpt><trkpt lat="38.185697157408626" lon="15.75346425423388"><ele>860.0</ele><time>2026-04-25T12:33:50Z</time></trkpt><trkpt lat="38.18576792938445" lon="15.753330479489621"><ele>860.0</ele><time>2026-04-25T12:33:52Z</time></trkpt><trkpt lat="38.18580777551459" lon="15.753263461013185"><ele>858.4</ele><time>2026-04-25T12:33:53Z</time></trkpt><trkpt lat="38.18586488451879" lon="15.75312865616087"><ele>856.8</ele><time>2026-04-25T12:33:55Z</time></trkpt><trkpt lat="38.18593887027608" lon="15.75300557563674"><ele>855.2</ele><time>2026-04-25T12:33:57Z</time></trkpt><trkpt lat="38.18606340976984" lon="15.75301342374547"><ele>853.6</ele><time>2026-04-25T12:33:59Z</time></trkpt><trkpt lat="38.18612731788082" lon="15.752965994613591"><ele>852.0</ele><time>2026-04-25T12:34:00Z</time></trkpt><trkpt lat="38.18619615321727" lon="15.752933432586403"><ele>852.0</ele><time>2026-04-25T12:34:01Z</time></trkpt><trkpt lat="38.18625920033589" lon="15.75289039596172"><ele>852.0</ele><time>2026-04-25T12:34:02Z</time></trkpt><trkpt lat="38.18636822322501" lon="15.752806050060755"><ele>852.0</ele><time>2026-04-25T12:34:04Z</time></trkpt><trkpt lat="38.186424857141155" lon="15.752765834770393"><ele>852.0</ele><time>2026-04-25T12:34:05Z</time></trkpt><trkpt lat="38.18648692882256" lon="15.752675657291727"><ele>852.0</ele><time>2026-04-25T12:34:07Z</time></trkpt><trkpt lat="38.18653869349498" lon="15.752570263935606"><ele>853.0</ele><time>2026-04-25T12:34:09Z</time></trkpt><trkpt lat="38.186556124450725" lon="15.752427067399331"><ele>854.0</ele><time>2026-04-25T12:34:11Z</time></trkpt><trkpt lat="38.18650427348817" lon="15.75235424419902"><ele>855.0</ele><time>2026-04-25T12:34:12Z</time></trkpt><trkpt lat="38.18646450135315" lon="15.75227897778519"><ele>856.0</ele><time>2026-04-25T12:34:13Z</time></trkpt><trkpt lat="38.18641766993657" lon="15.752196809012352"><ele>857.0</ele><time>2026-04-25T12:34:14Z</time></trkpt><trkpt lat="38.18637555644554" lon="15.75210649784579"><ele>858.0</ele><time>2026-04-25T12:34:15Z</time></trkpt><trkpt lat="38.186333053016526" lon="15.752017804822293"><ele>852.3333333333334</ele><time>2026-04-25T12:34:16.001Z</time></trkpt><trkpt lat="38.18628937675571" lon="15.75190116796142"><ele>846.6666666666667</ele><time>2026-04-25T12:34:17.001Z</time></trkpt><trkpt lat="38.186248056144834" lon="15.751804676994094"><ele>841.0</ele><time>2026-04-25T12:34:18.001Z</time></trkpt><trkpt lat="38.18620815762911" lon="15.751708357176181"><ele>835.3333333333334</ele><time>2026-04-25T12:34:19.001Z</time></trkpt><trkpt lat="38.186164020896605" lon="15.75163110488722"><ele>829.6666666666667</ele><time>2026-04-25T12:34:20.001Z</time></trkpt><trkpt lat="38.186102074882754" lon="15.751538561907559"><ele>824.0</ele><time>2026-04-25T12:34:21.001Z</time></trkpt><trkpt lat="38.186045910499416" lon="15.75142499240926"><ele>823.0</ele><time>2026-04-25T12:34:22.001Z</time></trkpt><trkpt lat="38.186008715120565" lon="15.751344345897133"><ele>822.0</ele><time>2026-04-25T12:34:23.001Z</time></trkpt><trkpt lat="38.1859723643157" lon="15.75122234223428"><ele>821.0</ele><time>2026-04-25T12:34:24.001Z</time></trkpt><trkpt lat="38.18593390420053" lon="15.75109963542209"><ele>820.0</ele><time>2026-04-25T12:34:25.001Z</time></trkpt><trkpt lat="38.18588744597749" lon="15.750986791816608"><ele>819.0</ele><time>2026-04-25T12:34:26.001Z</time></trkpt><trkpt lat="38.18584032611222" lon="15.750893151220163"><ele>822.8000000000001</ele><time>2026-04-25T12:34:27.001Z</time></trkpt><trkpt lat="38.18578611586546" lon="15.75081579553313"><ele>826.6</ele><time>2026-04-25T12:34:28.001Z</time></trkpt><trkpt lat="38.18572874059737" lon="15.75076059000018"><ele>830.4</ele><time>2026-04-25T12:34:29.001Z</time></trkpt><trkpt lat="38.18568686377009" lon="15.750675507977702"><ele>834.2</ele><time>2026-04-25T12:34:30.001Z</time></trkpt><trkpt lat="38.185632127666395" lon="15.750558513599206"><ele>838.0</ele><time>2026-04-25T12:34:32.001Z</time></trkpt><trkpt lat="38.18558078143732" lon="15.750421112330837"><ele>831.8333333333333</ele><time>2026-04-25T12:34:34.001Z</time></trkpt><trkpt lat="38.185577116824874" lon="15.750322752367367"><ele>825.6666666666666</ele><time>2026-04-25T12:34:35.001Z</time></trkpt><trkpt lat="38.185571382656796" lon="15.750224804394716"><ele>819.5</ele><time>2026-04-25T12:34:36.001Z</time></trkpt><trkpt lat="38.18556390202251" lon="15.750135875805398"><ele>813.3333333333333</ele><time>2026-04-25T12:34:37.001Z</time></trkpt><trkpt lat="38.185563842816194" lon="15.750045985598003"><ele>807.1666666666666</ele><time>2026-04-25T12:34:38.001Z</time></trkpt><trkpt lat="38.18556111600737" lon="15.749939753545585"><ele>801.0</ele><time>2026-04-25T12:34:40.001Z</time></trkpt><trkpt lat="38.1855695060527" lon="15.749834091096988"><ele>801.0</ele><time>2026-04-25T12:34:42.001Z</time></trkpt><trkpt lat="38.18559955923417" lon="15.74975499013219"><ele>801.0</ele><time>2026-04-25T12:34:44.001Z</time></trkpt><trkpt lat="38.18566789117674" lon="15.74967081754991"><ele>801.0</ele><time>2026-04-25T12:34:46.001Z</time></trkpt><trkpt lat="38.185746925592255" lon="15.749613853485698"><ele>801.0</ele><time>2026-04-25T12:34:48.001Z</time></trkpt><trkpt lat="38.18583366745855" lon="15.749547736962276"><ele>801.0</ele><time>2026-04-25T12:34:50.001Z</time></trkpt><trkpt lat="38.18592169498258" lon="15.74946751524176"><ele>803.5999999999999</ele><time>2026-04-25T12:34:52.001Z</time></trkpt><trkpt lat="38.185957179782854" lon="15.749380639502357"><ele>806.2</ele><time>2026-04-25T12:34:53.001Z</time></trkpt><trkpt lat="38.18598029805421" lon="15.749249118204444"><ele>808.8</ele><time>2026-04-25T12:34:55.001Z</time></trkpt><trkpt lat="38.1859893371978" lon="15.74912493011899"><ele>811.4000000000001</ele><time>2026-04-25T12:34:57.001Z</time></trkpt><trkpt lat="38.185996499217076" lon="15.749017322004992"><ele>814.0</ele><time>2026-04-25T12:34:58.001Z</time></trkpt><trkpt lat="38.18600422147183" lon="15.748907648879477"><ele>814.0</ele><time>2026-04-25T12:34:59.001Z</time></trkpt><trkpt lat="38.18601706749286" lon="15.748795934214431"><ele>814.0</ele><time>2026-04-25T12:35:00.001Z</time></trkpt><trkpt lat="38.18602972202979" lon="15.748687852948107"><ele>814.0</ele><time>2026-04-25T12:35:01.001Z</time></trkpt><trkpt lat="38.186047761083195" lon="15.748584039121216"><ele>814.0</ele><time>2026-04-25T12:35:02.001Z</time></trkpt><trkpt lat="38.18604177816161" lon="15.748484396019391"><ele>814.0</ele><time>2026-04-25T12:35:03.001Z</time></trkpt><trkpt lat="38.1860128078198" lon="15.74834050375697"><ele>811.6666666666666</ele><time>2026-04-25T12:35:05.001Z</time></trkpt><trkpt lat="38.18600445247455" lon="15.748218758003734"><ele>809.3333333333333</ele><time>2026-04-25T12:35:07.001Z</time></trkpt><trkpt lat="38.18602646455073" lon="15.74813445249368"><ele>807.0</ele><time>2026-04-25T12:35:08.001Z</time></trkpt><trkpt lat="38.18604925786265" lon="15.748028864046047"><ele>804.6666666666667</ele><time>2026-04-25T12:35:09.001Z</time></trkpt><trkpt lat="38.186073034079485" lon="15.747921416228172"><ele>802.3333333333334</ele><time>2026-04-25T12:35:10.001Z</time></trkpt><trkpt lat="38.1860925188245" lon="15.74782850085092"><ele>800.0</ele><time>2026-04-25T12:35:11.001Z</time></trkpt><trkpt lat="38.18611629930273" lon="15.747729154516987"><ele>798.0</ele><time>2026-04-25T12:35:12.001Z</time></trkpt><trkpt lat="38.18616302554602" lon="15.747578244874067"><ele>796.0</ele><time>2026-04-25T12:35:14.001Z</time></trkpt><trkpt lat="38.186150450040195" lon="15.747468463345548"><ele>794.0</ele><time>2026-04-25T12:35:15.001Z</time></trkpt><trkpt lat="38.18613883089951" lon="15.747340429950855"><ele>792.0</ele><time>2026-04-25T12:35:16.001Z</time></trkpt><trkpt lat="38.18611686825839" lon="15.747245428552722"><ele>790.0</ele><time>2026-04-25T12:35:17.001Z</time></trkpt><trkpt lat="38.186114411436265" lon="15.747143731093107"><ele>790.0</ele><time>2026-04-25T12:35:18.001Z</time></trkpt><trkpt lat="38.18610653288171" lon="15.747010397573893"><ele>790.0</ele><time>2026-04-25T12:35:19.001Z</time></trkpt><trkpt lat="38.186092293874005" lon="15.746886828848593"><ele>790.0</ele><time>2026-04-25T12:35:20.001Z</time></trkpt><trkpt lat="38.18607591899406" lon="15.746752759923647"><ele>790.0</ele><time>2026-04-25T12:35:21.001Z</time></trkpt><trkpt lat="38.18606609525425" lon="15.746604497649336"><ele>790.0</ele><time>2026-04-25T12:35:22.001Z</time></trkpt><trkpt lat="38.186051336159146" lon="15.746462598023722"><ele>790.4</ele><time>2026-04-25T12:35:23.001Z</time></trkpt><trkpt lat="38.186038614103694" lon="15.746315715001229"><ele>790.8</ele><time>2026-04-25T12:35:24.001Z</time></trkpt><trkpt lat="38.186026221609154" lon="15.746182096998698"><ele>791.2</ele><time>2026-04-25T12:35:25.001Z</time></trkpt><trkpt lat="38.186014956330006" lon="15.746047926584804"><ele>791.6</ele><time>2026-04-25T12:35:26.001Z</time></trkpt><trkpt lat="38.1860079087168" lon="15.745933872780698"><ele>792.0</ele><time>2026-04-25T12:35:27.001Z</time></trkpt><trkpt lat="38.185991528902015" lon="15.745812834131346"><ele>792.6666666666666</ele><time>2026-04-25T12:35:28.001Z</time></trkpt><trkpt lat="38.18598669525742" lon="15.745699977685694"><ele>793.3333333333333</ele><time>2026-04-25T12:35:29.001Z</time></trkpt><trkpt lat="38.18599643096816" lon="15.745595679817962"><ele>794.0</ele><time>2026-04-25T12:35:30.001Z</time></trkpt><trkpt lat="38.18600115285263" lon="15.745501759626384"><ele>794.6666666666666</ele><time>2026-04-25T12:35:31.001Z</time></trkpt><trkpt lat="38.186029237256555" lon="15.745368736876937"><ele>795.3333333333333</ele><time>2026-04-25T12:35:32.001Z</time></trkpt><trkpt lat="38.18598842857217" lon="15.745275583357659"><ele>796.0</ele><time>2026-04-25T12:35:33.001Z</time></trkpt><trkpt lat="38.18597342604785" lon="15.745159480302073"><ele>796.0</ele><time>2026-04-25T12:35:34.001Z</time></trkpt><trkpt lat="38.185960591244395" lon="15.745054593242225"><ele>796.0</ele><time>2026-04-25T12:35:35.001Z</time></trkpt><trkpt lat="38.18594789379454" lon="15.7449474788634"><ele>796.0</ele><time>2026-04-25T12:35:36.001Z</time></trkpt><trkpt lat="38.18594328527439" lon="15.74482898031959"><ele>796.0</ele><time>2026-04-25T12:35:37.001Z</time></trkpt><trkpt lat="38.18595247990953" lon="15.74470093537927"><ele>796.0</ele><time>2026-04-25T12:35:38.001Z</time></trkpt><trkpt lat="38.185952999717536" lon="15.744590061163581"><ele>796.0</ele><time>2026-04-25T12:35:39.001Z</time></trkpt><trkpt lat="38.18595373034871" lon="15.74447114458009"><ele>796.0</ele><time>2026-04-25T12:35:40.001Z</time></trkpt><trkpt lat="38.18594165926787" lon="15.744354498229253"><ele>796.0</ele><time>2026-04-25T12:35:41.002Z</time></trkpt><trkpt lat="38.185955240028704" lon="15.74425053443504"><ele>796.0</ele><time>2026-04-25T12:35:42.002Z</time></trkpt><trkpt lat="38.18594414395773" lon="15.744122970681138"><ele>796.0</ele><time>2026-04-25T12:35:43Z</time></trkpt><trkpt lat="38.18594811541921" lon="15.74401941452612"><ele>796.0</ele><time>2026-04-25T12:35:44Z</time></trkpt><trkpt lat="38.18594861895482" lon="15.7438957817101"><ele>796.0</ele><time>2026-04-25T12:35:45Z</time></trkpt><trkpt lat="38.18595643824244" lon="15.743754327062414"><ele>796.0</ele><time>2026-04-25T12:35:46Z</time></trkpt><trkpt lat="38.1859572857369" lon="15.743628476500795"><ele>796.0</ele><time>2026-04-25T12:35:47Z</time></trkpt><trkpt lat="38.18595355923658" lon="15.743483596228423"><ele>796.0</ele><time>2026-04-25T12:35:48Z</time></trkpt><trkpt lat="38.18596356272696" lon="15.743349428229047"><ele>794.9999999999999</ele><time>2026-04-25T12:35:49Z</time></trkpt><trkpt lat="38.185960481851225" lon="15.743231748032423"><ele>794.0</ele><time>2026-04-25T12:35:50Z</time></trkpt><trkpt lat="38.185953434572966" lon="15.743127995450529"><ele>793.0</ele><time>2026-04-25T12:35:51Z</time></trkpt><trkpt lat="38.18596702156085" lon="15.743020461273492"><ele>792.0</ele><time>2026-04-25T12:35:52Z</time></trkpt><trkpt lat="38.18596554200092" lon="15.74291968917888"><ele>790.9999999999999</ele><time>2026-04-25T12:35:53Z</time></trkpt><trkpt lat="38.18596391278306" lon="15.74280872407408"><ele>790.0</ele><time>2026-04-25T12:35:54Z</time></trkpt><trkpt lat="38.185962089620496" lon="15.74268454993309"><ele>788.2</ele><time>2026-04-25T12:35:55Z</time></trkpt><trkpt lat="38.18595036579594" lon="15.74256797087474"><ele>786.4</ele><time>2026-04-25T12:35:56Z</time></trkpt><trkpt lat="38.18595709367899" lon="15.742445670424654"><ele>784.5999999999999</ele><time>2026-04-25T12:35:57Z</time></trkpt><trkpt lat="38.1859661781338" lon="15.742325837086248"><ele>782.8</ele><time>2026-04-25T12:35:58Z</time></trkpt><trkpt lat="38.18596368242769" lon="15.742187566438357"><ele>781.0</ele><time>2026-04-25T12:35:59Z</time></trkpt><trkpt lat="38.185957808237745" lon="15.742051075576468"><ele>781.0</ele><time>2026-04-25T12:36:00Z</time></trkpt><trkpt lat="38.18595147187261" lon="15.741917280288968"><ele>781.0</ele><time>2026-04-25T12:36:01Z</time></trkpt><trkpt lat="38.18594375645834" lon="15.741776211127869"><ele>781.0</ele><time>2026-04-25T12:36:02Z</time></trkpt><trkpt lat="38.18594129634596" lon="15.741637876995517"><ele>781.0</ele><time>2026-04-25T12:36:03Z</time></trkpt><trkpt lat="38.18593530615323" lon="15.741492746889353"><ele>781.0</ele><time>2026-04-25T12:36:04Z</time></trkpt><trkpt lat="38.185931391658734" lon="15.741346462576569"><ele>780.0</ele><time>2026-04-25T12:36:05Z</time></trkpt><trkpt lat="38.18592543753416" lon="15.74120398097483"><ele>779.0</ele><time>2026-04-25T12:36:06Z</time></trkpt><trkpt lat="38.185939189743245" lon="15.741072124119563"><ele>778.0</ele><time>2026-04-25T12:36:07Z</time></trkpt><trkpt lat="38.18594801534149" lon="15.740956409182125"><ele>777.0</ele><time>2026-04-25T12:36:08Z</time></trkpt><trkpt lat="38.18595226770924" lon="15.740847535445356"><ele>776.0</ele><time>2026-04-25T12:36:09Z</time></trkpt><trkpt lat="38.18600897350211" lon="15.740784718944914"><ele>774.5999999999999</ele><time>2026-04-25T12:36:10Z</time></trkpt><trkpt lat="38.186083342228095" lon="15.740743200482683"><ele>773.2</ele><time>2026-04-25T12:36:11Z</time></trkpt><trkpt lat="38.1861782205939" lon="15.74071870890868"><ele>771.8</ele><time>2026-04-25T12:36:12Z</time></trkpt><trkpt lat="38.186268708203855" lon="15.740755111175583"><ele>770.4000000000001</ele><time>2026-04-25T12:36:13Z</time></trkpt><trkpt lat="38.18635710918131" lon="15.740821109526014"><ele>769.0</ele><time>2026-04-25T12:36:14Z</time></trkpt><trkpt lat="38.18645885071897" lon="15.74087349501612"><ele>769.25</ele><time>2026-04-25T12:36:15Z</time></trkpt><trkpt lat="38.186563985567986" lon="15.740933825007364"><ele>769.5</ele><time>2026-04-25T12:36:16Z</time></trkpt><trkpt lat="38.18667592226297" lon="15.74098545661719"><ele>769.75</ele><time>2026-04-25T12:36:17Z</time></trkpt><trkpt lat="38.18679878634956" lon="15.741037679837401"><ele>770.0</ele><time>2026-04-25T12:36:18Z</time></trkpt><trkpt lat="38.1869298738342" lon="15.741091637776595"><ele>770.25</ele><time>2026-04-25T12:36:19Z</time></trkpt><trkpt lat="38.187065567142" lon="15.741146767754454"><ele>770.5</ele><time>2026-04-25T12:36:20Z</time></trkpt><trkpt lat="38.18720388945174" lon="15.741204436719238"><ele>770.75</ele><time>2026-04-25T12:36:21Z</time></trkpt><trkpt lat="38.18734003517428" lon="15.741263620778087"><ele>771.0</ele><time>2026-04-25T12:36:22Z</time></trkpt><trkpt lat="38.187471302393185" lon="15.74132275542918"><ele>771.0</ele><time>2026-04-25T12:36:23Z</time></trkpt><trkpt lat="38.18757481460295" lon="15.741377541798022"><ele>771.0</ele><time>2026-04-25T12:36:24Z</time></trkpt><trkpt lat="38.187647410698915" lon="15.741405857525965"><ele>771.0</ele><time>2026-04-25T12:36:25Z</time></trkpt><trkpt lat="38.18772972761155" lon="15.741443188385627"><ele>771.0</ele><time>2026-04-25T12:36:26Z</time></trkpt><trkpt lat="38.18786748252217" lon="15.741512143477992"><ele>771.0</ele><time>2026-04-25T12:36:28Z</time></trkpt><trkpt lat="38.187976781840135" lon="15.741569358828851"><ele>771.0</ele><time>2026-04-25T12:36:29.001Z</time></trkpt><trkpt lat="38.18806318100706" lon="15.741659991713318"><ele>771.0</ele><time>2026-04-25T12:36:30.001Z</time></trkpt><trkpt lat="38.18814275869731" lon="15.741758191720015"><ele>771.0</ele><time>2026-04-25T12:36:31.001Z</time></trkpt><trkpt lat="38.18821592329455" lon="15.741854842773138"><ele>771.0</ele><time>2026-04-25T12:36:32.001Z</time></trkpt><trkpt lat="38.18827359631764" lon="15.741929412853928"><ele>771.0</ele><time>2026-04-25T12:36:33.001Z</time></trkpt><trkpt lat="38.18832591704241" lon="15.741976377090792"><ele>770.3333333333334</ele><time>2026-04-25T12:36:34.001Z</time></trkpt><trkpt lat="38.188425120558186" lon="15.742047873199024"><ele>769.6666666666666</ele><time>2026-04-25T12:36:36.001Z</time></trkpt><trkpt lat="38.1884958916946" lon="15.742050278861068"><ele>769.0</ele><time>2026-04-25T12:36:37.001Z</time></trkpt><trkpt lat="38.18856105238979" lon="15.741978259616834"><ele>768.3333333333333</ele><time>2026-04-25T12:36:38.001Z</time></trkpt><trkpt lat="38.18861543261514" lon="15.741903821542655"><ele>767.6666666666666</ele><time>2026-04-25T12:36:39.001Z</time></trkpt><trkpt lat="38.18860950460234" lon="15.741785771272887"><ele>767.0</ele><time>2026-04-25T12:36:40.001Z</time></trkpt><trkpt lat="38.18853265092487" lon="15.74169798838881"><ele>767.8</ele><time>2026-04-25T12:36:41.001Z</time></trkpt><trkpt lat="38.18845162103371" lon="15.741625888721433"><ele>768.6</ele><time>2026-04-25T12:36:42.001Z</time></trkpt><trkpt lat="38.18836412976968" lon="15.74153848297533"><ele>769.4</ele><time>2026-04-25T12:36:43.001Z</time></trkpt><trkpt lat="38.18828016924021" lon="15.741433024024252"><ele>770.1999999999999</ele><time>2026-04-25T12:36:44.001Z</time></trkpt><trkpt lat="38.18819149723039" lon="15.741330998624937"><ele>771.0</ele><time>2026-04-25T12:36:45.001Z</time></trkpt><trkpt lat="38.188112895828354" lon="15.741232077063493"><ele>771.0</ele><time>2026-04-25T12:36:46.001Z</time></trkpt><trkpt lat="38.18804495443198" lon="15.741128323878463"><ele>771.0</ele><time>2026-04-25T12:36:47.001Z</time></trkpt><trkpt lat="38.188029537406535" lon="15.741011681683238"><ele>771.0</ele><time>2026-04-25T12:36:48.001Z</time></trkpt><trkpt lat="38.188049250016746" lon="15.740899993134397"><ele>771.0</ele><time>2026-04-25T12:36:49.001Z</time></trkpt><trkpt lat="38.18806270249981" lon="15.740765014373574"><ele>771.0</ele><time>2026-04-25T12:36:50.001Z</time></trkpt><trkpt lat="38.188046768579916" lon="15.740631590037951"><ele>770.1999999999999</ele><time>2026-04-25T12:36:51.001Z</time></trkpt><trkpt lat="38.18800390616324" lon="15.740499367434046"><ele>769.4</ele><time>2026-04-25T12:36:52.001Z</time></trkpt><trkpt lat="38.18793731219453" lon="15.740384037654131"><ele>768.6</ele><time>2026-04-25T12:36:53.001Z</time></trkpt><trkpt lat="38.18786745996787" lon="15.74027942522742"><ele>767.8</ele><time>2026-04-25T12:36:54.001Z</time></trkpt><trkpt lat="38.18778305797363" lon="15.740190600221316"><ele>767.0</ele><time>2026-04-25T12:36:55.001Z</time></trkpt><trkpt lat="38.18767833783261" lon="15.740132559166474"><ele>764.2</ele><time>2026-04-25T12:36:56.001Z</time></trkpt><trkpt lat="38.18758377898288" lon="15.740098804856826"><ele>761.4000000000001</ele><time>2026-04-25T12:36:57.001Z</time></trkpt><trkpt lat="38.187516435409556" lon="15.740034791558177"><ele>758.5999999999999</ele><time>2026-04-25T12:36:58.001Z</time></trkpt><trkpt lat="38.18745945517733" lon="15.739958630661732"><ele>755.8</ele><time>2026-04-25T12:36:59.001Z</time></trkpt><trkpt lat="38.187433775253076" lon="15.739847732044376"><ele>753.0</ele><time>2026-04-25T12:37:00.001Z</time></trkpt><trkpt lat="38.187416530918355" lon="15.739730435792552"><ele>753.0</ele><time>2026-04-25T12:37:01.001Z</time></trkpt><trkpt lat="38.187395924921624" lon="15.739579173463675"><ele>753.0</ele><time>2026-04-25T12:37:02.001Z</time></trkpt><trkpt lat="38.18737295865912" lon="15.739435489750562"><ele>753.0</ele><time>2026-04-25T12:37:03.001Z</time></trkpt><trkpt lat="38.18731866547643" lon="15.739300306360699"><ele>753.0</ele><time>2026-04-25T12:37:04.001Z</time></trkpt><trkpt lat="38.187262452562415" lon="15.739185452747394"><ele>753.8</ele><time>2026-04-25T12:37:05.001Z</time></trkpt><trkpt lat="38.18719302505975" lon="15.739072025667655"><ele>754.5999999999999</ele><time>2026-04-25T12:37:06.001Z</time></trkpt><trkpt lat="38.18713100973813" lon="15.739010239785687"><ele>755.4000000000001</ele><time>2026-04-25T12:37:07.001Z</time></trkpt><trkpt lat="38.18707421400579" lon="15.738917462678218"><ele>756.2</ele><time>2026-04-25T12:37:08.001Z</time></trkpt><trkpt lat="38.18699751776122" lon="15.738831538765709"><ele>757.0</ele><time>2026-04-25T12:37:09.001Z</time></trkpt><trkpt lat="38.186893205919375" lon="15.738751926459372"><ele>757.0</ele><time>2026-04-25T12:37:10.001Z</time></trkpt><trkpt lat="38.18677441715313" lon="15.73868804857499"><ele>757.0</ele><time>2026-04-25T12:37:11.001Z</time></trkpt><trkpt lat="38.18666940386642" lon="15.738606460064226"><ele>757.0</ele><time>2026-04-25T12:37:12.001Z</time></trkpt><trkpt lat="38.18657350540588" lon="15.738544416700575"><ele>757.0</ele><time>2026-04-25T12:37:13.001Z</time></trkpt><trkpt lat="38.18648001803593" lon="15.738484000860689"><ele>756.0</ele><time>2026-04-25T12:37:14.001Z</time></trkpt><trkpt lat="38.18639164333699" lon="15.738449623819434"><ele>755.0</ele><time>2026-04-25T12:37:15.001Z</time></trkpt><trkpt lat="38.18635095748457" lon="15.738326406587436"><ele>754.0</ele><time>2026-04-25T12:37:16.001Z</time></trkpt><trkpt lat="38.18629870951052" lon="15.738205264268498"><ele>753.0</ele><time>2026-04-25T12:37:17.001Z</time></trkpt><trkpt lat="38.18623739012337" lon="15.738073048805553"><ele>752.0</ele><time>2026-04-25T12:37:18.001Z</time></trkpt><trkpt lat="38.18620850034045" lon="15.737939406561743"><ele>752.0</ele><time>2026-04-25T12:37:19.001Z</time></trkpt><trkpt lat="38.18617302751795" lon="15.737809616116616"><ele>752.0</ele><time>2026-04-25T12:37:20.001Z</time></trkpt><trkpt lat="38.18613249651248" lon="15.737698305501453"><ele>752.0</ele><time>2026-04-25T12:37:21.001Z</time></trkpt><trkpt lat="38.18605485960918" lon="15.737617518028342"><ele>752.0</ele><time>2026-04-25T12:37:22.001Z</time></trkpt><trkpt lat="38.1859510556488" lon="15.737567222710604"><ele>752.0</ele><time>2026-04-25T12:37:23.001Z</time></trkpt><trkpt lat="38.185836917756525" lon="15.737546648621617"><ele>746.8</ele><time>2026-04-25T12:37:24.001Z</time></trkpt><trkpt lat="38.1857198132132" lon="15.737557799531"><ele>741.6</ele><time>2026-04-25T12:37:25.001Z</time></trkpt><trkpt lat="38.18560213596645" lon="15.73756652170349"><ele>736.4</ele><time>2026-04-25T12:37:26.001Z</time></trkpt><trkpt lat="38.18549553544543" lon="15.737567572367505"><ele>731.1999999999999</ele><time>2026-04-25T12:37:27.001Z</time></trkpt><trkpt lat="38.1853985097222" lon="15.737564241437877"><ele>726.0</ele><time>2026-04-25T12:37:28.001Z</time></trkpt><trkpt lat="38.18533101180404" lon="15.737524510992824"><ele>724.6666666666666</ele><time>2026-04-25T12:37:29.001Z</time></trkpt><trkpt lat="38.18526819018465" lon="15.73748894226551"><ele>723.3333333333334</ele><time>2026-04-25T12:37:31.001Z</time></trkpt><trkpt lat="38.18524761206974" lon="15.737401851176623"><ele>722.0</ele><time>2026-04-25T12:37:34.001Z</time></trkpt><trkpt lat="38.18528693026333" lon="15.73729704317784"><ele>720.6666666666667</ele><time>2026-04-25T12:37:36.001Z</time></trkpt><trkpt lat="38.18535208957697" lon="15.73726638624148"><ele>719.3333333333334</ele><time>2026-04-25T12:37:37.001Z</time></trkpt><trkpt lat="38.18544132843041" lon="15.737256505904114"><ele>718.0</ele><time>2026-04-25T12:37:38.001Z</time></trkpt><trkpt lat="38.1855257972333" lon="15.737267838587005"><ele>718.0</ele><time>2026-04-25T12:37:39.001Z</time></trkpt><trkpt lat="38.18566078427802" lon="15.737290429199685"><ele>718.0</ele><time>2026-04-25T12:37:40.001Z</time></trkpt><trkpt lat="38.18577227841672" lon="15.737295990182886"><ele>718.0</ele><time>2026-04-25T12:37:41.001Z</time></trkpt><trkpt lat="38.185890000609426" lon="15.737301153906802"><ele>718.0</ele><time>2026-04-25T12:37:42.001Z</time></trkpt><trkpt lat="38.186008776708185" lon="15.737308240429005"><ele>720.0</ele><time>2026-04-25T12:37:43.001Z</time></trkpt><trkpt lat="38.18613128036228" lon="15.737323738615473"><ele>722.0</ele><time>2026-04-25T12:37:44.001Z</time></trkpt><trkpt lat="38.18624290438942" lon="15.737328453427905"><ele>724.0</ele><time>2026-04-25T12:37:45.001Z</time></trkpt><trkpt lat="38.1863549561391" lon="15.737334122030132"><ele>726.0</ele><time>2026-04-25T12:37:46.001Z</time></trkpt><trkpt lat="38.1864711494561" lon="15.7373084226286"><ele>724.25</ele><time>2026-04-25T12:37:47.001Z</time></trkpt><trkpt lat="38.186569639000766" lon="15.737245507513618"><ele>722.5</ele><time>2026-04-25T12:37:48.001Z</time></trkpt><trkpt lat="38.18666269581554" lon="15.73716268743804"><ele>720.75</ele><time>2026-04-25T12:37:49Z</time></trkpt><trkpt lat="38.18674924940523" lon="15.737081454148427"><ele>719.0</ele><time>2026-04-25T12:37:50Z</time></trkpt><trkpt lat="38.18685455869745" lon="15.73699173604561"><ele>719.0</ele><time>2026-04-25T12:37:51Z</time></trkpt><trkpt lat="38.18694763038348" lon="15.736897111349196"><ele>719.0</ele><time>2026-04-25T12:37:52Z</time></trkpt><trkpt lat="38.187034823966606" lon="15.73678942437892"><ele>719.0</ele><time>2026-04-25T12:37:53Z</time></trkpt><trkpt lat="38.1871171546456" lon="15.736669139638916"><ele>719.0</ele><time>2026-04-25T12:37:54Z</time></trkpt><trkpt lat="38.18720479950121" lon="15.736552515688727"><ele>716.6</ele><time>2026-04-25T12:37:55Z</time></trkpt><trkpt lat="38.18728077242643" lon="15.736433261261151"><ele>714.2</ele><time>2026-04-25T12:37:56Z</time></trkpt><trkpt lat="38.187361216738026" lon="15.736327880568306"><ele>711.8000000000001</ele><time>2026-04-25T12:37:57Z</time></trkpt><trkpt lat="38.187438106043764" lon="15.736228963363795"><ele>709.4000000000001</ele><time>2026-04-25T12:37:58Z</time></trkpt><trkpt lat="38.18751398413211" lon="15.73613894298464"><ele>707.0</ele><time>2026-04-25T12:37:59Z</time></trkpt><trkpt lat="38.187625413608814" lon="15.736106091662597"><ele>705.4000000000001</ele><time>2026-04-25T12:38:00Z</time></trkpt><trkpt lat="38.18774141555663" lon="15.736082310995705"><ele>703.8000000000001</ele><time>2026-04-25T12:38:01Z</time></trkpt><trkpt lat="38.18784886737013" lon="15.736042020474025"><ele>702.2</ele><time>2026-04-25T12:38:02Z</time></trkpt><trkpt lat="38.18795237900306" lon="15.73601830244575"><ele>700.6</ele><time>2026-04-25T12:38:03Z</time></trkpt><trkpt lat="38.18804662654742" lon="15.735992381919573"><ele>699.0</ele><time>2026-04-25T12:38:04Z</time></trkpt><trkpt lat="38.18813813315064" lon="15.735959255227186"><ele>696.4000000000001</ele><time>2026-04-25T12:38:05Z</time></trkpt><trkpt lat="38.18822579666011" lon="15.73588660180255"><ele>693.8</ele><time>2026-04-25T12:38:06Z</time></trkpt><trkpt lat="38.18830024738419" lon="15.735797167679209"><ele>691.2</ele><time>2026-04-25T12:38:07Z</time></trkpt><trkpt lat="38.188360004009354" lon="15.735666537946132"><ele>688.5999999999999</ele><time>2026-04-25T12:38:08Z</time></trkpt><trkpt lat="38.188444946764804" lon="15.735564163766615"><ele>686.0</ele><time>2026-04-25T12:38:09Z</time></trkpt><trkpt lat="38.18851873236067" lon="15.7354530210737"><ele>686.0</ele><time>2026-04-25T12:38:10Z</time></trkpt><trkpt lat="38.188596383246" lon="15.735358791161966"><ele>686.0</ele><time>2026-04-25T12:38:11Z</time></trkpt><trkpt lat="38.188670311830165" lon="15.735294076741358"><ele>686.0</ele><time>2026-04-25T12:38:12Z</time></trkpt><trkpt lat="38.18874075057293" lon="15.735242107477553"><ele>686.0</ele><time>2026-04-25T12:38:13Z</time></trkpt><trkpt lat="38.18882494278968" lon="15.735194173884828"><ele>686.0</ele><time>2026-04-25T12:38:14Z</time></trkpt><trkpt lat="38.1889021750643" lon="15.735136479860042"><ele>684.4</ele><time>2026-04-25T12:38:15Z</time></trkpt><trkpt lat="38.188966153578136" lon="15.735051763820925"><ele>682.8</ele><time>2026-04-25T12:38:16Z</time></trkpt><trkpt lat="38.18899383534603" lon="15.73491138962317"><ele>681.1999999999999</ele><time>2026-04-25T12:38:17Z</time></trkpt><trkpt lat="38.18901732946674" lon="15.734759072785167"><ele>679.5999999999999</ele><time>2026-04-25T12:38:18Z</time></trkpt><trkpt lat="38.18901786487792" lon="15.734611478490043"><ele>678.0</ele><time>2026-04-25T12:38:19Z</time></trkpt><trkpt lat="38.18900976464661" lon="15.734472367753366"><ele>673.4</ele><time>2026-04-25T12:38:20Z</time></trkpt><trkpt lat="38.18897227196706" lon="15.734344702682252"><ele>668.8</ele><time>2026-04-25T12:38:21Z</time></trkpt><trkpt lat="38.188886465257326" lon="15.73424410578251"><ele>664.2</ele><time>2026-04-25T12:38:22Z</time></trkpt><trkpt lat="38.18877423573992" lon="15.734208286394827"><ele>659.6</ele><time>2026-04-25T12:38:23Z</time></trkpt><trkpt lat="38.188667413517024" lon="15.73419302757455"><ele>655.0</ele><time>2026-04-25T12:38:24Z</time></trkpt><trkpt lat="38.18854944207203" lon="15.734232177237852"><ele>655.0</ele><time>2026-04-25T12:38:25Z</time></trkpt><trkpt lat="38.18846031010337" lon="15.734329355550884"><ele>655.0</ele><time>2026-04-25T12:38:26Z</time></trkpt><trkpt lat="38.18838584894263" lon="15.73445209530577"><ele>655.0</ele><time>2026-04-25T12:38:27Z</time></trkpt><trkpt lat="38.18831640132239" lon="15.734564423355474"><ele>655.0</ele><time>2026-04-25T12:38:28Z</time></trkpt><trkpt lat="38.18823295122097" lon="15.73471358279369"><ele>655.6</ele><time>2026-04-25T12:38:29Z</time></trkpt><trkpt lat="38.18815468531906" lon="15.73482784785134"><ele>656.2</ele><time>2026-04-25T12:38:30Z</time></trkpt><trkpt lat="38.18805906081974" lon="15.734898410759952"><ele>656.8</ele><time>2026-04-25T12:38:31Z</time></trkpt><trkpt lat="38.18797028589557" lon="15.73496389669071"><ele>657.4</ele><time>2026-04-25T12:38:32Z</time></trkpt><trkpt lat="38.187881457149345" lon="15.735060102581128"><ele>658.0</ele><time>2026-04-25T12:38:33Z</time></trkpt><trkpt lat="38.18781750021418" lon="15.735178769291547"><ele>662.5999999999999</ele><time>2026-04-25T12:38:34Z</time></trkpt><trkpt lat="38.18775912919328" lon="15.735285867752664"><ele>667.1999999999999</ele><time>2026-04-25T12:38:35Z</time></trkpt><trkpt lat="38.187684270985855" lon="15.735369080830514"><ele>671.8</ele><time>2026-04-25T12:38:36Z</time></trkpt><trkpt lat="38.18757755486663" lon="15.735419476291902"><ele>676.4</ele><time>2026-04-25T12:38:37Z</time></trkpt><trkpt lat="38.18745112455645" lon="15.735437531242509"><ele>681.0</ele><time>2026-04-25T12:38:38Z</time></trkpt><trkpt lat="38.1873388316803" lon="15.735440463121716"><ele>681.0</ele><time>2026-04-25T12:38:39Z</time></trkpt><trkpt lat="38.1872444198399" lon="15.735427601699906"><ele>681.0</ele><time>2026-04-25T12:38:40.001Z</time></trkpt><trkpt lat="38.187169703894476" lon="15.73542467920946"><ele>681.0</ele><time>2026-04-25T12:38:41.001Z</time></trkpt><trkpt lat="38.187098307028705" lon="15.73540828094256"><ele>681.0</ele><time>2026-04-25T12:38:42.001Z</time></trkpt><trkpt lat="38.18705878493366" lon="15.735328094014783"><ele>681.0</ele><time>2026-04-25T12:38:43.001Z</time></trkpt><trkpt lat="38.1870536290634" lon="15.7352284139249"><ele>681.0</ele><time>2026-04-25T12:38:44.001Z</time></trkpt><trkpt lat="38.187076668398944" lon="15.73513964504854"><ele>682.1666666666666</ele><time>2026-04-25T12:38:45.001Z</time></trkpt><trkpt lat="38.187162885118646" lon="15.735115007511215"><ele>683.3333333333334</ele><time>2026-04-25T12:38:46.001Z</time></trkpt><trkpt lat="38.18724539041188" lon="15.735107703282528"><ele>684.5</ele><time>2026-04-25T12:38:47.001Z</time></trkpt><trkpt lat="38.187316482428315" lon="15.735188860456553"><ele>685.6666666666667</ele><time>2026-04-25T12:38:48.001Z</time></trkpt><trkpt lat="38.18738645913577" lon="15.735250404718427"><ele>686.8333333333334</ele><time>2026-04-25T12:38:49.001Z</time></trkpt><trkpt lat="38.187467990925064" lon="15.735296365646853"><ele>688.0</ele><time>2026-04-25T12:38:50.001Z</time></trkpt><trkpt lat="38.18757424102148" lon="15.735274200140916"><ele>680.5</ele><time>2026-04-25T12:38:51.001Z</time></trkpt><trkpt lat="38.18767033978059" lon="15.735208124321087"><ele>673.0</ele><time>2026-04-25T12:38:52.001Z</time></trkpt><trkpt lat="38.18772020344838" lon="15.735029997557504"><ele>665.5</ele><time>2026-04-25T12:38:53.001Z</time></trkpt><trkpt lat="38.18779311210858" lon="15.73488924141266"><ele>658.0</ele><time>2026-04-25T12:38:54.001Z</time></trkpt><trkpt lat="38.187865107964015" lon="15.734761357912676"><ele>658.0</ele><time>2026-04-25T12:38:55.001Z</time></trkpt><trkpt lat="38.18795084987439" lon="15.734645587962914"><ele>658.0</ele><time>2026-04-25T12:38:56.001Z</time></trkpt><trkpt lat="38.18803419420199" lon="15.73452446394556"><ele>658.0</ele><time>2026-04-25T12:38:57.001Z</time></trkpt><trkpt lat="38.18810148449618" lon="15.734386727616863"><ele>658.0</ele><time>2026-04-25T12:38:58.001Z</time></trkpt><trkpt lat="38.18812044111636" lon="15.734213821709782"><ele>657.25</ele><time>2026-04-25T12:38:59.001Z</time></trkpt><trkpt lat="38.18817276929883" lon="15.734080753265731"><ele>656.5</ele><time>2026-04-25T12:39:00.001Z</time></trkpt><trkpt lat="38.188213538268435" lon="15.733942611148553"><ele>655.75</ele><time>2026-04-25T12:39:01.001Z</time></trkpt><trkpt lat="38.18829463259256" lon="15.733826151936757"><ele>655.0</ele><time>2026-04-25T12:39:02.001Z</time></trkpt><trkpt lat="38.18838634427812" lon="15.733735263784524"><ele>655.0</ele><time>2026-04-25T12:39:03.001Z</time></trkpt><trkpt lat="38.18848867339284" lon="15.733669387760694"><ele>655.0</ele><time>2026-04-25T12:39:04.001Z</time></trkpt><trkpt lat="38.18859587259721" lon="15.733632485987975"><ele>655.0</ele><time>2026-04-25T12:39:05.001Z</time></trkpt><trkpt lat="38.188698641845946" lon="15.733594391228348"><ele>655.0</ele><time>2026-04-25T12:39:06.001Z</time></trkpt><trkpt lat="38.188793811822755" lon="15.733530741245932"><ele>655.0</ele><time>2026-04-25T12:39:07.001Z</time></trkpt><trkpt lat="38.18886645843281" lon="15.733428203887641"><ele>652.0</ele><time>2026-04-25T12:39:08.001Z</time></trkpt><trkpt lat="38.188941580765736" lon="15.733307414430781"><ele>649.0</ele><time>2026-04-25T12:39:09.001Z</time></trkpt><trkpt lat="38.1890325989543" lon="15.733181374198674"><ele>646.0</ele><time>2026-04-25T12:39:10.001Z</time></trkpt><trkpt lat="38.18909243983918" lon="15.733115725741857"><ele>643.0</ele><time>2026-04-25T12:39:11.001Z</time></trkpt><trkpt lat="38.18918957789731" lon="15.733117897214248"><ele>640.0</ele><time>2026-04-25T12:39:12.001Z</time></trkpt><trkpt lat="38.18932559107038" lon="15.733159008626135"><ele>640.0</ele><time>2026-04-25T12:39:13.001Z</time></trkpt><trkpt lat="38.18945565200151" lon="15.733177201254463"><ele>640.0</ele><time>2026-04-25T12:39:14.001Z</time></trkpt><trkpt lat="38.189559246981524" lon="15.733208473082804"><ele>640.0</ele><time>2026-04-25T12:39:15.001Z</time></trkpt><trkpt lat="38.189659790178716" lon="15.733206804276156"><ele>640.0</ele><time>2026-04-25T12:39:16.001Z</time></trkpt><trkpt lat="38.189750287464534" lon="15.7331267713556"><ele>640.0</ele><time>2026-04-25T12:39:17.001Z</time></trkpt><trkpt lat="38.18983075848171" lon="15.73299570847259"><ele>635.5</ele><time>2026-04-25T12:39:18.001Z</time></trkpt><trkpt lat="38.18987787765837" lon="15.732830479758197"><ele>631.0</ele><time>2026-04-25T12:39:19.001Z</time></trkpt><trkpt lat="38.18989875166938" lon="15.732651413511627"><ele>626.5</ele><time>2026-04-25T12:39:20.001Z</time></trkpt><trkpt lat="38.18993370710224" lon="15.732501479421787"><ele>622.0</ele><time>2026-04-25T12:39:21.001Z</time></trkpt><trkpt lat="38.189975727597755" lon="15.73237140855278"><ele>621.75</ele><time>2026-04-25T12:39:22.001Z</time></trkpt><trkpt lat="38.19004398518832" lon="15.73225595039698"><ele>621.5</ele><time>2026-04-25T12:39:23.001Z</time></trkpt><trkpt lat="38.190154246657194" lon="15.73216351752429"><ele>621.25</ele><time>2026-04-25T12:39:24.001Z</time></trkpt><trkpt lat="38.19025339386126" lon="15.732096723186137"><ele>621.0</ele><time>2026-04-25T12:39:25.001Z</time></trkpt><trkpt lat="38.19034080128609" lon="15.732013422177891"><ele>621.0</ele><time>2026-04-25T12:39:26.001Z</time></trkpt><trkpt lat="38.190459988706294" lon="15.731941297231197"><ele>621.0</ele><time>2026-04-25T12:39:27.001Z</time></trkpt><trkpt lat="38.19059542966165" lon="15.731946674555445"><ele>621.0</ele><time>2026-04-25T12:39:29.001Z</time></trkpt><trkpt lat="38.19066575891639" lon="15.732044812439847"><ele>621.0</ele><time>2026-04-25T12:39:30.001Z</time></trkpt><trkpt lat="38.19068447441293" lon="15.732166345557495"><ele>621.0</ele><time>2026-04-25T12:39:31.001Z</time></trkpt><trkpt lat="38.19065639618099" lon="15.732279521007595"><ele>621.0</ele><time>2026-04-25T12:39:32.001Z</time></trkpt><trkpt lat="38.19060033154429" lon="15.732382770568003"><ele>621.0</ele><time>2026-04-25T12:39:33.001Z</time></trkpt><trkpt lat="38.190569863807404" lon="15.732510225144816"><ele>621.0</ele><time>2026-04-25T12:39:34.001Z</time></trkpt><trkpt lat="38.19055719378508" lon="15.732623184679627"><ele>621.0</ele><time>2026-04-25T12:39:35.001Z</time></trkpt><trkpt lat="38.190553159230646" lon="15.732732463042671"><ele>621.2</ele><time>2026-04-25T12:39:36.001Z</time></trkpt><trkpt lat="38.19055510254959" lon="15.73285538151773"><ele>621.4000000000001</ele><time>2026-04-25T12:39:37.001Z</time></trkpt><trkpt lat="38.190540753143075" lon="15.732969251237021"><ele>621.6</ele><time>2026-04-25T12:39:38.001Z</time></trkpt><trkpt lat="38.19046762157096" lon="15.733066207155847"><ele>621.8000000000001</ele><time>2026-04-25T12:39:39.001Z</time></trkpt><trkpt lat="38.190392164519864" lon="15.7331717575504"><ele>622.0</ele><time>2026-04-25T12:39:40.001Z</time></trkpt><trkpt lat="38.190302587360705" lon="15.733286582606585"><ele>622.0</ele><time>2026-04-25T12:39:41.001Z</time></trkpt><trkpt lat="38.19021787111626" lon="15.733399669455814"><ele>622.0</ele><time>2026-04-25T12:39:42.001Z</time></trkpt><trkpt lat="38.1901312589863" lon="15.73351233075869"><ele>622.0</ele><time>2026-04-25T12:39:43.001Z</time></trkpt><trkpt lat="38.190051754770224" lon="15.733610719938849"><ele>622.0</ele><time>2026-04-25T12:39:44.001Z</time></trkpt><trkpt lat="38.18999876540213" lon="15.73369713801656"><ele>622.0</ele><time>2026-04-25T12:39:45.001Z</time></trkpt><trkpt lat="38.18994522614264" lon="15.73377850793257"><ele>621.1666666666667</ele><time>2026-04-25T12:39:46.001Z</time></trkpt><trkpt lat="38.18991980965413" lon="15.733865709082298"><ele>620.3333333333334</ele><time>2026-04-25T12:39:47.001Z</time></trkpt><trkpt lat="38.18994214512875" lon="15.733954413416445"><ele>619.5</ele><time>2026-04-25T12:39:48.001Z</time></trkpt><trkpt lat="38.190031185167406" lon="15.734058125172126"><ele>618.6666666666666</ele><time>2026-04-25T12:39:49.001Z</time></trkpt><trkpt lat="38.19011929554509" lon="15.734056056388765"><ele>617.8333333333333</ele><time>2026-04-25T12:39:51.001Z</time></trkpt><trkpt lat="38.190200257647845" lon="15.733999175896358"><ele>617.0</ele><time>2026-04-25T12:39:52.001Z</time></trkpt><trkpt lat="38.19030081707149" lon="15.733867886353693"><ele>617.0</ele><time>2026-04-25T12:39:53.001Z</time></trkpt><trkpt lat="38.19037656913174" lon="15.733763347001902"><ele>617.0</ele><time>2026-04-25T12:39:54.001Z</time></trkpt><trkpt lat="38.19048642568377" lon="15.73362111193177"><ele>617.0</ele><time>2026-04-25T12:39:55Z</time></trkpt><trkpt lat="38.190585822099024" lon="15.733487567572434"><ele>617.0</ele><time>2026-04-25T12:39:56Z</time></trkpt><trkpt lat="38.19067271667064" lon="15.733343065844773"><ele>611.5</ele><time>2026-04-25T12:39:57Z</time></trkpt><trkpt lat="38.19075944437524" lon="15.733193112872742"><ele>606.0</ele><time>2026-04-25T12:39:58Z</time></trkpt><trkpt lat="38.19083835424031" lon="15.7330431639284"><ele>600.5</ele><time>2026-04-25T12:39:59Z</time></trkpt><trkpt lat="38.19092212585794" lon="15.732901283358554"><ele>595.0</ele><time>2026-04-25T12:40:00Z</time></trkpt><trkpt lat="38.19099782596753" lon="15.732755210808294"><ele>597.25</ele><time>2026-04-25T12:40:01Z</time></trkpt><trkpt lat="38.191066282419406" lon="15.732610428463284"><ele>599.5</ele><time>2026-04-25T12:40:02Z</time></trkpt><trkpt lat="38.19113333866961" lon="15.732481103476076"><ele>601.75</ele><time>2026-04-25T12:40:03Z</time></trkpt><trkpt lat="38.19116989181255" lon="15.732342705534474"><ele>604.0</ele><time>2026-04-25T12:40:04Z</time></trkpt><trkpt lat="38.1912294049217" lon="15.732203430984374"><ele>604.0</ele><time>2026-04-25T12:40:05Z</time></trkpt><trkpt lat="38.19125908901719" lon="15.732060757684797"><ele>604.0</ele><time>2026-04-25T12:40:06Z</time></trkpt><trkpt lat="38.1912427612135" lon="15.73190412286512"><ele>604.0</ele><time>2026-04-25T12:40:07Z</time></trkpt><trkpt lat="38.191164279912805" lon="15.731784915843209"><ele>604.0</ele><time>2026-04-25T12:40:08Z</time></trkpt><trkpt lat="38.19107826153295" lon="15.73168223888941"><ele>601.5</ele><time>2026-04-25T12:40:09Z</time></trkpt><trkpt lat="38.190983711611345" lon="15.731572841461622"><ele>599.0</ele><time>2026-04-25T12:40:10Z</time></trkpt><trkpt lat="38.19085751849102" lon="15.731502744663743"><ele>596.5</ele><time>2026-04-25T12:40:11Z</time></trkpt><trkpt lat="38.19072649267524" lon="15.731428841672237"><ele>594.0</ele><time>2026-04-25T12:40:12Z</time></trkpt><trkpt lat="38.19060029227903" lon="15.731365158743454"><ele>594.0</ele><time>2026-04-25T12:40:13Z</time></trkpt><trkpt lat="38.19046528573636" lon="15.731316301321039"><ele>594.0</ele><time>2026-04-25T12:40:14Z</time></trkpt><trkpt lat="38.19035421946474" lon="15.73127473860017"><ele>594.0</ele><time>2026-04-25T12:40:15Z</time></trkpt><trkpt lat="38.19022637567465" lon="15.731230302232666"><ele>594.0</ele><time>2026-04-25T12:40:16Z</time></trkpt><trkpt lat="38.19013555282401" lon="15.731219847666445"><ele>594.0</ele><time>2026-04-25T12:40:17Z</time></trkpt><trkpt lat="38.19004310901507" lon="15.731244669495808"><ele>594.0</ele><time>2026-04-25T12:40:18Z</time></trkpt><trkpt lat="38.18994341983325" lon="15.731314291081555"><ele>594.0</ele><time>2026-04-25T12:40:19Z</time></trkpt><trkpt lat="38.189843837212926" lon="15.731380068032971"><ele>594.0</ele><time>2026-04-25T12:40:20Z</time></trkpt><trkpt lat="38.189765974263445" lon="15.731458806007215"><ele>594.0</ele><time>2026-04-25T12:40:21Z</time></trkpt><trkpt lat="38.18969560191198" lon="15.731518306022052"><ele>590.3333333333334</ele><time>2026-04-25T12:40:22Z</time></trkpt><trkpt lat="38.189629816678405" lon="15.73155762952741"><ele>586.6666666666666</ele><time>2026-04-25T12:40:23Z</time></trkpt><trkpt lat="38.18956480073372" lon="15.731541618790924"><ele>583.0</ele><time>2026-04-25T12:40:24Z</time></trkpt><trkpt lat="38.18950847901367" lon="15.73148121679155"><ele>579.3333333333333</ele><time>2026-04-25T12:40:25Z</time></trkpt><trkpt lat="38.18948324655421" lon="15.731383319739615"><ele>575.6666666666666</ele><time>2026-04-25T12:40:26Z</time></trkpt><trkpt lat="38.18950771222781" lon="15.731284679752623"><ele>572.0</ele><time>2026-04-25T12:40:27Z</time></trkpt><trkpt lat="38.189584055308686" lon="15.731239117102435"><ele>572.0</ele><time>2026-04-25T12:40:28Z</time></trkpt><trkpt lat="38.189669268772604" lon="15.731227345862116"><ele>572.0</ele><time>2026-04-25T12:40:29Z</time></trkpt><trkpt lat="38.18976619673282" lon="15.73123022008071"><ele>572.0</ele><time>2026-04-25T12:40:30Z</time></trkpt><trkpt lat="38.189853518791445" lon="15.731189974763542"><ele>572.0</ele><time>2026-04-25T12:40:31Z</time></trkpt><trkpt lat="38.189923061796826" lon="15.731168994913723"><ele>572.0</ele><time>2026-04-25T12:40:32Z</time></trkpt><trkpt lat="38.19000405457215" lon="15.731070478165257"><ele>569.2</ele><time>2026-04-25T12:40:33Z</time></trkpt><trkpt lat="38.19010402900081" lon="15.73104259206863"><ele>566.4000000000001</ele><time>2026-04-25T12:40:34Z</time></trkpt><trkpt lat="38.1902237057803" lon="15.731055389286391"><ele>563.5999999999999</ele><time>2026-04-25T12:40:35Z</time></trkpt><trkpt lat="38.19029187121099" lon="15.731137442598188"><ele>560.8</ele><time>2026-04-25T12:40:36Z</time></trkpt><trkpt lat="38.19035976131035" lon="15.73118395137839"><ele>558.0</ele><time>2026-04-25T12:40:37Z</time></trkpt><trkpt lat="38.19043452473886" lon="15.73122275112327"><ele>558.0</ele><time>2026-04-25T12:40:38Z</time></trkpt><trkpt lat="38.190510342798326" lon="15.731191527809974"><ele>558.0</ele><time>2026-04-25T12:40:39Z</time></trkpt><trkpt lat="38.19056830529451" lon="15.731096422016071"><ele>558.0</ele><time>2026-04-25T12:40:40Z</time></trkpt><trkpt lat="38.19057415608302" lon="15.730991650818893"><ele>558.0</ele><time>2026-04-25T12:40:41Z</time></trkpt><trkpt lat="38.1905225737949" lon="15.730876547572581"><ele>558.0</ele><time>2026-04-25T12:40:42Z</time></trkpt><trkpt lat="38.19042322088585" lon="15.730808839357604"><ele>558.0</ele><time>2026-04-25T12:40:43Z</time></trkpt><trkpt lat="38.19030176193568" lon="15.730793199039065"><ele>558.0</ele><time>2026-04-25T12:40:44Z</time></trkpt><trkpt lat="38.19016786414686" lon="15.730785907883488"><ele>558.0</ele><time>2026-04-25T12:40:45Z</time></trkpt><trkpt lat="38.1900409198491" lon="15.730757001470227"><ele>558.0</ele><time>2026-04-25T12:40:46Z</time></trkpt><trkpt lat="38.18990861493721" lon="15.730746470845252"><ele>556.5</ele><time>2026-04-25T12:40:47Z</time></trkpt><trkpt lat="38.18977246652189" lon="15.730736512499716"><ele>555.0</ele><time>2026-04-25T12:40:48Z</time></trkpt><trkpt lat="38.18963554440244" lon="15.730747275956956"><ele>553.5</ele><time>2026-04-25T12:40:49Z</time></trkpt><trkpt lat="38.18949927620435" lon="15.730727846463205"><ele>552.0</ele><time>2026-04-25T12:40:50Z</time></trkpt><trkpt lat="38.189368857733875" lon="15.730716006739547"><ele>552.0</ele><time>2026-04-25T12:40:51Z</time></trkpt><trkpt lat="38.18924621061089" lon="15.730706422533464"><ele>552.0</ele><time>2026-04-25T12:40:52.001Z</time></trkpt><trkpt lat="38.18912819202093" lon="15.730699115324022"><ele>552.0</ele><time>2026-04-25T12:40:53.001Z</time></trkpt><trkpt lat="38.189017716158375" lon="15.730671063815672"><ele>552.0</ele><time>2026-04-25T12:40:54.001Z</time></trkpt><trkpt lat="38.188916553829166" lon="15.730608320222819"><ele>548.4</ele><time>2026-04-25T12:40:55.001Z</time></trkpt><trkpt lat="38.18884625723794" lon="15.730500623620927"><ele>544.8000000000001</ele><time>2026-04-25T12:40:56.001Z</time></trkpt><trkpt lat="38.18882737713085" lon="15.730378678771803"><ele>541.2</ele><time>2026-04-25T12:40:57.001Z</time></trkpt><trkpt lat="38.18884604350768" lon="15.730246026312969"><ele>537.6</ele><time>2026-04-25T12:40:58.001Z</time></trkpt><trkpt lat="38.18891109548625" lon="15.730131361488274"><ele>534.0</ele><time>2026-04-25T12:40:59.001Z</time></trkpt><trkpt lat="38.188966841075036" lon="15.729994860876747"><ele>536.75</ele><time>2026-04-25T12:41:00.001Z</time></trkpt><trkpt lat="38.18903417273146" lon="15.729878342783326"><ele>539.5</ele><time>2026-04-25T12:41:01.001Z</time></trkpt><trkpt lat="38.18905995933791" lon="15.729744532610665"><ele>542.25</ele><time>2026-04-25T12:41:02.001Z</time></trkpt><trkpt lat="38.18905666200569" lon="15.729603050921513"><ele>545.0</ele><time>2026-04-25T12:41:03.001Z</time></trkpt><trkpt lat="38.189066136651576" lon="15.729448060578756"><ele>546.3333333333333</ele><time>2026-04-25T12:41:04.001Z</time></trkpt><trkpt lat="38.18909435927477" lon="15.729323106036423"><ele>547.6666666666666</ele><time>2026-04-25T12:41:05.001Z</time></trkpt><trkpt lat="38.18912804609316" lon="15.729222988720517"><ele>549.0</ele><time>2026-04-25T12:41:06.001Z</time></trkpt><trkpt lat="38.18919759456967" lon="15.729168728923925"><ele>550.3333333333334</ele><time>2026-04-25T12:41:07.001Z</time></trkpt><trkpt lat="38.1892352678363" lon="15.729087681146593"><ele>551.6666666666667</ele><time>2026-04-25T12:41:08.001Z</time></trkpt><trkpt lat="38.18928269785646" lon="15.729030703379399"><ele>553.0</ele><time>2026-04-25T12:41:09.001Z</time></trkpt><trkpt lat="38.189361601008976" lon="15.728907004684917"><ele>553.0</ele><time>2026-04-25T12:41:11.001Z</time></trkpt><trkpt lat="38.18941491906981" lon="15.728859574795367"><ele>553.0</ele><time>2026-04-25T12:41:12.001Z</time></trkpt><trkpt lat="38.1894805955348" lon="15.72873499343861"><ele>553.0</ele><time>2026-04-25T12:41:14.001Z</time></trkpt><trkpt lat="38.18957136519572" lon="15.728621440922229"><ele>553.0</ele><time>2026-04-25T12:41:16.001Z</time></trkpt><trkpt lat="38.189649842321614" lon="15.72852132964607"><ele>553.0</ele><time>2026-04-25T12:41:18.001Z</time></trkpt><trkpt lat="38.189726116361825" lon="15.728487160443231"><ele>553.0</ele><time>2026-04-25T12:41:20.001Z</time></trkpt><trkpt lat="38.18965491845049" lon="15.728526901572934"><ele>553.0</ele><time>2026-04-25T12:41:27.001Z</time></trkpt><trkpt lat="38.18955910828694" lon="15.728530899431972"><ele>553.0</ele><time>2026-04-25T12:41:30.001Z</time></trkpt><trkpt lat="38.1895269035582" lon="15.728639346981577"><ele>553.0</ele><time>2026-04-25T12:41:31.001Z</time></trkpt><trkpt lat="38.18945186111335" lon="15.728756084522896"><ele>553.0</ele><time>2026-04-25T12:41:33.001Z</time></trkpt><trkpt lat="38.18940678943099" lon="15.7288220706197"><ele>553.0</ele><time>2026-04-25T12:41:34.001Z</time></trkpt><trkpt lat="38.18936087765457" lon="15.728892169446102"><ele>553.0</ele><time>2026-04-25T12:41:35.001Z</time></trkpt><trkpt lat="38.18931189607145" lon="15.728956111791781"><ele>553.0</ele><time>2026-04-25T12:41:36.001Z</time></trkpt><trkpt lat="38.18926822093345" lon="15.72902307564832"><ele>553.0</ele><time>2026-04-25T12:41:37.001Z</time></trkpt><trkpt lat="38.189217009351275" lon="15.729128573068403"><ele>553.0</ele><time>2026-04-25T12:41:39.001Z</time></trkpt><trkpt lat="38.189158863227945" lon="15.729187478899078"><ele>553.0</ele><time>2026-04-25T12:41:41.001Z</time></trkpt><trkpt lat="38.18909123454942" lon="15.7291919582122"><ele>551.8333333333334</ele><time>2026-04-25T12:41:45.001Z</time></trkpt><trkpt lat="38.188989836638605" lon="15.729165843613234"><ele>550.6666666666667</ele><time>2026-04-25T12:41:54.001Z</time></trkpt><trkpt lat="38.18891262674552" lon="15.729142005954413"><ele>549.5</ele><time>2026-04-25T12:41:55.001Z</time></trkpt><trkpt lat="38.18883667013575" lon="15.729113801186882"><ele>548.3333333333334</ele><time>2026-04-25T12:41:56.001Z</time></trkpt><trkpt lat="38.18877051316967" lon="15.729069394753319"><ele>547.1666666666666</ele><time>2026-04-25T12:41:57.001Z</time></trkpt><trkpt lat="38.188672755884326" lon="15.729032914104014"><ele>546.0</ele><time>2026-04-25T12:41:58.001Z</time></trkpt><trkpt lat="38.18857899781899" lon="15.728967689636587"><ele>546.0</ele><time>2026-04-25T12:41:59.001Z</time></trkpt><trkpt lat="38.18851073581718" lon="15.728893315917638"><ele>546.0</ele><time>2026-04-25T12:42:00.001Z</time></trkpt><trkpt lat="38.188452351241736" lon="15.728861237839984"><ele>546.0</ele><time>2026-04-25T12:42:01Z</time></trkpt><trkpt lat="38.188407953793764" lon="15.728800828740901"><ele>546.0</ele><time>2026-04-25T12:42:02Z</time></trkpt><trkpt lat="38.18836210614457" lon="15.728712231850725"><ele>546.0</ele><time>2026-04-25T12:42:03Z</time></trkpt><trkpt lat="38.188371614838644" lon="15.728599740934408"><ele>546.0</ele><time>2026-04-25T12:42:04Z</time></trkpt><trkpt lat="38.188361559287536" lon="15.72848146889077"><ele>548.5</ele><time>2026-04-25T12:42:05Z</time></trkpt><trkpt lat="38.18833066486513" lon="15.72839301756402"><ele>551.0</ele><time>2026-04-25T12:42:06Z</time></trkpt><trkpt lat="38.18830812677048" lon="15.728295312383233"><ele>553.5</ele><time>2026-04-25T12:42:07Z</time></trkpt><trkpt lat="38.18824168666411" lon="15.72822802183219"><ele>556.0</ele><time>2026-04-25T12:42:08Z</time></trkpt><trkpt lat="38.18813541799539" lon="15.728188868882219"><ele>558.5</ele><time>2026-04-25T12:42:09Z</time></trkpt><trkpt lat="38.18805578667081" lon="15.728119026981584"><ele>561.0</ele><time>2026-04-25T12:42:10Z</time></trkpt><trkpt lat="38.18798278598144" lon="15.728055421957446"><ele>555.0</ele><time>2026-04-25T12:42:11Z</time></trkpt><trkpt lat="38.187918880303585" lon="15.727956624432636"><ele>549.0</ele><time>2026-04-25T12:42:12Z</time></trkpt><trkpt lat="38.18783906399113" lon="15.727840203533324"><ele>543.0</ele><time>2026-04-25T12:42:13Z</time></trkpt><trkpt lat="38.18775456409499" lon="15.727720559124702"><ele>537.0</ele><time>2026-04-25T12:42:14Z</time></trkpt><trkpt lat="38.18767002187592" lon="15.727603348074567"><ele>537.0</ele><time>2026-04-25T12:42:15Z</time></trkpt><trkpt lat="38.1875971404584" lon="15.727501631189917"><ele>537.0</ele><time>2026-04-25T12:42:16Z</time></trkpt><trkpt lat="38.18752706047455" lon="15.72741704909405"><ele>537.0</ele><time>2026-04-25T12:42:17Z</time></trkpt><trkpt lat="38.18748795283385" lon="15.727313563554326"><ele>537.0</ele><time>2026-04-25T12:42:18Z</time></trkpt><trkpt lat="38.1874574371065" lon="15.72721556646271"><ele>537.0</ele><time>2026-04-25T12:42:19Z</time></trkpt><trkpt lat="38.18746738234456" lon="15.727080286039783"><ele>537.0</ele><time>2026-04-25T12:42:20Z</time></trkpt><trkpt lat="38.187483493168656" lon="15.726949240967656"><ele>537.0</ele><time>2026-04-25T12:42:21Z</time></trkpt><trkpt lat="38.18749249091622" lon="15.726839179210897"><ele>537.0</ele><time>2026-04-25T12:42:22Z</time></trkpt><trkpt lat="38.18747730704351" lon="15.726722971215462"><ele>537.0</ele><time>2026-04-25T12:42:23Z</time></trkpt><trkpt lat="38.187437550495275" lon="15.726596719136468"><ele>537.0</ele><time>2026-04-25T12:42:24Z</time></trkpt><trkpt lat="38.18738794430904" lon="15.72646820792294"><ele>535.8000000000001</ele><time>2026-04-25T12:42:25Z</time></trkpt><trkpt lat="38.18733533645199" lon="15.726343059395383"><ele>534.6</ele><time>2026-04-25T12:42:26Z</time></trkpt><trkpt lat="38.187283087614794" lon="15.726215883989676"><ele>533.4000000000001</ele><time>2026-04-25T12:42:27Z</time></trkpt><trkpt lat="38.187223848308655" lon="15.726100758987817"><ele>532.2</ele><time>2026-04-25T12:42:28Z</time></trkpt><trkpt lat="38.187165108195366" lon="15.72600384296239"><ele>531.0</ele><time>2026-04-25T12:42:29Z</time></trkpt><trkpt lat="38.1870993741005" lon="15.725918516528969"><ele>531.0</ele><time>2026-04-25T12:42:30Z</time></trkpt><trkpt lat="38.187037298385306" lon="15.725851053330446"><ele>531.0</ele><time>2026-04-25T12:42:31Z</time></trkpt><trkpt lat="38.18698355026219" lon="15.72579599612771"><ele>531.0</ele><time>2026-04-25T12:42:32Z</time></trkpt><trkpt lat="38.18691109384055" lon="15.725729333207841"><ele>531.0</ele><time>2026-04-25T12:42:34Z</time></trkpt><trkpt lat="38.18675497210943" lon="15.72578590607595"><ele>531.0</ele><time>2026-04-25T12:42:36Z</time></trkpt><trkpt lat="38.18670803703373" lon="15.725849410923084"><ele>531.0</ele><time>2026-04-25T12:42:37Z</time></trkpt><trkpt lat="38.186659997552404" lon="15.725904689039476"><ele>531.0</ele><time>2026-04-25T12:42:38Z</time></trkpt><trkpt lat="38.18661035162349" lon="15.725985636540969"><ele>531.0</ele><time>2026-04-25T12:42:39Z</time></trkpt><trkpt lat="38.18656628323855" lon="15.726071897829414"><ele>531.0</ele><time>2026-04-25T12:42:40Z</time></trkpt><trkpt lat="38.18649815748782" lon="15.72619206018946"><ele>531.0</ele><time>2026-04-25T12:42:42Z</time></trkpt><trkpt lat="38.18643598889024" lon="15.72622312536204"><ele>531.0</ele><time>2026-04-25T12:42:43Z</time></trkpt><trkpt lat="38.18632095695754" lon="15.726242294667474"><ele>525.8333333333334</ele><time>2026-04-25T12:42:45Z</time></trkpt><trkpt lat="38.18626388408584" lon="15.726190180940652"><ele>520.6666666666666</ele><time>2026-04-25T12:42:46Z</time></trkpt><trkpt lat="38.18623101635946" lon="15.7261006595227"><ele>515.5</ele><time>2026-04-25T12:42:47Z</time></trkpt><trkpt lat="38.18623316461358" lon="15.726000905829997"><ele>510.3333333333333</ele><time>2026-04-25T12:42:48Z</time></trkpt><trkpt lat="38.18621959360231" lon="15.725917973102074"><ele>505.16666666666663</ele><time>2026-04-25T12:42:49Z</time></trkpt><trkpt lat="38.186235777227324" lon="15.725813346793784"><ele>500.0</ele><time>2026-04-25T12:42:50Z</time></trkpt><trkpt lat="38.18626750983712" lon="15.725696492007144"><ele>500.0</ele><time>2026-04-25T12:42:51Z</time></trkpt><trkpt lat="38.186298703488866" lon="15.725576449825109"><ele>500.0</ele><time>2026-04-25T12:42:52Z</time></trkpt><trkpt lat="38.18631485693025" lon="15.725451947766725"><ele>500.0</ele><time>2026-04-25T12:42:53Z</time></trkpt><trkpt lat="38.18632277805471" lon="15.72532228069711"><ele>500.0</ele><time>2026-04-25T12:42:54Z</time></trkpt><trkpt lat="38.18633663507634" lon="15.725195388303383"><ele>500.0</ele><time>2026-04-25T12:42:55Z</time></trkpt><trkpt lat="38.18636112842212" lon="15.725068737210208"><ele>499.25</ele><time>2026-04-25T12:42:56Z</time></trkpt><trkpt lat="38.18640247397348" lon="15.724939470173522"><ele>498.5</ele><time>2026-04-25T12:42:57.001Z</time></trkpt><trkpt lat="38.186460236434286" lon="15.724814340484166"><ele>497.75</ele><time>2026-04-25T12:42:58.001Z</time></trkpt><trkpt lat="38.18653702574492" lon="15.724699339088843"><ele>497.0</ele><time>2026-04-25T12:42:59.001Z</time></trkpt><trkpt lat="38.186608080670524" lon="15.724585524305027"><ele>498.8</ele><time>2026-04-25T12:43:00.001Z</time></trkpt><trkpt lat="38.18667721750896" lon="15.724475253098975"><ele>500.6</ele><time>2026-04-25T12:43:01.001Z</time></trkpt><trkpt lat="38.186733994734055" lon="15.724356107261254"><ele>502.40000000000003</ele><time>2026-04-25T12:43:02.001Z</time></trkpt><trkpt lat="38.186765356979286" lon="15.724218716022632"><ele>504.20000000000005</ele><time>2026-04-25T12:43:03.001Z</time></trkpt><trkpt lat="38.18680822543874" lon="15.72410472928439"><ele>506.0</ele><time>2026-04-25T12:43:04.001Z</time></trkpt><trkpt lat="38.18685387541966" lon="15.723991937154546"><ele>506.0</ele><time>2026-04-25T12:43:05.001Z</time></trkpt><trkpt lat="38.18690890092576" lon="15.723871011126928"><ele>506.0</ele><time>2026-04-25T12:43:06.001Z</time></trkpt><trkpt lat="38.18698429298281" lon="15.723782000890957"><ele>506.0</ele><time>2026-04-25T12:43:07.001Z</time></trkpt><trkpt lat="38.187056331115556" lon="15.723702553625953"><ele>506.0</ele><time>2026-04-25T12:43:08.001Z</time></trkpt><trkpt lat="38.18712074441715" lon="15.723624279216233"><ele>506.0</ele><time>2026-04-25T12:43:09.001Z</time></trkpt><trkpt lat="38.18717024780091" lon="15.723551502395479"><ele>501.0</ele><time>2026-04-25T12:43:10.001Z</time></trkpt><trkpt lat="38.18720805463015" lon="15.723469114915652"><ele>496.0</ele><time>2026-04-25T12:43:11.001Z</time></trkpt><trkpt lat="38.187237248927445" lon="15.723337560077596"><ele>491.0</ele><time>2026-04-25T12:43:13.001Z</time></trkpt><trkpt lat="38.18719160648271" lon="15.723168882633093"><ele>486.0</ele><time>2026-04-25T12:43:14.001Z</time></trkpt><trkpt lat="38.187014492565865" lon="15.723163642448402"><ele>486.0</ele><time>2026-04-25T12:43:15.001Z</time></trkpt><trkpt lat="38.18697220028198" lon="15.72335460882628"><ele>486.0</ele><time>2026-04-25T12:43:16.001Z</time></trkpt><trkpt lat="38.18691087528235" lon="15.72343069597747"><ele>486.0</ele><time>2026-04-25T12:43:17.001Z</time></trkpt><trkpt lat="38.18695780089525" lon="15.723355001565036"><ele>486.0</ele><time>2026-04-25T12:43:18.001Z</time></trkpt><trkpt lat="38.18690251106377" lon="15.72346441006069"><ele>486.0</ele><time>2026-04-25T12:43:19.001Z</time></trkpt><trkpt lat="38.18682949801927" lon="15.723569834706417"><ele>486.8</ele><time>2026-04-25T12:43:20.001Z</time></trkpt><trkpt lat="38.18676347661355" lon="15.723657326622668"><ele>487.6</ele><time>2026-04-25T12:43:21.001Z</time></trkpt><trkpt lat="38.186684433148784" lon="15.7237315262992"><ele>488.4</ele><time>2026-04-25T12:43:22.001Z</time></trkpt><trkpt lat="38.186630780333374" lon="15.723803184429672"><ele>489.2</ele><time>2026-04-25T12:43:23.001Z</time></trkpt><trkpt lat="38.18652710980001" lon="15.72387803775561"><ele>490.0</ele><time>2026-04-25T12:43:25.001Z</time></trkpt><trkpt lat="38.18646854290963" lon="15.723823835337093"><ele>490.0</ele><time>2026-04-25T12:43:26.001Z</time></trkpt><trkpt lat="38.18636127865058" lon="15.723781111418692"><ele>490.0</ele><time>2026-04-25T12:43:28.001Z</time></trkpt><trkpt lat="38.18630600046942" lon="15.723741745756154"><ele>490.0</ele><time>2026-04-25T12:43:31.001Z</time></trkpt><trkpt lat="38.18635117543647" lon="15.723630327566722"><ele>490.0</ele><time>2026-04-25T12:43:33.001Z</time></trkpt><trkpt lat="38.18636555092741" lon="15.723521142526675"><ele>490.0</ele><time>2026-04-25T12:43:34.001Z</time></trkpt><trkpt lat="38.18639504622634" lon="15.723406436976067"><ele>489.2</ele><time>2026-04-25T12:43:35.001Z</time></trkpt><trkpt lat="38.18642686390575" lon="15.723297502913963"><ele>488.4</ele><time>2026-04-25T12:43:36.001Z</time></trkpt><trkpt lat="38.18648742965808" lon="15.72319351442468"><ele>487.6</ele><time>2026-04-25T12:43:37.001Z</time></trkpt><trkpt lat="38.18654899911664" lon="15.723104064750654"><ele>486.8</ele><time>2026-04-25T12:43:38.001Z</time></trkpt><trkpt lat="38.186641769052784" lon="15.723109241516072"><ele>486.0</ele><time>2026-04-25T12:43:39.001Z</time></trkpt><trkpt lat="38.18675259305124" lon="15.723092487995297"><ele>486.0</ele><time>2026-04-25T12:43:40.001Z</time></trkpt><trkpt lat="38.18690293780485" lon="15.72305077206089"><ele>486.0</ele><time>2026-04-25T12:43:41.001Z</time></trkpt><trkpt lat="38.18703099310119" lon="15.723045262693299"><ele>486.0</ele><time>2026-04-25T12:43:42.001Z</time></trkpt><trkpt lat="38.18711311174002" lon="15.723036002170796"><ele>486.0</ele><time>2026-04-25T12:43:43.001Z</time></trkpt><trkpt lat="38.18721203980563" lon="15.723018620326364"><ele>486.0</ele><time>2026-04-25T12:43:44.001Z</time></trkpt><trkpt lat="38.18728436362036" lon="15.723005912899545"><ele>486.0</ele><time>2026-04-25T12:43:45.001Z</time></trkpt><trkpt lat="38.18735620596852" lon="15.722980660955617"><ele>486.0</ele><time>2026-04-25T12:43:47.001Z</time></trkpt><trkpt lat="38.187451298828044" lon="15.722963118388973"><ele>486.0</ele><time>2026-04-25T12:43:49.001Z</time></trkpt><trkpt lat="38.18737264237541" lon="15.72298798685641"><ele>486.0</ele><time>2026-04-25T12:43:54.001Z</time></trkpt><trkpt lat="38.187252046243024" lon="15.722999487210247"><ele>486.0</ele><time>2026-04-25T12:43:56.001Z</time></trkpt><trkpt lat="38.187167745809354" lon="15.723012655477833"><ele>486.0</ele><time>2026-04-25T12:43:57.001Z</time></trkpt><trkpt lat="38.18708931353211" lon="15.7230300046088"><ele>486.0</ele><time>2026-04-25T12:43:58.001Z</time></trkpt><trkpt lat="38.187004480617276" lon="15.723045339006278"><ele>486.0</ele><time>2026-04-25T12:43:59.001Z</time></trkpt><trkpt lat="38.18691728257056" lon="15.723055913883766"><ele>486.0</ele><time>2026-04-25T12:44:00.001Z</time></trkpt><trkpt lat="38.1868241295281" lon="15.723064103843383"><ele>486.0</ele><time>2026-04-25T12:44:01.001Z</time></trkpt><trkpt lat="38.18673473278487" lon="15.72307119376458"><ele>486.0</ele><time>2026-04-25T12:44:02.001Z</time></trkpt><trkpt lat="38.186649150359706" lon="15.72308383033229"><ele>486.0</ele><time>2026-04-25T12:44:03.001Z</time></trkpt><trkpt lat="38.18657998447998" lon="15.723092543458817"><ele>486.0</ele><time>2026-04-25T12:44:04.001Z</time></trkpt><trkpt lat="38.186516443899045" lon="15.723110938270926"><ele>486.0</ele><time>2026-04-25T12:44:05.001Z</time></trkpt><trkpt lat="38.18645686892044" lon="15.723158133383182"><ele>486.0</ele><time>2026-04-25T12:44:06.001Z</time></trkpt><trkpt lat="38.186410863042326" lon="15.723226361537286"><ele>486.0</ele><time>2026-04-25T12:44:07Z</time></trkpt><trkpt lat="38.18637837632655" lon="15.723308631463064"><ele>486.0</ele><time>2026-04-25T12:44:08Z</time></trkpt><trkpt lat="38.18635578788228" lon="15.723396504950076"><ele>486.0</ele><time>2026-04-25T12:44:09Z</time></trkpt><trkpt lat="38.186341971840015" lon="15.723474703225483"><ele>486.6666666666667</ele><time>2026-04-25T12:44:10Z</time></trkpt><trkpt lat="38.18630743420905" lon="15.723599957197832"><ele>487.33333333333337</ele><time>2026-04-25T12:44:12Z</time></trkpt><trkpt lat="38.186280500822505" lon="15.723693244406235"><ele>488.0</ele><time>2026-04-25T12:44:14Z</time></trkpt><trkpt lat="38.18624708577572" lon="15.723771944489243"><ele>488.6666666666667</ele><time>2026-04-25T12:44:17Z</time></trkpt><trkpt lat="38.18619974973308" lon="15.72385590803762"><ele>489.33333333333337</ele><time>2026-04-25T12:44:20Z</time></trkpt><trkpt lat="38.18614282674155" lon="15.723934189247275"><ele>490.0</ele><time>2026-04-25T12:44:22Z</time></trkpt><trkpt lat="38.18609749213516" lon="15.724006656152921"><ele>490.0</ele><time>2026-04-25T12:44:24Z</time></trkpt><trkpt lat="38.18611658874647" lon="15.72388816075799"><ele>490.0</ele><time>2026-04-25T12:44:31Z</time></trkpt><trkpt lat="38.18619929047307" lon="15.723807611909573"><ele>490.0</ele><time>2026-04-25T12:44:33Z</time></trkpt><trkpt lat="38.18625846003078" lon="15.723697654034751"><ele>490.0</ele><time>2026-04-25T12:44:35Z</time></trkpt><trkpt lat="38.186303584239276" lon="15.723548236963806"><ele>490.0</ele><time>2026-04-25T12:44:37Z</time></trkpt><trkpt lat="38.186291294364054" lon="15.723462121719981"><ele>489.00000000000006</ele><time>2026-04-25T12:44:38Z</time></trkpt><trkpt lat="38.186245376030556" lon="15.723377642265147"><ele>488.0</ele><time>2026-04-25T12:44:39Z</time></trkpt><trkpt lat="38.18620524454433" lon="15.723282208202757"><ele>487.0</ele><time>2026-04-25T12:44:40Z</time></trkpt><trkpt lat="38.186173047270415" lon="15.723203025694927"><ele>486.0</ele><time>2026-04-25T12:44:41Z</time></trkpt><trkpt lat="38.18613048771588" lon="15.723093234371124"><ele>485.00000000000006</ele><time>2026-04-25T12:44:42Z</time></trkpt><trkpt lat="38.18608015040513" lon="15.722997777993262"><ele>484.0</ele><time>2026-04-25T12:44:43Z</time></trkpt><trkpt lat="38.1860633423865" lon="15.722900901868"><ele>484.0</ele><time>2026-04-25T12:44:44Z</time></trkpt><trkpt lat="38.186064737287175" lon="15.722819333169152"><ele>484.0</ele><time>2026-04-25T12:44:45Z</time></trkpt><trkpt lat="38.186112955127875" lon="15.722741348187029"><ele>484.0</ele><time>2026-04-25T12:44:46Z</time></trkpt><trkpt lat="38.18616864643687" lon="15.7226451479385"><ele>484.0</ele><time>2026-04-25T12:44:47Z</time></trkpt><trkpt lat="38.18623454598679" lon="15.722535294322029"><ele>484.0</ele><time>2026-04-25T12:44:48Z</time></trkpt><trkpt lat="38.18631397686821" lon="15.722409938562315"><ele>482.0</ele><time>2026-04-25T12:44:49Z</time></trkpt><trkpt lat="38.1863993996144" lon="15.722277984521561"><ele>480.0</ele><time>2026-04-25T12:44:50Z</time></trkpt><trkpt lat="38.18649220034832" lon="15.722139308245495"><ele>478.0</ele><time>2026-04-25T12:44:51Z</time></trkpt><trkpt lat="38.186590064098226" lon="15.721991575255776"><ele>476.0</ele><time>2026-04-25T12:44:52Z</time></trkpt><trkpt lat="38.186685439511805" lon="15.72184517740955"><ele>476.0</ele><time>2026-04-25T12:44:53Z</time></trkpt><trkpt lat="38.18676925833234" lon="15.72171029552721"><ele>476.0</ele><time>2026-04-25T12:44:54Z</time></trkpt><trkpt lat="38.18684718594883" lon="15.72158126151802"><ele>476.0</ele><time>2026-04-25T12:44:55Z</time></trkpt><trkpt lat="38.18692037080787" lon="15.721465294557202"><ele>476.0</ele><time>2026-04-25T12:44:56Z</time></trkpt><trkpt lat="38.18698937586948" lon="15.721347417482452"><ele>476.0</ele><time>2026-04-25T12:44:57Z</time></trkpt><trkpt lat="38.18706099632524" lon="15.72122773559748"><ele>476.0</ele><time>2026-04-25T12:44:58Z</time></trkpt><trkpt lat="38.187126285148736" lon="15.721102494564452"><ele>476.0</ele><time>2026-04-25T12:44:59Z</time></trkpt><trkpt lat="38.18717938737899" lon="15.720956633140496"><ele>476.0</ele><time>2026-04-25T12:45:00Z</time></trkpt><trkpt lat="38.18721300216731" lon="15.720800788860513"><ele>478.75</ele><time>2026-04-25T12:45:01Z</time></trkpt><trkpt lat="38.18722497810863" lon="15.720642757642242"><ele>481.5</ele><time>2026-04-25T12:45:02Z</time></trkpt><trkpt lat="38.18723059248778" lon="15.720495679604268"><ele>484.25</ele><time>2026-04-25T12:45:03Z</time></trkpt><trkpt lat="38.18721937337482" lon="15.720354224457774"><ele>487.0</ele><time>2026-04-25T12:45:04Z</time></trkpt><trkpt lat="38.18719389069814" lon="15.720214314588786"><ele>480.0</ele><time>2026-04-25T12:45:05Z</time></trkpt><trkpt lat="38.18715871161227" lon="15.720069274861192"><ele>473.0</ele><time>2026-04-25T12:45:06Z</time></trkpt><trkpt lat="38.1871098316176" lon="15.719928655888127"><ele>466.0</ele><time>2026-04-25T12:45:07Z</time></trkpt><trkpt lat="38.18704136401857" lon="15.719805098491264"><ele>459.0</ele><time>2026-04-25T12:45:08Z</time></trkpt><trkpt lat="38.1869445074703" lon="15.719700696845612"><ele>459.0</ele><time>2026-04-25T12:45:09Z</time></trkpt><trkpt lat="38.18684724530812" lon="15.719610949971022"><ele>459.0</ele><time>2026-04-25T12:45:10Z</time></trkpt><trkpt lat="38.18675738458734" lon="15.719538031777176"><ele>459.0</ele><time>2026-04-25T12:45:11Z</time></trkpt><trkpt lat="38.186672099026566" lon="15.719482385532412"><ele>459.0</ele><time>2026-04-25T12:45:12Z</time></trkpt><trkpt lat="38.18656371572206" lon="15.719511793995908"><ele>459.0</ele><time>2026-04-25T12:45:13Z</time></trkpt><trkpt lat="38.18645488924453" lon="15.719535146153941"><ele>456.5</ele><time>2026-04-25T12:45:14Z</time></trkpt><trkpt lat="38.186322760917555" lon="15.719542058588658"><ele>454.0</ele><time>2026-04-25T12:45:15Z</time></trkpt><trkpt lat="38.186200873571536" lon="15.719560370907168"><ele>451.5</ele><time>2026-04-25T12:45:16Z</time></trkpt><trkpt lat="38.18607961704921" lon="15.719586475517854"><ele>449.0</ele><time>2026-04-25T12:45:17Z</time></trkpt><trkpt lat="38.185981702957186" lon="15.719603278456109"><ele>449.0</ele><time>2026-04-25T12:45:18.001Z</time></trkpt><trkpt lat="38.18588654213699" lon="15.71962553369068"><ele>449.0</ele><time>2026-04-25T12:45:19.001Z</time></trkpt><trkpt lat="38.185774956097134" lon="15.71964356602621"><ele>449.0</ele><time>2026-04-25T12:45:20.001Z</time></trkpt><trkpt lat="38.18568186654266" lon="15.7197626356291"><ele>449.0</ele><time>2026-04-25T12:45:21.001Z</time></trkpt><trkpt lat="38.18553706111795" lon="15.719886464226391"><ele>444.0</ele><time>2026-04-25T12:45:22.001Z</time></trkpt><trkpt lat="38.18541878240004" lon="15.71993628682701"><ele>439.0</ele><time>2026-04-25T12:45:23.001Z</time></trkpt><trkpt lat="38.185349693415986" lon="15.719960030919905"><ele>434.0</ele><time>2026-04-25T12:45:24.001Z</time></trkpt><trkpt lat="38.18523115190491" lon="15.719994242577457"><ele>429.0</ele><time>2026-04-25T12:45:25.001Z</time></trkpt><trkpt lat="38.1850976491085" lon="15.720032998332288"><ele>429.0</ele><time>2026-04-25T12:45:26.001Z</time></trkpt><trkpt lat="38.184978682984614" lon="15.720079973448447"><ele>429.0</ele><time>2026-04-25T12:45:27.001Z</time></trkpt><trkpt lat="38.18485281642571" lon="15.720099596928081"><ele>429.0</ele><time>2026-04-25T12:45:28.001Z</time></trkpt><trkpt lat="38.18473482408612" lon="15.720088628378143"><ele>429.0</ele><time>2026-04-25T12:45:29.001Z</time></trkpt><trkpt lat="38.184607748276065" lon="15.720061748219337"><ele>429.0</ele><time>2026-04-25T12:45:30.001Z</time></trkpt><trkpt lat="38.18448256574086" lon="15.720007491719489"><ele>429.0</ele><time>2026-04-25T12:45:31.001Z</time></trkpt><trkpt lat="38.18436233300067" lon="15.719988505019375"><ele>429.0</ele><time>2026-04-25T12:45:32.001Z</time></trkpt><trkpt lat="38.184270401120095" lon="15.719947922583781"><ele>429.0</ele><time>2026-04-25T12:45:33.001Z</time></trkpt><trkpt lat="38.18420609216267" lon="15.719927561309325"><ele>429.0</ele><time>2026-04-25T12:45:34.001Z</time></trkpt><trkpt lat="38.18419020859778" lon="15.719819591511246"><ele>429.0</ele><time>2026-04-25T12:45:36.001Z</time></trkpt><trkpt lat="38.18429022923851" lon="15.719800649249912"><ele>429.0</ele><time>2026-04-25T12:45:38.001Z</time></trkpt><trkpt lat="38.18438175096044" lon="15.719830048565134"><ele>429.0</ele><time>2026-04-25T12:45:39.001Z</time></trkpt><trkpt lat="38.18447403909374" lon="15.71985078796227"><ele>429.0</ele><time>2026-04-25T12:45:40.001Z</time></trkpt><trkpt lat="38.184585745100534" lon="15.719842053049454"><ele>429.0</ele><time>2026-04-25T12:45:41.001Z</time></trkpt><trkpt lat="38.18471072250228" lon="15.719832297893158"><ele>429.0</ele><time>2026-04-25T12:45:42.001Z</time></trkpt><trkpt lat="38.18483646882331" lon="15.719818553544966"><ele>429.0</ele><time>2026-04-25T12:45:43.001Z</time></trkpt><trkpt lat="38.18495192931761" lon="15.719786075737783"><ele>429.0</ele><time>2026-04-25T12:45:44.001Z</time></trkpt><trkpt lat="38.18505214445433" lon="15.7197567869381"><ele>429.0</ele><time>2026-04-25T12:45:45.001Z</time></trkpt><trkpt lat="38.18517798337333" lon="15.719722443698892"><ele>429.0</ele><time>2026-04-25T12:45:46.001Z</time></trkpt><trkpt lat="38.18530250202768" lon="15.719678600527175"><ele>429.0</ele><time>2026-04-25T12:45:47.001Z</time></trkpt><trkpt lat="38.18540180064205" lon="15.719602652973682"><ele>429.0</ele><time>2026-04-25T12:45:48.001Z</time></trkpt><trkpt lat="38.18548392433682" lon="15.719449781984991"><ele>429.0</ele><time>2026-04-25T12:45:49.001Z</time></trkpt><trkpt lat="38.185535863709724" lon="15.71932126688955"><ele>423.25</ele><time>2026-04-25T12:45:50.001Z</time></trkpt><trkpt lat="38.185600585550446" lon="15.71922691136492"><ele>417.5</ele><time>2026-04-25T12:45:51.001Z</time></trkpt><trkpt lat="38.18569556961364" lon="15.719141396390661"><ele>411.75</ele><time>2026-04-25T12:45:52.001Z</time></trkpt><trkpt lat="38.18581575633733" lon="15.719089708399556"><ele>406.0</ele><time>2026-04-25T12:45:53.001Z</time></trkpt><trkpt lat="38.18596114186044" lon="15.719000947573154"><ele>406.0</ele><time>2026-04-25T12:45:54.001Z</time></trkpt><trkpt lat="38.18610313098142" lon="15.718908974511363"><ele>406.0</ele><time>2026-04-25T12:45:55.001Z</time></trkpt><trkpt lat="38.186202404640596" lon="15.718845805452439"><ele>406.0</ele><time>2026-04-25T12:45:56.001Z</time></trkpt><trkpt lat="38.186353286638386" lon="15.718758264917511"><ele>406.0</ele><time>2026-04-25T12:45:57.001Z</time></trkpt><trkpt lat="38.18645537111689" lon="15.718686823535839"><ele>408.0</ele><time>2026-04-25T12:45:58.001Z</time></trkpt><trkpt lat="38.18655073846913" lon="15.718597047816173"><ele>410.0</ele><time>2026-04-25T12:45:59.001Z</time></trkpt><trkpt lat="38.18657502593794" lon="15.71841712130008"><ele>412.0</ele><time>2026-04-25T12:46:00.001Z</time></trkpt><trkpt lat="38.186578400382096" lon="15.718274860280593"><ele>414.0</ele><time>2026-04-25T12:46:01.001Z</time></trkpt><trkpt lat="38.186570012630966" lon="15.718133118258246"><ele>407.25</ele><time>2026-04-25T12:46:02.001Z</time></trkpt><trkpt lat="38.18658424260113" lon="15.717989707204355"><ele>400.5</ele><time>2026-04-25T12:46:03.001Z</time></trkpt><trkpt lat="38.18663163501831" lon="15.71785031224924"><ele>393.75</ele><time>2026-04-25T12:46:04.001Z</time></trkpt><trkpt lat="38.186684440938464" lon="15.717646426129543"><ele>387.0</ele><time>2026-04-25T12:46:05.001Z</time></trkpt><trkpt lat="38.18670991887802" lon="15.717458051574807"><ele>382.6666666666667</ele><time>2026-04-25T12:46:06.001Z</time></trkpt><trkpt lat="38.18676340107881" lon="15.717256305639593"><ele>378.33333333333337</ele><time>2026-04-25T12:46:07.001Z</time></trkpt><trkpt lat="38.18680123447251" lon="15.717033585612777"><ele>374.0</ele><time>2026-04-25T12:46:08.001Z</time></trkpt><trkpt lat="38.18682808431345" lon="15.716840199718147"><ele>373.0</ele><time>2026-04-25T12:46:09.001Z</time></trkpt><trkpt lat="38.186868556590504" lon="15.716666703388995"><ele>372.0</ele><time>2026-04-25T12:46:10.001Z</time></trkpt><trkpt lat="38.18689461569912" lon="15.716486331237201"><ele>371.0</ele><time>2026-04-25T12:46:11.001Z</time></trkpt><trkpt lat="38.18689375000345" lon="15.716285094890154"><ele>370.0</ele><time>2026-04-25T12:46:12.001Z</time></trkpt><trkpt lat="38.18689482812925" lon="15.71608874583959"><ele>370.66666666666663</ele><time>2026-04-25T12:46:12.999Z</time></trkpt><trkpt lat="38.18691059392234" lon="15.71588833847948"><ele>371.3333333333333</ele><time>2026-04-25T12:46:13.999Z</time></trkpt><trkpt lat="38.18694267813712" lon="15.715700222951682"><ele>372.0</ele><time>2026-04-25T12:46:14.999Z</time></trkpt><trkpt lat="38.18697034091771" lon="15.715490614251628"><ele>372.0</ele><time>2026-04-25T12:46:15.999Z</time></trkpt><trkpt lat="38.18698165012878" lon="15.715261283277407"><ele>372.0</ele><time>2026-04-25T12:46:16.999Z</time></trkpt><trkpt lat="38.187014546156036" lon="15.715044412683058"><ele>372.0</ele><time>2026-04-25T12:46:17.999Z</time></trkpt><trkpt lat="38.18703686530233" lon="15.714845559124548"><ele>370.25</ele><time>2026-04-25T12:46:18.999Z</time></trkpt><trkpt lat="38.187057110454035" lon="15.71468276084061"><ele>368.5</ele><time>2026-04-25T12:46:19.999Z</time></trkpt><trkpt lat="38.187069640156274" lon="15.714512534818342"><ele>366.75</ele><time>2026-04-25T12:46:21Z</time></trkpt><trkpt lat="38.187064552951675" lon="15.71435171864655"><ele>365.0</ele><time>2026-04-25T12:46:22Z</time></trkpt><trkpt lat="38.18703088432396" lon="15.714176507360223"><ele>364.25</ele><time>2026-04-25T12:46:23Z</time></trkpt><trkpt lat="38.18697581723758" lon="15.714005233200625"><ele>363.5</ele><time>2026-04-25T12:46:24Z</time></trkpt><trkpt lat="38.186943890487605" lon="15.713834481572187"><ele>362.75</ele><time>2026-04-25T12:46:25Z</time></trkpt><trkpt lat="38.18690016288633" lon="15.713671477161835"><ele>362.0</ele><time>2026-04-25T12:46:26Z</time></trkpt><trkpt lat="38.18682864256315" lon="15.713516199911826"><ele>362.0</ele><time>2026-04-25T12:46:27Z</time></trkpt><trkpt lat="38.186741806366825" lon="15.713366181560158"><ele>362.0</ele><time>2026-04-25T12:46:28Z</time></trkpt><trkpt lat="38.18663420912554" lon="15.713215432812552"><ele>362.0</ele><time>2026-04-25T12:46:29Z</time></trkpt><trkpt lat="38.1865295563856" lon="15.713032018038666"><ele>358.75</ele><time>2026-04-25T12:46:30Z</time></trkpt><trkpt lat="38.186475118245816" lon="15.712936992671677"><ele>355.5</ele><time>2026-04-25T12:46:31Z</time></trkpt><trkpt lat="38.18643532826122" lon="15.712786168721847"><ele>352.25</ele><time>2026-04-25T12:46:32Z</time></trkpt><trkpt lat="38.186374080838156" lon="15.712606353243682"><ele>349.0</ele><time>2026-04-25T12:46:33Z</time></trkpt><trkpt lat="38.18626704962704" lon="15.712448865884362"><ele>349.0</ele><time>2026-04-25T12:46:34Z</time></trkpt><trkpt lat="38.186209585186695" lon="15.712291609770055"><ele>349.0</ele><time>2026-04-25T12:46:35Z</time></trkpt><trkpt lat="38.18616574658792" lon="15.712144996898424"><ele>349.0</ele><time>2026-04-25T12:46:36Z</time></trkpt><trkpt lat="38.18613134350629" lon="15.711998118053767"><ele>349.0</ele><time>2026-04-25T12:46:37Z</time></trkpt><trkpt lat="38.18612141718982" lon="15.711842683108573"><ele>351.75</ele><time>2026-04-25T12:46:38Z</time></trkpt><trkpt lat="38.18611576032389" lon="15.711651664017506"><ele>354.5</ele><time>2026-04-25T12:46:39Z</time></trkpt><trkpt lat="38.186106201485806" lon="15.71145664509174"><ele>357.25</ele><time>2026-04-25T12:46:40Z</time></trkpt><trkpt lat="38.18608803309208" lon="15.711278195533074"><ele>360.0</ele><time>2026-04-25T12:46:41Z</time></trkpt><trkpt lat="38.1860455991068" lon="15.711122915863918"><ele>363.0</ele><time>2026-04-25T12:46:42Z</time></trkpt><trkpt lat="38.18601283858344" lon="15.71099379624038"><ele>366.0</ele><time>2026-04-25T12:46:43Z</time></trkpt><trkpt lat="38.18594171845518" lon="15.710873687174479"><ele>369.0</ele><time>2026-04-25T12:46:44Z</time></trkpt><trkpt lat="38.18586196923309" lon="15.71075732357019"><ele>372.0</ele><time>2026-04-25T12:46:45Z</time></trkpt><trkpt lat="38.18577472607285" lon="15.710657240874426"><ele>371.6</ele><time>2026-04-25T12:46:46Z</time></trkpt><trkpt lat="38.185657259831856" lon="15.710582391694464"><ele>371.20000000000005</ele><time>2026-04-25T12:46:47Z</time></trkpt><trkpt lat="38.18557679042275" lon="15.71048077298488"><ele>370.8</ele><time>2026-04-25T12:46:48Z</time></trkpt><trkpt lat="38.185493447880006" lon="15.710404696070162"><ele>370.4</ele><time>2026-04-25T12:46:49Z</time></trkpt><trkpt lat="38.18544521314278" lon="15.710329787138079"><ele>370.0</ele><time>2026-04-25T12:46:50Z</time></trkpt><trkpt lat="38.18542421293218" lon="15.710226538122546"><ele>370.0</ele><time>2026-04-25T12:46:51Z</time></trkpt><trkpt lat="38.185392588159644" lon="15.710126921289037"><ele>370.0</ele><time>2026-04-25T12:46:52Z</time></trkpt><trkpt lat="38.185336041229135" lon="15.710051357296544"><ele>370.0</ele><time>2026-04-25T12:46:53Z</time></trkpt><trkpt lat="38.18527755081386" lon="15.709969585255312"><ele>370.0</ele><time>2026-04-25T12:46:54Z</time></trkpt><trkpt lat="38.185210816363266" lon="15.70988214557272"><ele>370.0</ele><time>2026-04-25T12:46:55Z</time></trkpt><trkpt lat="38.185133479472505" lon="15.709819231382909"><ele>370.0</ele><time>2026-04-25T12:46:56Z</time></trkpt><trkpt lat="38.185074092450826" lon="15.709743730810787"><ele>370.0</ele><time>2026-04-25T12:46:57Z</time></trkpt><trkpt lat="38.185026178815775" lon="15.709690324576716"><ele>370.0</ele><time>2026-04-25T12:46:58Z</time></trkpt><trkpt lat="38.185008737174094" lon="15.709609212303503"><ele>370.0</ele><time>2026-04-25T12:47:00Z</time></trkpt><trkpt lat="38.184936197610035" lon="15.709505574505219"><ele>370.0</ele><time>2026-04-25T12:47:02Z</time></trkpt><trkpt lat="38.184841805283575" lon="15.709473700974742"><ele>370.0</ele><time>2026-04-25T12:47:04Z</time></trkpt><trkpt lat="38.18490041658108" lon="15.709510961589622"><ele>370.0</ele><time>2026-04-25T12:47:21.001Z</time></trkpt><trkpt lat="38.18519409869939" lon="15.709703377942803"><ele>370.0</ele><time>2026-04-25T12:47:23.001Z</time></trkpt><trkpt lat="38.18499450518911" lon="15.709638395175503"><ele>370.0</ele><time>2026-04-25T12:47:24.001Z</time></trkpt><trkpt lat="38.18503968963086" lon="15.70974695846015"><ele>370.0</ele><time>2026-04-25T12:47:26.001Z</time></trkpt><trkpt lat="38.18511423352463" lon="15.709843972161641"><ele>370.0</ele><time>2026-04-25T12:47:28.001Z</time></trkpt><trkpt lat="38.1851713892433" lon="15.709893896297416"><ele>370.0</ele><time>2026-04-25T12:47:29.001Z</time></trkpt><trkpt lat="38.185232903432365" lon="15.709961739457212"><ele>370.0</ele><time>2026-04-25T12:47:30.001Z</time></trkpt><trkpt lat="38.185285737138166" lon="15.710030380393173"><ele>370.0</ele><time>2026-04-25T12:47:31.001Z</time></trkpt><trkpt lat="38.18534457080006" lon="15.710105480369757"><ele>370.0</ele><time>2026-04-25T12:47:32.001Z</time></trkpt><trkpt lat="38.18540880851722" lon="15.710180426202138"><ele>370.0</ele><time>2026-04-25T12:47:33.001Z</time></trkpt><trkpt lat="38.18545578804045" lon="15.710339088325581"><ele>370.3333333333333</ele><time>2026-04-25T12:47:35.001Z</time></trkpt><trkpt lat="38.185494917501316" lon="15.710422161761464"><ele>370.66666666666663</ele><time>2026-04-25T12:47:36.001Z</time></trkpt><trkpt lat="38.1855537714845" lon="15.710500458778332"><ele>371.0</ele><time>2026-04-25T12:47:37.001Z</time></trkpt><trkpt lat="38.185627248563605" lon="15.710569271011595"><ele>371.3333333333333</ele><time>2026-04-25T12:47:38.001Z</time></trkpt><trkpt lat="38.1857020911766" lon="15.710631699969035"><ele>371.6666666666667</ele><time>2026-04-25T12:47:39.001Z</time></trkpt><trkpt lat="38.1857699103867" lon="15.710689511726736"><ele>372.0</ele><time>2026-04-25T12:47:40.001Z</time></trkpt><trkpt lat="38.1858209971975" lon="15.710747339843364"><ele>372.0</ele><time>2026-04-25T12:47:41.001Z</time></trkpt><trkpt lat="38.1859016114515" lon="15.710820173408841"><ele>372.0</ele><time>2026-04-25T12:47:43.001Z</time></trkpt><trkpt lat="38.18584934764288" lon="15.710867035938877"><ele>372.0</ele><time>2026-04-25T12:47:46.001Z</time></trkpt><trkpt lat="38.18577037139398" lon="15.71078628516696"><ele>372.0</ele><time>2026-04-25T12:47:48.001Z</time></trkpt><trkpt lat="38.185704239175145" lon="15.710708425701716"><ele>372.0</ele><time>2026-04-25T12:47:49.001Z</time></trkpt><trkpt lat="38.18564079336869" lon="15.710649737776153"><ele>372.0</ele><time>2026-04-25T12:47:50.001Z</time></trkpt><trkpt lat="38.18556183994377" lon="15.710609059474661"><ele>368.20000000000005</ele><time>2026-04-25T12:47:51.001Z</time></trkpt><trkpt lat="38.185475031539156" lon="15.710562626620186"><ele>364.4</ele><time>2026-04-25T12:47:52.001Z</time></trkpt><trkpt lat="38.185370013408765" lon="15.710575630350146"><ele>360.6</ele><time>2026-04-25T12:47:53.001Z</time></trkpt><trkpt lat="38.185273947616324" lon="15.710567918879152"><ele>356.79999999999995</ele><time>2026-04-25T12:47:54.001Z</time></trkpt><trkpt lat="38.185192082295366" lon="15.710543883250953"><ele>353.0</ele><time>2026-04-25T12:47:55.001Z</time></trkpt><trkpt lat="38.1850893227451" lon="15.710525417977067"><ele>353.0</ele><time>2026-04-25T12:47:56.001Z</time></trkpt><trkpt lat="38.18499612109406" lon="15.71048602134863"><ele>353.0</ele><time>2026-04-25T12:47:57.001Z</time></trkpt><trkpt lat="38.18491257783871" lon="15.71042211293001"><ele>353.0</ele><time>2026-04-25T12:47:58.001Z</time></trkpt><trkpt lat="38.18481623743911" lon="15.710404928022212"><ele>353.0</ele><time>2026-04-25T12:47:59.001Z</time></trkpt><trkpt lat="38.184739701696394" lon="15.710389282545146"><ele>353.0</ele><time>2026-04-25T12:48:00.001Z</time></trkpt><trkpt lat="38.184647421675315" lon="15.710366477355855"><ele>353.0</ele><time>2026-04-25T12:48:01.001Z</time></trkpt><trkpt lat="38.184556839609485" lon="15.710363950638428"><ele>353.0</ele><time>2026-04-25T12:48:02.001Z</time></trkpt><trkpt lat="38.18447023103894" lon="15.710282740912755"><ele>353.0</ele><time>2026-04-25T12:48:03.001Z</time></trkpt><trkpt lat="38.184377268452714" lon="15.710204416803194"><ele>353.0</ele><time>2026-04-25T12:48:04.001Z</time></trkpt><trkpt lat="38.18427466688882" lon="15.710136910100022"><ele>353.0</ele><time>2026-04-25T12:48:05.001Z</time></trkpt><trkpt lat="38.184179649937455" lon="15.710073062148995"><ele>353.0</ele><time>2026-04-25T12:48:06.001Z</time></trkpt><trkpt lat="38.18407744170881" lon="15.710048859592298"><ele>353.0</ele><time>2026-04-25T12:48:07.001Z</time></trkpt><trkpt lat="38.18398643082108" lon="15.710068518385714"><ele>353.0</ele><time>2026-04-25T12:48:08.001Z</time></trkpt><trkpt lat="38.183890454403" lon="15.710135933257716"><ele>353.0</ele><time>2026-04-25T12:48:09.001Z</time></trkpt><trkpt lat="38.18382625178847" lon="15.710183486754815"><ele>353.0</ele><time>2026-04-25T12:48:10.001Z</time></trkpt><trkpt lat="38.18376542975529" lon="15.710210919550951"><ele>353.0</ele><time>2026-04-25T12:48:11.001Z</time></trkpt><trkpt lat="38.183731495139" lon="15.71028316772954"><ele>345.0</ele><time>2026-04-25T12:48:13.001Z</time></trkpt><trkpt lat="38.18379076363258" lon="15.710363225461599"><ele>337.0</ele><time>2026-04-25T12:48:14.001Z</time></trkpt><trkpt lat="38.18382726785086" lon="15.710466618034541"><ele>329.0</ele><time>2026-04-25T12:48:15.001Z</time></trkpt><trkpt lat="38.1838739696679" lon="15.710569939864147"><ele>321.0</ele><time>2026-04-25T12:48:16.001Z</time></trkpt><trkpt lat="38.18390866721825" lon="15.710686595834535"><ele>313.0</ele><time>2026-04-25T12:48:17.001Z</time></trkpt><trkpt lat="38.183982687256794" lon="15.710783668771226"><ele>312.2</ele><time>2026-04-25T12:48:18.001Z</time></trkpt><trkpt lat="38.18405417020701" lon="15.710884258810193"><ele>311.4</ele><time>2026-04-25T12:48:19Z</time></trkpt><trkpt lat="38.18413367060474" lon="15.710974078210922"><ele>310.59999999999997</ele><time>2026-04-25T12:48:20Z</time></trkpt><trkpt lat="38.1841891105527" lon="15.711044531184093"><ele>309.8</ele><time>2026-04-25T12:48:21Z</time></trkpt><trkpt lat="38.18426355830423" lon="15.711144781022762"><ele>309.0</ele><time>2026-04-25T12:48:22Z</time></trkpt><trkpt lat="38.184322418434206" lon="15.711233296035207"><ele>309.0</ele><time>2026-04-25T12:48:23Z</time></trkpt><trkpt lat="38.184383320539" lon="15.711324259677045"><ele>309.0</ele><time>2026-04-25T12:48:24Z</time></trkpt><trkpt lat="38.184455459350666" lon="15.71140697857429"><ele>309.0</ele><time>2026-04-25T12:48:25Z</time></trkpt><trkpt lat="38.18454231816839" lon="15.711462961795563"><ele>309.0</ele><time>2026-04-25T12:48:26Z</time></trkpt><trkpt lat="38.18465502189891" lon="15.711500499481883"><ele>309.0</ele><time>2026-04-25T12:48:27Z</time></trkpt><trkpt lat="38.18477225846452" lon="15.71151926313415"><ele>307.8333333333333</ele><time>2026-04-25T12:48:28Z</time></trkpt><trkpt lat="38.18486164371592" lon="15.71154186692456"><ele>306.6666666666667</ele><time>2026-04-25T12:48:29Z</time></trkpt><trkpt lat="38.18495822371482" lon="15.711573341743398"><ele>305.5</ele><time>2026-04-25T12:48:30Z</time></trkpt><trkpt lat="38.185028620719486" lon="15.711651973263512"><ele>304.33333333333337</ele><time>2026-04-25T12:48:31Z</time></trkpt><trkpt lat="38.18507248142291" lon="15.711735168600653"><ele>303.1666666666667</ele><time>2026-04-25T12:48:32Z</time></trkpt><trkpt lat="38.185085134853125" lon="15.71184223540639"><ele>302.0</ele><time>2026-04-25T12:48:33Z</time></trkpt><trkpt lat="38.185116265831205" lon="15.711974751718545"><ele>302.0</ele><time>2026-04-25T12:48:34Z</time></trkpt><trkpt lat="38.1851641937351" lon="15.712082418028537"><ele>302.0</ele><time>2026-04-25T12:48:35Z</time></trkpt><trkpt lat="38.1852073552816" lon="15.712191738649617"><ele>302.0</ele><time>2026-04-25T12:48:36Z</time></trkpt><trkpt lat="38.1852373723978" lon="15.712289596877604"><ele>302.0</ele><time>2026-04-25T12:48:37Z</time></trkpt><trkpt lat="38.185265487383866" lon="15.71238135632789"><ele>302.0</ele><time>2026-04-25T12:48:38Z</time></trkpt><trkpt lat="38.18528512078768" lon="15.712466929417664"><ele>302.0</ele><time>2026-04-25T12:48:39Z</time></trkpt><trkpt lat="38.185285258907584" lon="15.712548896956099"><ele>302.0</ele><time>2026-04-25T12:48:40Z</time></trkpt><trkpt lat="38.18517679894748" lon="15.712658053597483"><ele>302.0</ele><time>2026-04-25T12:48:42Z</time></trkpt><trkpt lat="38.185091577262455" lon="15.712682907169187"><ele>302.0</ele><time>2026-04-25T12:48:43Z</time></trkpt><trkpt lat="38.185008894303415" lon="15.712749088870607"><ele>302.0</ele><time>2026-04-25T12:48:44Z</time></trkpt><trkpt lat="38.1849282006985" lon="15.712825689323596"><ele>302.0</ele><time>2026-04-25T12:48:45Z</time></trkpt><trkpt lat="38.18486368689066" lon="15.712916663099476"><ele>301.8</ele><time>2026-04-25T12:48:46Z</time></trkpt><trkpt lat="38.18481028104844" lon="15.713006006817356"><ele>301.6</ele><time>2026-04-25T12:48:47Z</time></trkpt><trkpt lat="38.1847743097965" lon="15.713087391494096"><ele>301.40000000000003</ele><time>2026-04-25T12:48:48Z</time></trkpt><trkpt lat="38.184836315729726" lon="15.713201387240932"><ele>301.2</ele><time>2026-04-25T12:48:49Z</time></trkpt><trkpt lat="38.18490704676842" lon="15.713313618443529"><ele>301.0</ele><time>2026-04-25T12:48:50Z</time></trkpt><trkpt lat="38.18496614466719" lon="15.71344073102047"><ele>301.0</ele><time>2026-04-25T12:48:51Z</time></trkpt><trkpt lat="38.18504007644079" lon="15.71352229640295"><ele>301.0</ele><time>2026-04-25T12:48:52Z</time></trkpt><trkpt lat="38.18512046447011" lon="15.713595940714226"><ele>301.0</ele><time>2026-04-25T12:48:53Z</time></trkpt><trkpt lat="38.18521075543681" lon="15.713662562576614"><ele>301.0</ele><time>2026-04-25T12:48:54Z</time></trkpt><trkpt lat="38.18530198019582" lon="15.713725614505957"><ele>301.0</ele><time>2026-04-25T12:48:55Z</time></trkpt><trkpt lat="38.18537098897009" lon="15.713796382337884"><ele>303.16666666666663</ele><time>2026-04-25T12:48:56Z</time></trkpt><trkpt lat="38.18546171493322" lon="15.713832834871551"><ele>305.3333333333333</ele><time>2026-04-25T12:48:57Z</time></trkpt><trkpt lat="38.18554291174057" lon="15.7139014531682"><ele>307.5</ele><time>2026-04-25T12:48:58Z</time></trkpt><trkpt lat="38.18561198215539" lon="15.713948382103677"><ele>309.6666666666667</ele><time>2026-04-25T12:48:59Z</time></trkpt><trkpt lat="38.185669353455566" lon="15.713996444115915"><ele>311.83333333333337</ele><time>2026-04-25T12:49:00Z</time></trkpt><trkpt lat="38.185711144614984" lon="15.714108045601062"><ele>314.0</ele><time>2026-04-25T12:49:02Z</time></trkpt><trkpt lat="38.18569085572829" lon="15.714200373809476"><ele>310.0</ele><time>2026-04-25T12:49:03Z</time></trkpt><trkpt lat="38.18562264479647" lon="15.714259558616478"><ele>306.0</ele><time>2026-04-25T12:49:04Z</time></trkpt><trkpt lat="38.18555074499414" lon="15.714316527569553"><ele>302.0</ele><time>2026-04-25T12:49:05Z</time></trkpt><trkpt lat="38.185458643805894" lon="15.714370639639496"><ele>298.0</ele><time>2026-04-25T12:49:06Z</time></trkpt><trkpt lat="38.185346621217036" lon="15.714453796988547"><ele>294.0</ele><time>2026-04-25T12:49:07Z</time></trkpt><trkpt lat="38.18522845668587" lon="15.714541513563898"><ele>294.0</ele><time>2026-04-25T12:49:08Z</time></trkpt><trkpt lat="38.18512634151901" lon="15.714611353693146"><ele>294.0</ele><time>2026-04-25T12:49:09Z</time></trkpt><trkpt lat="38.184999757961656" lon="15.714650621038334"><ele>294.0</ele><time>2026-04-25T12:49:11Z</time></trkpt><trkpt lat="38.18488846247669" lon="15.714676292668246"><ele>294.0</ele><time>2026-04-25T12:49:12Z</time></trkpt><trkpt lat="38.18477350987725" lon="15.714702757018953"><ele>289.1666666666667</ele><time>2026-04-25T12:49:13Z</time></trkpt><trkpt lat="38.184680843695574" lon="15.714757739788793"><ele>284.3333333333333</ele><time>2026-04-25T12:49:14Z</time></trkpt><trkpt lat="38.18459927545041" lon="15.71479830460862"><ele>279.5</ele><time>2026-04-25T12:49:15Z</time></trkpt><trkpt lat="38.184535399308324" lon="15.714869213482636"><ele>274.66666666666663</ele><time>2026-04-25T12:49:16Z</time></trkpt><trkpt lat="38.18452346461243" lon="15.714970740945363"><ele>269.8333333333333</ele><time>2026-04-25T12:49:17Z</time></trkpt><trkpt lat="38.18456169974392" lon="15.715077353645839"><ele>265.0</ele><time>2026-04-25T12:49:18Z</time></trkpt><trkpt lat="38.1846141559012" lon="15.715182350554302"><ele>266.6</ele><time>2026-04-25T12:49:19Z</time></trkpt><trkpt lat="38.184629854973586" lon="15.71530169945635"><ele>268.2</ele><time>2026-04-25T12:49:20Z</time></trkpt><trkpt lat="38.18457365807927" lon="15.715418737921691"><ele>269.8</ele><time>2026-04-25T12:49:21Z</time></trkpt><trkpt lat="38.184558302643055" lon="15.715558725561747"><ele>271.4</ele><time>2026-04-25T12:49:22Z</time></trkpt><trkpt lat="38.184564471984736" lon="15.715708488760765"><ele>273.0</ele><time>2026-04-25T12:49:23Z</time></trkpt><trkpt lat="38.1845891956633" lon="15.715868176465987"><ele>273.0</ele><time>2026-04-25T12:49:24Z</time></trkpt><trkpt lat="38.18462547419285" lon="15.716017335662844"><ele>273.0</ele><time>2026-04-25T12:49:25Z</time></trkpt><trkpt lat="38.18465557237151" lon="15.716154783466067"><ele>273.0</ele><time>2026-04-25T12:49:26Z</time></trkpt><trkpt lat="38.18468304550529" lon="15.716278476446146"><ele>273.0</ele><time>2026-04-25T12:49:27Z</time></trkpt><trkpt lat="38.18470527836658" lon="15.716400159534999"><ele>273.0</ele><time>2026-04-25T12:49:28Z</time></trkpt><trkpt lat="38.18470117661671" lon="15.716491029848752"><ele>277.0</ele><time>2026-04-25T12:49:29Z</time></trkpt><trkpt lat="38.18463798905468" lon="15.71653585715527"><ele>281.0</ele><time>2026-04-25T12:49:30.001Z</time></trkpt><trkpt lat="38.184578773178316" lon="15.716436734351486"><ele>285.0</ele><time>2026-04-25T12:49:32.001Z</time></trkpt><trkpt lat="38.18454048327627" lon="15.716316082572309"><ele>289.0</ele><time>2026-04-25T12:49:33.001Z</time></trkpt><trkpt lat="38.184533037521035" lon="15.71620846015014"><ele>293.0</ele><time>2026-04-25T12:49:34.001Z</time></trkpt><trkpt lat="38.18450156291078" lon="15.716081052566052"><ele>289.0</ele><time>2026-04-25T12:49:35.001Z</time></trkpt><trkpt lat="38.18446791684401" lon="15.715967463475462"><ele>285.0</ele><time>2026-04-25T12:49:36.001Z</time></trkpt><trkpt lat="38.18442741320504" lon="15.715848405478695"><ele>281.0</ele><time>2026-04-25T12:49:37.001Z</time></trkpt><trkpt lat="38.18437014278911" lon="15.715740476185172"><ele>277.0</ele><time>2026-04-25T12:49:38.001Z</time></trkpt><trkpt lat="38.18434043246223" lon="15.715624631576095"><ele>273.0</ele><time>2026-04-25T12:49:39.001Z</time></trkpt><trkpt lat="38.18426990777506" lon="15.71552693467617"><ele>273.0</ele><time>2026-04-25T12:49:40.001Z</time></trkpt><trkpt lat="38.18419970619918" lon="15.715469837085752"><ele>273.0</ele><time>2026-04-25T12:49:41.001Z</time></trkpt><trkpt lat="38.18412044895584" lon="15.715471554728618"><ele>273.0</ele><time>2026-04-25T12:49:42.001Z</time></trkpt><trkpt lat="38.18403652435306" lon="15.715467564547621"><ele>273.0</ele><time>2026-04-25T12:49:43.001Z</time></trkpt><trkpt lat="38.18395988335167" lon="15.715452669677227"><ele>273.0</ele><time>2026-04-25T12:49:44.001Z</time></trkpt><trkpt lat="38.1839266045103" lon="15.715325240006647"><ele>273.0</ele><time>2026-04-25T12:49:46.001Z</time></trkpt><trkpt lat="38.18396131676802" lon="15.715243361460937"><ele>274.2</ele><time>2026-04-25T12:49:47.001Z</time></trkpt><trkpt lat="38.18398621414684" lon="15.715131910036176"><ele>275.4</ele><time>2026-04-25T12:49:48.001Z</time></trkpt><trkpt lat="38.1840292381406" lon="15.715009852892768"><ele>276.59999999999997</ele><time>2026-04-25T12:49:49.001Z</time></trkpt><trkpt lat="38.1840799005918" lon="15.714888020351847"><ele>277.8</ele><time>2026-04-25T12:49:50.001Z</time></trkpt><trkpt lat="38.184085804913906" lon="15.714745103562514"><ele>279.0</ele><time>2026-04-25T12:49:51.001Z</time></trkpt><trkpt lat="38.18406523119263" lon="15.714622039223938"><ele>276.2</ele><time>2026-04-25T12:49:52.001Z</time></trkpt><trkpt lat="38.184038392704345" lon="15.714505384713531"><ele>273.4</ele><time>2026-04-25T12:49:53.001Z</time></trkpt><trkpt lat="38.18399636467293" lon="15.714396564212516"><ele>270.6</ele><time>2026-04-25T12:49:54.001Z</time></trkpt><trkpt lat="38.1839405820358" lon="15.714287875213856"><ele>267.8</ele><time>2026-04-25T12:49:55.001Z</time></trkpt><trkpt lat="38.18388904467413" lon="15.714176208463211"><ele>265.0</ele><time>2026-04-25T12:49:56.001Z</time></trkpt><trkpt lat="38.18383431316936" lon="15.714070770805879"><ele>262.0</ele><time>2026-04-25T12:49:57.001Z</time></trkpt><trkpt lat="38.183775681983526" lon="15.713986538789115"><ele>259.0</ele><time>2026-04-25T12:49:58.001Z</time></trkpt><trkpt lat="38.18371675396867" lon="15.71390264273567"><ele>256.0</ele><time>2026-04-25T12:49:59.001Z</time></trkpt><trkpt lat="38.183646237213985" lon="15.713855324630922"><ele>253.0</ele><time>2026-04-25T12:50:00.001Z</time></trkpt><trkpt lat="38.183567728170736" lon="15.713776535040697"><ele>250.0</ele><time>2026-04-25T12:50:01.001Z</time></trkpt><trkpt lat="38.18347375977598" lon="15.713705198487975"><ele>250.0</ele><time>2026-04-25T12:50:02.001Z</time></trkpt><trkpt lat="38.18336532640969" lon="15.713645712866551"><ele>250.0</ele><time>2026-04-25T12:50:03.001Z</time></trkpt><trkpt lat="38.183261348579755" lon="15.713595765467282"><ele>250.0</ele><time>2026-04-25T12:50:04.001Z</time></trkpt><trkpt lat="38.18315591860969" lon="15.713539335093932"><ele>250.0</ele><time>2026-04-25T12:50:05.001Z</time></trkpt><trkpt lat="38.18306074096197" lon="15.713477427909451"><ele>247.42857142857142</ele><time>2026-04-25T12:50:06.001Z</time></trkpt><trkpt lat="38.182981530792965" lon="15.713415534037447"><ele>244.8571428571429</ele><time>2026-04-25T12:50:07.001Z</time></trkpt><trkpt lat="38.182923538356384" lon="15.713370552789902"><ele>242.2857142857143</ele><time>2026-04-25T12:50:08.001Z</time></trkpt><trkpt lat="38.18286181787751" lon="15.713326531090555"><ele>239.71428571428572</ele><time>2026-04-25T12:50:09.001Z</time></trkpt><trkpt lat="38.1828073140313" lon="15.713277220281388"><ele>237.14285714285717</ele><time>2026-04-25T12:50:10.001Z</time></trkpt><trkpt lat="38.18277154518107" lon="15.71320910679071"><ele>234.5714285714286</ele><time>2026-04-25T12:50:11.001Z</time></trkpt><trkpt lat="38.18272012218372" lon="15.713149920556187"><ele>232.00000000000003</ele><time>2026-04-25T12:50:12.001Z</time></trkpt><trkpt lat="38.18266218215012" lon="15.713083233433116"><ele>231.99999999999997</ele><time>2026-04-25T12:50:13.001Z</time></trkpt><trkpt lat="38.18260211094915" lon="15.71301719573925"><ele>232.0</ele><time>2026-04-25T12:50:14.001Z</time></trkpt><trkpt lat="38.182527410297666" lon="15.71296760955799"><ele>232.0</ele><time>2026-04-25T12:50:15.001Z</time></trkpt><trkpt lat="38.18245631485464" lon="15.71289165300518"><ele>232.0</ele><time>2026-04-25T12:50:16.001Z</time></trkpt><trkpt lat="38.18237820927172" lon="15.712819151070722"><ele>231.99999999999997</ele><time>2026-04-25T12:50:17.001Z</time></trkpt><trkpt lat="38.182318687238144" lon="15.712741863375363"><ele>232.0</ele><time>2026-04-25T12:50:18.001Z</time></trkpt><trkpt lat="38.182253925231194" lon="15.712679636329137"><ele>230.83333333333331</ele><time>2026-04-25T12:50:19.001Z</time></trkpt><trkpt lat="38.18218081874472" lon="15.71261477311363"><ele>229.66666666666666</ele><time>2026-04-25T12:50:20.001Z</time></trkpt><trkpt lat="38.18211616739768" lon="15.712557263836462"><ele>228.5</ele><time>2026-04-25T12:50:21.001Z</time></trkpt><trkpt lat="38.18205284818343" lon="15.712505423123355"><ele>227.33333333333331</ele><time>2026-04-25T12:50:22.001Z</time></trkpt><trkpt lat="38.18200008233497" lon="15.71245641533812"><ele>226.16666666666666</ele><time>2026-04-25T12:50:23.001Z</time></trkpt><trkpt lat="38.181962227660414" lon="15.712343610533388"><ele>225.0</ele><time>2026-04-25T12:50:25Z</time></trkpt><trkpt lat="38.18186716779388" lon="15.712217554246775"><ele>225.0</ele><time>2026-04-25T12:50:27Z</time></trkpt><trkpt lat="38.18179831437979" lon="15.712150612563212"><ele>225.0</ele><time>2026-04-25T12:50:28Z</time></trkpt><trkpt lat="38.18170956061845" lon="15.712059250972429"><ele>225.0</ele><time>2026-04-25T12:50:29Z</time></trkpt><trkpt lat="38.18162966299719" lon="15.711972112441197"><ele>225.0</ele><time>2026-04-25T12:50:30Z</time></trkpt><trkpt lat="38.18156868987439" lon="15.711909595970004"><ele>225.0</ele><time>2026-04-25T12:50:31Z</time></trkpt><trkpt lat="38.1815184736705" lon="15.711823050026307"><ele>224.0</ele><time>2026-04-25T12:50:32Z</time></trkpt><trkpt lat="38.18146547874771" lon="15.71174935268906"><ele>223.0</ele><time>2026-04-25T12:50:33Z</time></trkpt><trkpt lat="38.181395838293305" lon="15.711683661503642"><ele>222.0</ele><time>2026-04-25T12:50:34Z</time></trkpt><trkpt lat="38.18134073910267" lon="15.711602796337775"><ele>221.0</ele><time>2026-04-25T12:50:35Z</time></trkpt><trkpt lat="38.18128395714448" lon="15.71152324919253"><ele>220.0</ele><time>2026-04-25T12:50:36Z</time></trkpt><trkpt lat="38.181227886844894" lon="15.711449743960555"><ele>219.0</ele><time>2026-04-25T12:50:37Z</time></trkpt><trkpt lat="38.18117364171785" lon="15.711383763478237"><ele>219.0</ele><time>2026-04-25T12:50:38Z</time></trkpt><trkpt lat="38.18112446996207" lon="15.711329305125126"><ele>219.0</ele><time>2026-04-25T12:50:39Z</time></trkpt><trkpt lat="38.181063293763124" lon="15.711271457817354"><ele>219.0</ele><time>2026-04-25T12:50:40Z</time></trkpt><trkpt lat="38.18100924260576" lon="15.711217655282615"><ele>219.0</ele><time>2026-04-25T12:50:41Z</time></trkpt><trkpt lat="38.18095452154855" lon="15.711154270653525"><ele>219.0</ele><time>2026-04-25T12:50:42Z</time></trkpt><trkpt lat="38.18090503264136" lon="15.711091542125397"><ele>219.0</ele><time>2026-04-25T12:50:43Z</time></trkpt><trkpt lat="38.180853351140726" lon="15.711033236803791"><ele>219.0</ele><time>2026-04-25T12:50:44Z</time></trkpt><trkpt lat="38.18080390000187" lon="15.71098080085731"><ele>216.83333333333334</ele><time>2026-04-25T12:50:45Z</time></trkpt><trkpt lat="38.18071947750039" lon="15.710874750218718"><ele>214.66666666666669</ele><time>2026-04-25T12:50:47Z</time></trkpt><trkpt lat="38.180670833248456" lon="15.710821824110479"><ele>212.5</ele><time>2026-04-25T12:50:48Z</time></trkpt><trkpt lat="38.18062121273018" lon="15.710761509619987"><ele>210.33333333333334</ele><time>2026-04-25T12:50:49Z</time></trkpt><trkpt lat="38.180568980687156" lon="15.710689468656431"><ele>208.16666666666669</ele><time>2026-04-25T12:50:50Z</time></trkpt><trkpt lat="38.18053039167053" lon="15.710625318653758"><ele>206.0</ele><time>2026-04-25T12:50:51Z</time></trkpt><trkpt lat="38.180447346586185" lon="15.710512495426862"><ele>205.16666666666669</ele><time>2026-04-25T12:50:53Z</time></trkpt><trkpt lat="38.18039463707038" lon="15.710458745726651"><ele>204.33333333333334</ele><time>2026-04-25T12:50:54Z</time></trkpt><trkpt lat="38.18029700193178" lon="15.71037693229639"><ele>203.5</ele><time>2026-04-25T12:50:56Z</time></trkpt><trkpt lat="38.18021437603857" lon="15.710324056771016"><ele>202.66666666666669</ele><time>2026-04-25T12:50:58Z</time></trkpt><trkpt lat="38.180150914438585" lon="15.710280727887078"><ele>201.83333333333334</ele><time>2026-04-25T12:51:00Z</time></trkpt><trkpt lat="38.1800844316417" lon="15.71030233811853"><ele>201.0</ele><time>2026-04-25T12:51:02Z</time></trkpt><trkpt lat="38.18000607213711" lon="15.710430862230876"><ele>201.0</ele><time>2026-04-25T12:51:04Z</time></trkpt><trkpt lat="38.17995370174816" lon="15.710489862201033"><ele>201.0</ele><time>2026-04-25T12:51:05Z</time></trkpt><trkpt lat="38.179914927320574" lon="15.710557727627165"><ele>201.0</ele><time>2026-04-25T12:51:06Z</time></trkpt><trkpt lat="38.17987526152844" lon="15.710627152850455"><ele>201.0</ele><time>2026-04-25T12:51:07Z</time></trkpt><trkpt lat="38.179828876082816" lon="15.710706890860097"><ele>201.0</ele><time>2026-04-25T12:51:08Z</time></trkpt><trkpt lat="38.179783231902114" lon="15.710782144911178"><ele>201.0</ele><time>2026-04-25T12:51:09Z</time></trkpt><trkpt lat="38.1797390254698" lon="15.710855028515542"><ele>201.0</ele><time>2026-04-25T12:51:10Z</time></trkpt><trkpt lat="38.17967164767728" lon="15.710986760988703"><ele>200.83333333333334</ele><time>2026-04-25T12:51:12Z</time></trkpt><trkpt lat="38.17962716061627" lon="15.711049604065696"><ele>200.66666666666669</ele><time>2026-04-25T12:51:14Z</time></trkpt><trkpt lat="38.17957632451716" lon="15.710971757588634"><ele>200.5</ele><time>2026-04-25T12:51:17.001Z</time></trkpt><trkpt lat="38.179480494615916" lon="15.71089717114336"><ele>200.33333333333334</ele><time>2026-04-25T12:51:19.001Z</time></trkpt><trkpt lat="38.179412610327226" lon="15.71082232592304"><ele>200.16666666666669</ele><time>2026-04-25T12:51:21.001Z</time></trkpt><trkpt lat="38.179358781089704" lon="15.710768516128148"><ele>200.0</ele><time>2026-04-25T12:51:23.001Z</time></trkpt><trkpt lat="38.179343735734804" lon="15.71068345214486"><ele>200.0</ele><time>2026-04-25T12:51:26.001Z</time></trkpt><trkpt lat="38.17942233440165" lon="15.710600000330611"><ele>200.0</ele><time>2026-04-25T12:51:28.001Z</time></trkpt><trkpt lat="38.17949415923414" lon="15.710484751133118"><ele>200.0</ele><time>2026-04-25T12:51:30.001Z</time></trkpt><trkpt lat="38.17953110067948" lon="15.710409788755419"><ele>200.0</ele><time>2026-04-25T12:51:31.001Z</time></trkpt><trkpt lat="38.17958280838836" lon="15.710316406199127"><ele>200.0</ele><time>2026-04-25T12:51:32.001Z</time></trkpt><trkpt lat="38.1796417035613" lon="15.710215889824877"><ele>199.5</ele><time>2026-04-25T12:51:33.001Z</time></trkpt><trkpt lat="38.1797130903026" lon="15.710096516720757"><ele>199.0</ele><time>2026-04-25T12:51:34.001Z</time></trkpt><trkpt lat="38.1797933229641" lon="15.709964801351283"><ele>198.5</ele><time>2026-04-25T12:51:35.001Z</time></trkpt><trkpt lat="38.17988281679541" lon="15.709815198730798"><ele>198.0</ele><time>2026-04-25T12:51:36.001Z</time></trkpt><trkpt lat="38.17997427740804" lon="15.709654603003369"><ele>198.0</ele><time>2026-04-25T12:51:37.001Z</time></trkpt><trkpt lat="38.180066645140975" lon="15.70947200663259"><ele>198.0</ele><time>2026-04-25T12:51:38.001Z</time></trkpt><trkpt lat="38.18016441215513" lon="15.709295740209456"><ele>198.0</ele><time>2026-04-25T12:51:39.001Z</time></trkpt><trkpt lat="38.18024653061469" lon="15.70909596137478"><ele>200.66666666666669</ele><time>2026-04-25T12:51:40.001Z</time></trkpt><trkpt lat="38.18032157393689" lon="15.70887995022434"><ele>203.33333333333334</ele><time>2026-04-25T12:51:41.001Z</time></trkpt><trkpt lat="38.180380104313144" lon="15.708648008227042"><ele>206.0</ele><time>2026-04-25T12:51:42.001Z</time></trkpt><trkpt lat="38.18043742653017" lon="15.708402670854069"><ele>206.0</ele><time>2026-04-25T12:51:43.001Z</time></trkpt><trkpt lat="38.18049193081071" lon="15.708169923011816"><ele>206.0</ele><time>2026-04-25T12:51:44.001Z</time></trkpt><trkpt lat="38.18054163496878" lon="15.707931912499056"><ele>206.0</ele><time>2026-04-25T12:51:45.001Z</time></trkpt><trkpt lat="38.1806046446388" lon="15.707696849051882"><ele>205.33333333333334</ele><time>2026-04-25T12:51:46.001Z</time></trkpt><trkpt lat="38.18064723063248" lon="15.707476082752311"><ele>204.66666666666669</ele><time>2026-04-25T12:51:47.001Z</time></trkpt><trkpt lat="38.18070277805577" lon="15.707252234195737"><ele>204.0</ele><time>2026-04-25T12:51:48.001Z</time></trkpt><trkpt lat="38.18075829841381" lon="15.707037048889674"><ele>198.66666666666666</ele><time>2026-04-25T12:51:49.001Z</time></trkpt><trkpt lat="38.1808178167563" lon="15.706830171930262"><ele>193.33333333333331</ele><time>2026-04-25T12:51:50.001Z</time></trkpt><trkpt lat="38.18087931480019" lon="15.706637882162704"><ele>188.0</ele><time>2026-04-25T12:51:51.001Z</time></trkpt><trkpt lat="38.1809383924985" lon="15.706477189919715"><ele>188.0</ele><time>2026-04-25T12:51:52.001Z</time></trkpt><trkpt lat="38.181012952085055" lon="15.706205113949881"><ele>188.0</ele><time>2026-04-25T12:51:53.001Z</time></trkpt><trkpt lat="38.18108507226616" lon="15.705998497725703"><ele>188.0</ele><time>2026-04-25T12:51:54.001Z</time></trkpt><trkpt lat="38.18115978499622" lon="15.70578794810893"><ele>190.0</ele><time>2026-04-25T12:51:55.001Z</time></trkpt><trkpt lat="38.181233929015555" lon="15.70557526623517"><ele>192.0</ele><time>2026-04-25T12:51:56.001Z</time></trkpt><trkpt lat="38.1813108696601" lon="15.70536712809616"><ele>194.0</ele><time>2026-04-25T12:51:57.001Z</time></trkpt><trkpt lat="38.18139353033793" lon="15.705161847800673"><ele>189.66666666666669</ele><time>2026-04-25T12:51:58.001Z</time></trkpt><trkpt lat="38.181481134314744" lon="15.704959469230479"><ele>185.33333333333334</ele><time>2026-04-25T12:51:59.001Z</time></trkpt><trkpt lat="38.18156414796629" lon="15.70475840633107"><ele>181.0</ele><time>2026-04-25T12:52:00.001Z</time></trkpt><trkpt lat="38.18165092148205" lon="15.704555185662095"><ele>185.33333333333334</ele><time>2026-04-25T12:52:01.001Z</time></trkpt><trkpt lat="38.18174206598584" lon="15.704354284986337"><ele>189.66666666666669</ele><time>2026-04-25T12:52:02.001Z</time></trkpt><trkpt lat="38.18183536555825" lon="15.70415947199486"><ele>194.0</ele><time>2026-04-25T12:52:03.001Z</time></trkpt><trkpt lat="38.181936326479736" lon="15.703956846818565"><ele>194.0</ele><time>2026-04-25T12:52:04.001Z</time></trkpt><trkpt lat="38.18203676284833" lon="15.703774247272127"><ele>194.0</ele><time>2026-04-25T12:52:05.001Z</time></trkpt><trkpt lat="38.182140152379354" lon="15.703605860207116"><ele>194.0</ele><time>2026-04-25T12:52:06.001Z</time></trkpt><trkpt lat="38.18221850890286" lon="15.703446343298342"><ele>189.66666666666669</ele><time>2026-04-25T12:52:07.001Z</time></trkpt><trkpt lat="38.18232932485937" lon="15.703274098993639"><ele>185.33333333333334</ele><time>2026-04-25T12:52:08.001Z</time></trkpt><trkpt lat="38.1824351131439" lon="15.703115155603731"><ele>181.0</ele><time>2026-04-25T12:52:09.001Z</time></trkpt><trkpt lat="38.1825354516217" lon="15.70295007811742"><ele>181.0</ele><time>2026-04-25T12:52:10.001Z</time></trkpt><trkpt lat="38.18263580205737" lon="15.702776285373002"><ele>181.0</ele><time>2026-04-25T12:52:11.001Z</time></trkpt><trkpt lat="38.1827427533405" lon="15.702607135541191"><ele>181.0</ele><time>2026-04-25T12:52:12.001Z</time></trkpt><trkpt lat="38.182846554845845" lon="15.70243214446698"><ele>181.0</ele><time>2026-04-25T12:52:13.001Z</time></trkpt><trkpt lat="38.18295173881039" lon="15.702246015505391"><ele>181.0</ele><time>2026-04-25T12:52:14.001Z</time></trkpt><trkpt lat="38.18305568689826" lon="15.70204761771426"><ele>181.0</ele><time>2026-04-25T12:52:15.001Z</time></trkpt><trkpt lat="38.183152959234654" lon="15.701829346814574"><ele>176.66666666666669</ele><time>2026-04-25T12:52:16.001Z</time></trkpt><trkpt lat="38.18325342135737" lon="15.701617150903415"><ele>172.33333333333334</ele><time>2026-04-25T12:52:17.001Z</time></trkpt><trkpt lat="38.18334438030939" lon="15.701395467216816"><ele>168.0</ele><time>2026-04-25T12:52:18.001Z</time></trkpt><trkpt lat="38.18343613951843" lon="15.701170915963717"><ele>168.33333333333334</ele><time>2026-04-25T12:52:19.001Z</time></trkpt><trkpt lat="38.18352720140926" lon="15.700942744758436"><ele>168.66666666666669</ele><time>2026-04-25T12:52:20.001Z</time></trkpt><trkpt lat="38.183611441843205" lon="15.700700920885449"><ele>169.0</ele><time>2026-04-25T12:52:21.001Z</time></trkpt><trkpt lat="38.18371137328923" lon="15.700487925471247"><ele>169.0</ele><time>2026-04-25T12:52:22.001Z</time></trkpt><trkpt lat="38.18380420397234" lon="15.70026400374649"><ele>169.0</ele><time>2026-04-25T12:52:23.001Z</time></trkpt><trkpt lat="38.18389452245867" lon="15.700019415857914"><ele>169.0</ele><time>2026-04-25T12:52:24.001Z</time></trkpt><trkpt lat="38.183996997241614" lon="15.699779519822783"><ele>168.66666666666669</ele><time>2026-04-25T12:52:25.001Z</time></trkpt><trkpt lat="38.184099201055844" lon="15.699532245989602"><ele>168.33333333333334</ele><time>2026-04-25T12:52:26.001Z</time></trkpt><trkpt lat="38.184195565514834" lon="15.699276209917379"><ele>168.0</ele><time>2026-04-25T12:52:27.001Z</time></trkpt><trkpt lat="38.18429591573694" lon="15.699021740351252"><ele>168.0</ele><time>2026-04-25T12:52:28.001Z</time></trkpt><trkpt lat="38.18440126897089" lon="15.69876562978915"><ele>168.0</ele><time>2026-04-25T12:52:29.002Z</time></trkpt><trkpt lat="38.184502496682974" lon="15.698508934058772"><ele>171.5</ele><time>2026-04-25T12:52:30.002Z</time></trkpt><trkpt lat="38.184601263642094" lon="15.698248469014224"><ele>175.0</ele><time>2026-04-25T12:52:31Z</time></trkpt><trkpt lat="38.184712608725164" lon="15.697997395291118"><ele>180.33333333333334</ele><time>2026-04-25T12:52:32Z</time></trkpt><trkpt lat="38.184808094889526" lon="15.697734111040434"><ele>185.66666666666666</ele><time>2026-04-25T12:52:33Z</time></trkpt><trkpt lat="38.184906088897634" lon="15.697488371612287"><ele>191.0</ele><time>2026-04-25T12:52:34Z</time></trkpt><trkpt lat="38.18499630416175" lon="15.697255061035126"><ele>183.0</ele><time>2026-04-25T12:52:35Z</time></trkpt><trkpt lat="38.18509528594096" lon="15.697013662555094"><ele>175.0</ele><time>2026-04-25T12:52:36Z</time></trkpt><trkpt lat="38.18518670409148" lon="15.696767320090325"><ele>167.0</ele><time>2026-04-25T12:52:37Z</time></trkpt><trkpt lat="38.185298728753445" lon="15.696529751430635"><ele>167.0</ele><time>2026-04-25T12:52:38Z</time></trkpt><trkpt lat="38.18539940003541" lon="15.696275845636988"><ele>167.0</ele><time>2026-04-25T12:52:39Z</time></trkpt><trkpt lat="38.18548240302689" lon="15.696024503755382"><ele>167.0</ele><time>2026-04-25T12:52:40Z</time></trkpt><trkpt lat="38.18558013557263" lon="15.695771760819214"><ele>171.66666666666666</ele><time>2026-04-25T12:52:41Z</time></trkpt><trkpt lat="38.18567403412069" lon="15.695514306859888"><ele>176.33333333333334</ele><time>2026-04-25T12:52:42Z</time></trkpt><trkpt lat="38.185766396236026" lon="15.695252465079898"><ele>181.0</ele><time>2026-04-25T12:52:43Z</time></trkpt><trkpt lat="38.185841207225835" lon="15.694975442377448"><ele>165.5</ele><time>2026-04-25T12:52:44Z</time></trkpt><trkpt lat="38.18590145731332" lon="15.694686464111834"><ele>150.0</ele><time>2026-04-25T12:52:45Z</time></trkpt><trkpt lat="38.18595209342187" lon="15.694389767750703"><ele>147.5</ele><time>2026-04-25T12:52:46Z</time></trkpt><trkpt lat="38.185996739565255" lon="15.694093419489036"><ele>145.0</ele><time>2026-04-25T12:52:47Z</time></trkpt><trkpt lat="38.186023163170255" lon="15.693793654719677"><ele>145.0</ele><time>2026-04-25T12:52:48Z</time></trkpt><trkpt lat="38.18603844938579" lon="15.693480005506967"><ele>145.0</ele><time>2026-04-25T12:52:49Z</time></trkpt><trkpt lat="38.18604075791996" lon="15.693164103658477"><ele>145.0</ele><time>2026-04-25T12:52:50Z</time></trkpt><trkpt lat="38.1860306862532" lon="15.692846088315669"><ele>145.0</ele><time>2026-04-25T12:52:51Z</time></trkpt><trkpt lat="38.186013948742705" lon="15.692524119721538"><ele>144.5</ele><time>2026-04-25T12:52:52Z</time></trkpt><trkpt lat="38.18598008942783" lon="15.692212471650949"><ele>144.0</ele><time>2026-04-25T12:52:53Z</time></trkpt><trkpt lat="38.18595339398118" lon="15.691888311390223"><ele>142.66666666666666</ele><time>2026-04-25T12:52:54Z</time></trkpt><trkpt lat="38.185921635316085" lon="15.691621709064611"><ele>141.33333333333331</ele><time>2026-04-25T12:52:55Z</time></trkpt><trkpt lat="38.18589418523132" lon="15.691337177306018"><ele>140.0</ele><time>2026-04-25T12:52:56Z</time></trkpt><trkpt lat="38.18586293167601" lon="15.69105999512819"><ele>139.33333333333331</ele><time>2026-04-25T12:52:57Z</time></trkpt><trkpt lat="38.18583651968566" lon="15.690778634567655"><ele>138.66666666666666</ele><time>2026-04-25T12:52:58Z</time></trkpt><trkpt lat="38.185811563214024" lon="15.69051653351833"><ele>138.0</ele><time>2026-04-25T12:52:59Z</time></trkpt><trkpt lat="38.18578647974324" lon="15.690285397877402"><ele>138.0</ele><time>2026-04-25T12:53:00Z</time></trkpt><trkpt lat="38.1857659658331" lon="15.690062728172713"><ele>138.0</ele><time>2026-04-25T12:53:01Z</time></trkpt><trkpt lat="38.1857535201529" lon="15.68979246965306"><ele>138.0</ele><time>2026-04-25T12:53:02Z</time></trkpt><trkpt lat="38.18575048032761" lon="15.68953611767802"><ele>137.33333333333334</ele><time>2026-04-25T12:53:03Z</time></trkpt><trkpt lat="38.185760058559325" lon="15.689289327674656"><ele>136.66666666666669</ele><time>2026-04-25T12:53:04Z</time></trkpt><trkpt lat="38.185774660678106" lon="15.689039259607739"><ele>136.0</ele><time>2026-04-25T12:53:05Z</time></trkpt><trkpt lat="38.18578882347602" lon="15.688786752715192"><ele>135.0</ele><time>2026-04-25T12:53:06Z</time></trkpt><trkpt lat="38.18579837338059" lon="15.688539461537834"><ele>134.0</ele><time>2026-04-25T12:53:07Z</time></trkpt><trkpt lat="38.18580935016444" lon="15.688285019346218"><ele>133.0</ele><time>2026-04-25T12:53:08Z</time></trkpt><trkpt lat="38.185823550300235" lon="15.68803221706375"><ele>133.0</ele><time>2026-04-25T12:53:09Z</time></trkpt><trkpt lat="38.18583646449404" lon="15.687776075138542"><ele>133.0</ele><time>2026-04-25T12:53:10Z</time></trkpt><trkpt lat="38.185854828896844" lon="15.687505067823128"><ele>133.0</ele><time>2026-04-25T12:53:11Z</time></trkpt><trkpt lat="38.185871719293814" lon="15.687240963465158"><ele>133.0</ele><time>2026-04-25T12:53:12Z</time></trkpt><trkpt lat="38.18588778287787" lon="15.686975723478314"><ele>133.0</ele><time>2026-04-25T12:53:13Z</time></trkpt><trkpt lat="38.18590352212896" lon="15.68670519096625"><ele>133.0</ele><time>2026-04-25T12:53:14Z</time></trkpt><trkpt lat="38.18590205651941" lon="15.686436366009199"><ele>131.66666666666669</ele><time>2026-04-25T12:53:15Z</time></trkpt><trkpt lat="38.18589325652196" lon="15.686163427080466"><ele>130.33333333333334</ele><time>2026-04-25T12:53:16Z</time></trkpt><trkpt lat="38.18589981558556" lon="15.685895326212261"><ele>129.0</ele><time>2026-04-25T12:53:17Z</time></trkpt><trkpt lat="38.185893311039514" lon="15.68559544448528"><ele>128.0</ele><time>2026-04-25T12:53:18.001Z</time></trkpt><trkpt lat="38.185886829483344" lon="15.685320933870148"><ele>127.0</ele><time>2026-04-25T12:53:19.001Z</time></trkpt><trkpt lat="38.18588026289539" lon="15.685042821925743"><ele>126.0</ele><time>2026-04-25T12:53:20.001Z</time></trkpt><trkpt lat="38.185874242294595" lon="15.684787834001563"><ele>125.0</ele><time>2026-04-25T12:53:21.001Z</time></trkpt><trkpt lat="38.18586798842718" lon="15.68452296662131"><ele>124.0</ele><time>2026-04-25T12:53:22.001Z</time></trkpt><trkpt lat="38.18586169776418" lon="15.684256540890642"><ele>123.0</ele><time>2026-04-25T12:53:23.001Z</time></trkpt><trkpt lat="38.185855493165555" lon="15.683993760190745"><ele>122.66666666666666</ele><time>2026-04-25T12:53:24.001Z</time></trkpt><trkpt lat="38.18584913434292" lon="15.683724447656706"><ele>122.33333333333333</ele><time>2026-04-25T12:53:25.001Z</time></trkpt><trkpt lat="38.18584288022504" lon="15.68345956970749"><ele>122.0</ele><time>2026-04-25T12:53:26.001Z</time></trkpt><trkpt lat="38.1858366222296" lon="15.683194527464753"><ele>121.33333333333333</ele><time>2026-04-25T12:53:27.001Z</time></trkpt><trkpt lat="38.18581765009723" lon="15.682924357827227"><ele>120.66666666666666</ele><time>2026-04-25T12:53:28.001Z</time></trkpt><trkpt lat="38.18580881527302" lon="15.682665213853427"><ele>120.0</ele><time>2026-04-25T12:53:29.001Z</time></trkpt><trkpt lat="38.18580181676275" lon="15.682396167346297"><ele>119.0</ele><time>2026-04-25T12:53:30.001Z</time></trkpt><trkpt lat="38.18581199823731" lon="15.682123956858527"><ele>118.0</ele><time>2026-04-25T12:53:31.001Z</time></trkpt><trkpt lat="38.185806055871396" lon="15.681852841851374"><ele>117.0</ele><time>2026-04-25T12:53:32.001Z</time></trkpt><trkpt lat="38.18580003677373" lon="15.68157822581543"><ele>116.33333333333334</ele><time>2026-04-25T12:53:33.001Z</time></trkpt><trkpt lat="38.1857940659258" lon="15.681305811310787"><ele>115.66666666666667</ele><time>2026-04-25T12:53:34.001Z</time></trkpt><trkpt lat="38.185788225760234" lon="15.681031687227357"><ele>115.0</ele><time>2026-04-25T12:53:35.001Z</time></trkpt><trkpt lat="38.18578231531437" lon="15.680752649080265"><ele>115.0</ele><time>2026-04-25T12:53:36.001Z</time></trkpt><trkpt lat="38.18577646944029" lon="15.680476659313639"><ele>115.0</ele><time>2026-04-25T12:53:37.001Z</time></trkpt><trkpt lat="38.18577051337866" lon="15.680195467611187"><ele>115.0</ele><time>2026-04-25T12:53:38.001Z</time></trkpt><trkpt lat="38.18576453748172" lon="15.67991333938955"><ele>115.0</ele><time>2026-04-25T12:53:39.001Z</time></trkpt><trkpt lat="38.18575860008555" lon="15.679630398300496"><ele>115.0</ele><time>2026-04-25T12:53:40.001Z</time></trkpt><trkpt lat="38.1857528423656" lon="15.67934996698494"><ele>115.0</ele><time>2026-04-25T12:53:41.001Z</time></trkpt><trkpt lat="38.185747254406984" lon="15.679077803814307"><ele>114.0</ele><time>2026-04-25T12:53:42.001Z</time></trkpt><trkpt lat="38.1857416461402" lon="15.678804651660384"><ele>113.0</ele><time>2026-04-25T12:53:43.001Z</time></trkpt><trkpt lat="38.185733426959445" lon="15.678534474043378"><ele>112.0</ele><time>2026-04-25T12:53:44.001Z</time></trkpt><trkpt lat="38.18572473941064" lon="15.678253900144647"><ele>109.5</ele><time>2026-04-25T12:53:45.001Z</time></trkpt><trkpt lat="38.18570725265384" lon="15.6779678933788"><ele>107.0</ele><time>2026-04-25T12:53:46.001Z</time></trkpt><trkpt lat="38.18566604710735" lon="15.677686541981144"><ele>106.5</ele><time>2026-04-25T12:53:47.001Z</time></trkpt><trkpt lat="38.18565185661594" lon="15.677403295623142"><ele>106.0</ele><time>2026-04-25T12:53:48.001Z</time></trkpt><trkpt lat="38.18559650001955" lon="15.677118036218431"><ele>104.5</ele><time>2026-04-25T12:53:49.001Z</time></trkpt><trkpt lat="38.1855447695318" lon="15.676842943673558"><ele>103.0</ele><time>2026-04-25T12:53:50.001Z</time></trkpt><trkpt lat="38.18547941261892" lon="15.676558460675205"><ele>103.0</ele><time>2026-04-25T12:53:51.001Z</time></trkpt><trkpt lat="38.18540765769623" lon="15.676276412838128"><ele>103.0</ele><time>2026-04-25T12:53:52.001Z</time></trkpt><trkpt lat="38.18531976915062" lon="15.675999674546041"><ele>102.0</ele><time>2026-04-25T12:53:53.001Z</time></trkpt><trkpt lat="38.18521824024117" lon="15.675732229068826"><ele>101.0</ele><time>2026-04-25T12:53:54.001Z</time></trkpt><trkpt lat="38.18510617474103" lon="15.675464032099008"><ele>100.0</ele><time>2026-04-25T12:53:55.001Z</time></trkpt><trkpt lat="38.18499344367558" lon="15.675194790561806"><ele>99.0</ele><time>2026-04-25T12:53:56.001Z</time></trkpt><trkpt lat="38.184870285484976" lon="15.674930737013215"><ele>97.5</ele><time>2026-04-25T12:53:57.001Z</time></trkpt><trkpt lat="38.18473979675459" lon="15.67467271918953"><ele>96.0</ele><time>2026-04-25T12:53:58.001Z</time></trkpt><trkpt lat="38.18460287233534" lon="15.674412046373067"><ele>95.0</ele><time>2026-04-25T12:53:59.001Z</time></trkpt><trkpt lat="38.18447016240385" lon="15.67414827977455"><ele>94.0</ele><time>2026-04-25T12:54:00.001Z</time></trkpt><trkpt lat="38.184333347746794" lon="15.673885423255241"><ele>94.0</ele><time>2026-04-25T12:54:01.001Z</time></trkpt><trkpt lat="38.184192100184376" lon="15.673634850742422"><ele>94.0</ele><time>2026-04-25T12:54:02.001Z</time></trkpt><trkpt lat="38.184052470472295" lon="15.673386218645867"><ele>93.0</ele><time>2026-04-25T12:54:03.001Z</time></trkpt><trkpt lat="38.183916083226414" lon="15.673137149567717"><ele>92.0</ele><time>2026-04-25T12:54:04.001Z</time></trkpt><trkpt lat="38.183796053521505" lon="15.67288198466895"><ele>91.5</ele><time>2026-04-25T12:54:05.001Z</time></trkpt><trkpt lat="38.18365430705081" lon="15.672647869784509"><ele>91.0</ele><time>2026-04-25T12:54:06.001Z</time></trkpt><trkpt lat="38.183529582919604" lon="15.672403236010897"><ele>91.0</ele><time>2026-04-25T12:54:07.001Z</time></trkpt><trkpt lat="38.183410333033656" lon="15.672171568501623"><ele>91.0</ele><time>2026-04-25T12:54:08.001Z</time></trkpt><trkpt lat="38.183289823217116" lon="15.671944670942372"><ele>91.0</ele><time>2026-04-25T12:54:09.001Z</time></trkpt><trkpt lat="38.183173340816" lon="15.67171551543466"><ele>89.66666666666666</ele><time>2026-04-25T12:54:10.001Z</time></trkpt><trkpt lat="38.18305886398907" lon="15.671495397792613"><ele>88.33333333333333</ele><time>2026-04-25T12:54:11.001Z</time></trkpt><trkpt lat="38.18295129391906" lon="15.671305504535262"><ele>87.0</ele><time>2026-04-25T12:54:12.001Z</time></trkpt><trkpt lat="38.18286554221335" lon="15.671109784324562"><ele>87.0</ele><time>2026-04-25T12:54:13.001Z</time></trkpt><trkpt lat="38.18277463694735" lon="15.670937267494805"><ele>87.0</ele><time>2026-04-25T12:54:14.001Z</time></trkpt><trkpt lat="38.182683881929115" lon="15.670765035847761"><ele>87.0</ele><time>2026-04-25T12:54:15.001Z</time></trkpt><trkpt lat="38.182596844128796" lon="15.67060120477685"><ele>87.0</ele><time>2026-04-25T12:54:16.001Z</time></trkpt><trkpt lat="38.18250947560904" lon="15.670437089897835"><ele>87.0</ele><time>2026-04-25T12:54:17.001Z</time></trkpt><trkpt lat="38.18242511432167" lon="15.670277072687211"><ele>87.0</ele><time>2026-04-25T12:54:18.001Z</time></trkpt><trkpt lat="38.18233382701676" lon="15.67013294707088"><ele>86.19999999999999</ele><time>2026-04-25T12:54:19.001Z</time></trkpt><trkpt lat="38.18227079363422" lon="15.669982242517108"><ele>85.4</ele><time>2026-04-25T12:54:20.001Z</time></trkpt><trkpt lat="38.18221846192173" lon="15.669839509433949"><ele>84.6</ele><time>2026-04-25T12:54:21.001Z</time></trkpt><trkpt lat="38.18217414832152" lon="15.669726519364128"><ele>83.80000000000001</ele><time>2026-04-25T12:54:22.001Z</time></trkpt><trkpt lat="38.182134985798584" lon="15.669623142713787"><ele>83.0</ele><time>2026-04-25T12:54:23.001Z</time></trkpt><trkpt lat="38.18209304129971" lon="15.669500499152388"><ele>82.75</ele><time>2026-04-25T12:54:24.001Z</time></trkpt><trkpt lat="38.182029193290866" lon="15.669377203655868"><ele>82.5</ele><time>2026-04-25T12:54:25.001Z</time></trkpt><trkpt lat="38.181957825298504" lon="15.669249310834727"><ele>82.25</ele><time>2026-04-25T12:54:26.001Z</time></trkpt><trkpt lat="38.18188172302449" lon="15.669113979534085"><ele>82.0</ele><time>2026-04-25T12:54:27.001Z</time></trkpt><trkpt lat="38.18180458999667" lon="15.668973013459318"><ele>82.0</ele><time>2026-04-25T12:54:28.001Z</time></trkpt><trkpt lat="38.18171931656457" lon="15.668818765411041"><ele>82.0</ele><time>2026-04-25T12:54:29.001Z</time></trkpt><trkpt lat="38.18163906788089" lon="15.668670582742037"><ele>82.0</ele><time>2026-04-25T12:54:30.001Z</time></trkpt><trkpt lat="38.18155734888326" lon="15.668510704797589"><ele>82.0</ele><time>2026-04-25T12:54:31.002Z</time></trkpt><trkpt lat="38.181476808490366" lon="15.668354013301558"><ele>80.66666666666666</ele><time>2026-04-25T12:54:32.002Z</time></trkpt><trkpt lat="38.181391946027624" lon="15.66819162370035"><ele>79.33333333333333</ele><time>2026-04-25T12:54:33.002Z</time></trkpt><trkpt lat="38.18129560157267" lon="15.668009760719068"><ele>78.0</ele><time>2026-04-25T12:54:34.002Z</time></trkpt><trkpt lat="38.181202865163456" lon="15.66782680893165"><ele>77.33333333333333</ele><time>2026-04-25T12:54:35.002Z</time></trkpt><trkpt lat="38.18110870199981" lon="15.667635635611928"><ele>76.66666666666666</ele><time>2026-04-25T12:54:36.002Z</time></trkpt><trkpt lat="38.18102728472884" lon="15.667438139700666"><ele>76.0</ele><time>2026-04-25T12:54:37Z</time></trkpt><trkpt lat="38.180931296679276" lon="15.66719763641313"><ele>75.5</ele><time>2026-04-25T12:54:38Z</time></trkpt><trkpt lat="38.1808276699042" lon="15.666923623098146"><ele>75.0</ele><time>2026-04-25T12:54:39Z</time></trkpt><trkpt lat="38.18068004142664" lon="15.666645945303774"><ele>74.66666666666667</ele><time>2026-04-25T12:54:40Z</time></trkpt><trkpt lat="38.180522977350265" lon="15.666443399827951"><ele>74.33333333333334</ele><time>2026-04-25T12:54:42Z</time></trkpt><trkpt lat="38.180421639924205" lon="15.666241592858015"><ele>74.0</ele><time>2026-04-25T12:54:43Z</time></trkpt><trkpt lat="38.180325086557325" lon="15.666041675245012"><ele>74.0</ele><time>2026-04-25T12:54:44Z</time></trkpt><trkpt lat="38.18022819976251" lon="15.665836804741515"><ele>74.0</ele><time>2026-04-25T12:54:45Z</time></trkpt><trkpt lat="38.18012524956882" lon="15.665630514476494"><ele>74.0</ele><time>2026-04-25T12:54:46Z</time></trkpt><trkpt lat="38.18002472006763" lon="15.665425014865464"><ele>72.66666666666667</ele><time>2026-04-25T12:54:47Z</time></trkpt><trkpt lat="38.17992352147567" lon="15.66521238392181"><ele>71.33333333333333</ele><time>2026-04-25T12:54:48Z</time></trkpt><trkpt lat="38.17982612853386" lon="15.665007060439324"><ele>70.0</ele><time>2026-04-25T12:54:49Z</time></trkpt><trkpt lat="38.179724927021105" lon="15.664812892196846"><ele>69.33333333333333</ele><time>2026-04-25T12:54:50Z</time></trkpt><trkpt lat="38.17962465900494" lon="15.664612795452477"><ele>68.66666666666667</ele><time>2026-04-25T12:54:51Z</time></trkpt><trkpt lat="38.17952481373011" lon="15.664415070986655"><ele>68.0</ele><time>2026-04-25T12:54:52Z</time></trkpt><trkpt lat="38.17942083827039" lon="15.664215473679299"><ele>68.0</ele><time>2026-04-25T12:54:53Z</time></trkpt><trkpt lat="38.17931874512987" lon="15.664017169565708"><ele>68.0</ele><time>2026-04-25T12:54:54Z</time></trkpt><trkpt lat="38.17921646486281" lon="15.66382229890082"><ele>68.0</ele><time>2026-04-25T12:54:55Z</time></trkpt><trkpt lat="38.17910987227893" lon="15.663635629334014"><ele>68.0</ele><time>2026-04-25T12:54:56Z</time></trkpt><trkpt lat="38.17900187971876" lon="15.663437662335703"><ele>68.0</ele><time>2026-04-25T12:54:57Z</time></trkpt><trkpt lat="38.17888930092109" lon="15.663251447264148"><ele>68.0</ele><time>2026-04-25T12:54:58Z</time></trkpt><trkpt lat="38.178765078018856" lon="15.663006502068246"><ele>68.0</ele><time>2026-04-25T12:54:59Z</time></trkpt><trkpt lat="38.17865182158834" lon="15.66284074331152"><ele>68.0</ele><time>2026-04-25T12:55:00Z</time></trkpt><trkpt lat="38.17852941105109" lon="15.66265329848007"><ele>68.0</ele><time>2026-04-25T12:55:01Z</time></trkpt><trkpt lat="38.17838622633015" lon="15.662457397620768"><ele>67.0</ele><time>2026-04-25T12:55:02Z</time></trkpt><trkpt lat="38.17822872656866" lon="15.662236253591475"><ele>66.0</ele><time>2026-04-25T12:55:03Z</time></trkpt><trkpt lat="38.178101571876844" lon="15.66204049721532"><ele>65.0</ele><time>2026-04-25T12:55:04Z</time></trkpt><trkpt lat="38.177943741640455" lon="15.661805083483662"><ele>61.5</ele><time>2026-04-25T12:55:05Z</time></trkpt><trkpt lat="38.177778025822775" lon="15.661540053149121"><ele>58.0</ele><time>2026-04-25T12:55:06Z</time></trkpt><trkpt lat="38.17756065923825" lon="15.66122377730495"><ele>57.5</ele><time>2026-04-25T12:55:07Z</time></trkpt><trkpt lat="38.17736788624152" lon="15.660957931612195"><ele>57.0</ele><time>2026-04-25T12:55:08Z</time></trkpt><trkpt lat="38.17719909552195" lon="15.660713391405398"><ele>56.5</ele><time>2026-04-25T12:55:09Z</time></trkpt><trkpt lat="38.17704162483917" lon="15.660476976269617"><ele>56.0</ele><time>2026-04-25T12:55:10Z</time></trkpt><trkpt lat="38.17689425914013" lon="15.660249876057634"><ele>55.333333333333336</ele><time>2026-04-25T12:55:11Z</time></trkpt><trkpt lat="38.17675072838995" lon="15.660030785362492"><ele>54.66666666666667</ele><time>2026-04-25T12:55:12Z</time></trkpt><trkpt lat="38.17660959047083" lon="15.65982907274045"><ele>54.0</ele><time>2026-04-25T12:55:13Z</time></trkpt><trkpt lat="38.176479078808" lon="15.659634869647892"><ele>52.66666666666667</ele><time>2026-04-25T12:55:14Z</time></trkpt><trkpt lat="38.176355368247975" lon="15.659447803413428"><ele>51.333333333333336</ele><time>2026-04-25T12:55:15Z</time></trkpt><trkpt lat="38.176235544675365" lon="15.659266515279835"><ele>50.0</ele><time>2026-04-25T12:55:16Z</time></trkpt><trkpt lat="38.17611945848188" lon="15.65909603796954"><ele>50.0</ele><time>2026-04-25T12:55:17Z</time></trkpt><trkpt lat="38.17600675541695" lon="15.658927119570185"><ele>50.0</ele><time>2026-04-25T12:55:18Z</time></trkpt><trkpt lat="38.17589300029534" lon="15.65875376831513"><ele>50.0</ele><time>2026-04-25T12:55:19Z</time></trkpt><trkpt lat="38.17577217193589" lon="15.658576280563075"><ele>49.0</ele><time>2026-04-25T12:55:20.001Z</time></trkpt><trkpt lat="38.175644952559615" lon="15.65840051881552"><ele>48.0</ele><time>2026-04-25T12:55:21.001Z</time></trkpt><trkpt lat="38.17551087995337" lon="15.658223221621743"><ele>47.0</ele><time>2026-04-25T12:55:22.001Z</time></trkpt><trkpt lat="38.17537375420769" lon="15.658059699429268"><ele>47.0</ele><time>2026-04-25T12:55:23.001Z</time></trkpt><trkpt lat="38.17522054440839" lon="15.657909334500012"><ele>47.0</ele><time>2026-04-25T12:55:24.001Z</time></trkpt><trkpt lat="38.175063686223815" lon="15.657763791913975"><ele>47.0</ele><time>2026-04-25T12:55:25.001Z</time></trkpt><trkpt lat="38.174900659822136" lon="15.657626490313731"><ele>45.666666666666664</ele><time>2026-04-25T12:55:26.001Z</time></trkpt><trkpt lat="38.17472878875678" lon="15.657515562496245"><ele>44.333333333333336</ele><time>2026-04-25T12:55:27.001Z</time></trkpt><trkpt lat="38.174555836657376" lon="15.657420242315183"><ele>43.0</ele><time>2026-04-25T12:55:28.001Z</time></trkpt><trkpt lat="38.17438137241419" lon="15.65733221979924"><ele>43.0</ele><time>2026-04-25T12:55:29.001Z</time></trkpt><trkpt lat="38.17420775031283" lon="15.657264693730973"><ele>43.0</ele><time>2026-04-25T12:55:30.001Z</time></trkpt><trkpt lat="38.174033206394455" lon="15.657209070808683"><ele>43.0</ele><time>2026-04-25T12:55:31.001Z</time></trkpt><trkpt lat="38.173862608076846" lon="15.657148256993167"><ele>42.66666666666667</ele><time>2026-04-25T12:55:32.001Z</time></trkpt><trkpt lat="38.17369690020307" lon="15.657084886715833"><ele>42.333333333333336</ele><time>2026-04-25T12:55:33.001Z</time></trkpt><trkpt lat="38.17353355268273" lon="15.65702451739689"><ele>42.0</ele><time>2026-04-25T12:55:34.001Z</time></trkpt><trkpt lat="38.173372006648464" lon="15.656963982416016"><ele>41.0</ele><time>2026-04-25T12:55:35.001Z</time></trkpt><trkpt lat="38.17320792051286" lon="15.656908176434944"><ele>40.0</ele><time>2026-04-25T12:55:36.001Z</time></trkpt><trkpt lat="38.17304583023253" lon="15.656853744848657"><ele>39.0</ele><time>2026-04-25T12:55:37.001Z</time></trkpt><trkpt lat="38.1728837871246" lon="15.656799984608792"><ele>38.333333333333336</ele><time>2026-04-25T12:55:38.001Z</time></trkpt><trkpt lat="38.17272180525207" lon="15.656745947436349"><ele>37.66666666666667</ele><time>2026-04-25T12:55:39.001Z</time></trkpt><trkpt lat="38.172559003454694" lon="15.656688373769434"><ele>37.0</ele><time>2026-04-25T12:55:40.001Z</time></trkpt><trkpt lat="38.172403377293776" lon="15.656632129215147"><ele>36.333333333333336</ele><time>2026-04-25T12:55:41.001Z</time></trkpt><trkpt lat="38.17224357917526" lon="15.656557351295332"><ele>35.666666666666664</ele><time>2026-04-25T12:55:42.001Z</time></trkpt><trkpt lat="38.17208769938976" lon="15.656461391546943"><ele>35.0</ele><time>2026-04-25T12:55:43.001Z</time></trkpt><trkpt lat="38.17193723148262" lon="15.656350070590673"><ele>35.0</ele><time>2026-04-25T12:55:44.001Z</time></trkpt><trkpt lat="38.171798266089034" lon="15.656214562804205"><ele>35.0</ele><time>2026-04-25T12:55:45.001Z</time></trkpt><trkpt lat="38.171677887777015" lon="15.656064035711937"><ele>35.0</ele><time>2026-04-25T12:55:46.001Z</time></trkpt><trkpt lat="38.171570592838215" lon="15.655900669779044"><ele>35.0</ele><time>2026-04-25T12:55:47.001Z</time></trkpt><trkpt lat="38.17147136561405" lon="15.65572796064776"><ele>35.0</ele><time>2026-04-25T12:55:48.001Z</time></trkpt><trkpt lat="38.17138140139268" lon="15.655543078411721"><ele>35.0</ele><time>2026-04-25T12:55:49.001Z</time></trkpt><trkpt lat="38.171308336788336" lon="15.655343234620338"><ele>34.0</ele><time>2026-04-25T12:55:50.001Z</time></trkpt><trkpt lat="38.17124567545141" lon="15.655142651675943"><ele>33.0</ele><time>2026-04-25T12:55:51.001Z</time></trkpt><trkpt lat="38.17119524386564" lon="15.654938365366943"><ele>32.0</ele><time>2026-04-25T12:55:52.001Z</time></trkpt><trkpt lat="38.171151607956766" lon="15.654766394518392"><ele>32.0</ele><time>2026-04-25T12:55:53.001Z</time></trkpt><trkpt lat="38.17111280695924" lon="15.654591809832887"><ele>32.0</ele><time>2026-04-25T12:55:54.001Z</time></trkpt><trkpt lat="38.17104596512111" lon="15.654361482563814"><ele>32.0</ele><time>2026-04-25T12:55:55.001Z</time></trkpt><trkpt lat="38.17099651033322" lon="15.654165685852073"><ele>31.0</ele><time>2026-04-25T12:55:56.001Z</time></trkpt><trkpt lat="38.170935621625624" lon="15.653953025822256"><ele>30.0</ele><time>2026-04-25T12:55:57.001Z</time></trkpt><trkpt lat="38.170887146840336" lon="15.653788678967906"><ele>29.0</ele><time>2026-04-25T12:55:58.001Z</time></trkpt><trkpt lat="38.170834193219825" lon="15.653607254704124"><ele>28.75</ele><time>2026-04-25T12:55:59.001Z</time></trkpt><trkpt lat="38.170805121337075" lon="15.653429013442388"><ele>28.5</ele><time>2026-04-25T12:56:00.001Z</time></trkpt><trkpt lat="38.17076582318991" lon="15.653268533699215"><ele>28.25</ele><time>2026-04-25T12:56:01.001Z</time></trkpt><trkpt lat="38.17073228362414" lon="15.653110813475715"><ele>28.0</ele><time>2026-04-25T12:56:02.001Z</time></trkpt><trkpt lat="38.17069382160084" lon="15.652969555913405"><ele>28.0</ele><time>2026-04-25T12:56:03.001Z</time></trkpt><trkpt lat="38.17069048389117" lon="15.652833207824576"><ele>27.0</ele><time>2026-04-25T12:56:04.001Z</time></trkpt><trkpt lat="38.17069101218275" lon="15.652714442181601"><ele>25.0</ele><time>2026-04-25T12:56:05.001Z</time></trkpt><trkpt lat="38.1706919483674" lon="15.652629049785713"><ele>26.0</ele><time>2026-04-25T12:56:06.001Z</time></trkpt></trkseg></trk></gpx>